[[{"header":{"parameterUnit":"m.s-1","parameterCategory":1,"la1":31.0,"la2":29.5877,"lo1":-88.7671,"lo2":-86.6584,"dy":0.0162,"dx":0.0185,"nx":115,"ny":88,"refTime":"2023-03-09T06:00:00:Z","depth":0,"parameterNumber":2,"parameterNumberName":"U-component_of_WINDS"},"data":[0.0,0.0,0.0,0.0,0.0,0.0,0.0,0.0,0.0,0.0,0.0,0.0,0.0,0.0,0.0,0.0,0.0,0.0,0.0,0.0,0.0,0.0,0.0,0.0,0.0,0.0,0.0,0.0,0.0,0.0,0.0,0.0,0.0,0.0,0.0,0.0,0.0,0.0,0.0,0.0,0.0,0.0,0.0,0.0,0.0,0.0,0.0,0.0,0.0,0.0,0.0,0.0,0.0,0.0,0.0,0.0,0.0,0.0,0.0,0.0,0.0,0.0,0.0,0.0,0.0,0.0,0.0,0.0,0.0,0.0,0.0,0.0,0.0,0.0,0.0,0.0,0.0,0.0,0.0,0.0,0.0,0.0,0.0,0.0,0.0,0.0,0.0,0.0,0.0,0.0,0.0,0.0,0.0,0.0,0.0,0.0,0.0,0.0,0.0,0.0,0.0,0.0,0.0,0.0,0.0,0.0,0.0,0.0,0.0,0.0,0.0,0.0,0.0,0.0,0.0,0.0,0.0,0.0,0.0,0.0,0.0,0.0,0.0,0.0,0.0,0.0,0.0,0.0,0.0,0.0,0.0,0.0,0.0,0.0,0.0,0.0,0.0,0.0,0.0,0.0,0.0,0.0,0.0,0.0,0.0,0.0,0.0,0.0,0.0,0.0,0.0,0.0,0.0,0.0,0.0,0.0,0.0,0.0,0.0,0.0,0.0,0.0,0.0,0.0,0.0,0.0,0.0,0.0,0.0,0.0,0.0,0.0,0.0,0.0,0.0,0.0,0.0,0.0,0.0,0.0,0.0,0.0,0.0,0.0,0.0,0.0,0.0,0.0,0.0,0.0,0.0,0.0,0.0,0.0,0.0,0.0,0.0,0.0,0.0,0.0,0.0,0.0,0.0,0.0,0.0,0.0,0.0,0.0,0.0,0.0,0.0,0.0,0.0,0.0,0.0,0.0,0.0,0.0,0.0,0.0,0.0,0.0,0.0,0.0,0.0,0.0,0.0,0.0,0.0,0.0,0.0,0.0,0.0,0.0,0.0,0.0,0.0,0.0,0.0,0.0,0.0,0.0,0.0,0.0,0.0,0.0,0.0,0.0,0.0,0.0,0.0,0.0,0.0,0.0,0.0,0.0,0.0,0.0,0.0,0.0,0.0,0.0,0.0,0.0,0.0,0.0,0.0,0.0,0.0,0.0,0.0,0.0,0.0,0.0,0.0,0.0,0.0,0.0,0.0,0.0,0.0,0.0,0.0,0.0,0.0,0.0,0.0,0.0,0.0,0.0,0.0,0.0,0.0,0.0,0.0,0.0,0.0,0.0,0.0,0.0,0.0,0.0,0.0,0.0,0.0,0.0,0.0,0.0,0.0,0.0,0.0,0.0,0.0,0.0,0.0,0.0,0.0,0.0,0.0,0.0,0.0,0.0,0.0,0.0,0.0,0.0,0.0,0.0,0.0,0.0,0.0,0.0,0.0,0.0,0.0,0.0,0.0,0.0,0.0,0.0,0.0,0.0,0.0,0.0,0.0,0.0,0.0,0.0,0.0,0.0,0.0,0.0,0.0,0.0,0.0,0.0,0.0,0.0,0.0,0.0,0.0,0.0,0.0,0.0,0.0,0.0,0.0,0.0,0.0,0.0,0.0,0.0,0.0,0.0,0.0,0.0,0.0,0.0,0.0,0.0,0.0,0.0,0.0,0.0,0.0,0.0,0.0,0.0,0.0,0.0,0.0,0.0,0.0,0.0,0.0,0.0,0.0,0.0,0.0,0.0,0.0,0.0,0.0,0.0,0.0,0.0,0.0,0.0,0.0,0.0,0.0,0.0,0.0,0.0,0.0,0.0,0.0,0.0,0.0,0.0,0.0,0.0,0.0,0.0,0.0,0.0,0.0,0.0,0.0,0.0,0.0,0.0,0.0,0.0,0.0,0.0,0.0,0.0,0.0,0.0,0.0,0.0,0.0,0.0,0.0,0.0,0.0,0.0,0.0,0.0,0.0,0.0,0.0,0.0,0.0,0.0,0.0,0.0,0.0,0.0,0.0,0.0,0.0,0.0,0.0,0.0,0.0,0.0,0.0,0.0,0.0,0.0,0.0,0.0,0.0,0.0,0.0,0.0,0.0,0.0,0.0,0.0,0.0,0.0,0.0,0.0,0.0,0.0,0.0,0.0,0.0,0.0,0.0,0.0,0.0,0.0,0.0,0.0,0.0,0.0,0.0,0.0,0.0,0.0,0.0,0.0,0.0,0.0,0.0,0.0,0.0,0.0,0.0,0.0,0.0,0.0,0.0,0.0,0.0,0.0,0.0,0.0,0.0,0.0,0.0,0.0,0.0,0.0,0.0,0.0,0.0,0.0,0.0,0.0,0.0,0.0,0.0,0.0,0.0,0.0,0.0,0.0,0.0,0.0,0.0,0.0,0.0,0.0,0.0,0.0,0.0,0.0,0.0,0.0,0.0,0.0,0.0,0.0,0.0,0.0,0.0,0.0,0.0,0.0,0.0,0.0,0.0,0.0,0.0,0.0,0.0,0.0,0.0,0.0,0.0,0.0,0.0,0.0,0.0,0.0,0.0,0.0,0.0,0.0,0.0,0.0,0.0,0.0,0.0,0.0,0.0,0.0,0.0,0.0,0.0,0.0,0.0,0.0,0.0,0.0,0.0,0.0,0.0,0.0,0.0,0.0,0.0,0.0,0.0,0.0,0.0,0.0,0.0,0.0,0.0,0.0,0.0,0.0,0.0,0.0,0.0,0.0,0.0,0.0,0.0,0.0,0.0,0.0,0.0,0.0,0.0,0.0,0.0,0.0,0.0,0.0,0.0,0.0,0.0,0.0,0.0,0.0,0.0,0.0,0.0,0.0,0.0,0.0,0.0,0.0,0.0,0.0,0.0,0.0,0.0,0.0,0.0,0.0,0.0,0.0,0.0,0.0,0.0,0.0,0.0,0.0,0.0,0.0,0.0,0.0,0.0,0.0,0.0,0.0,0.0,0.0,0.0,0.0,0.0,0.0,0.0,0.0,0.0,0.0,0.0,0.0,0.0,0.0,0.0,0.0,0.0,0.0,0.0,0.0,0.0,0.0,0.0,0.0,0.0,0.0,0.0,0.0,0.0,0.0,0.0,0.0,0.0,0.0,0.0,0.0,0.0,0.0,0.0,0.0,0.0,0.0,0.0,0.0,0.0,0.0,0.0,0.0,0.0,0.0,0.0,0.0,0.0,0.0,0.0,0.0,0.0,0.0,0.0,0.0,0.0,0.0,0.0,0.0,0.0,0.0,0.0,0.0,0.0,0.0,0.0,0.0,0.0,0.0,0.0,0.0,0.0,0.0,0.0,0.0,0.0,0.0,0.0,0.0,0.0,0.0,0.0,0.0,0.0,0.0,0.0,0.0,0.0,0.0,0.0,0.0,0.0,0.0,0.0,0.0,0.0,0.0,0.0,0.0,0.0,0.0,0.0,0.0,0.0,0.0,0.0,0.0,0.0,0.0,0.0,0.0,0.0,0.0,0.0,0.0,0.0,0.0,0.0,0.0,0.0,0.0,0.0,0.0,0.0,0.0,0.0,0.0,0.0,0.0,0.0,0.0,0.0,0.0,0.0,0.0,0.0,0.0,0.0,0.0,0.0,0.0,0.0,0.0,0.0,0.0,0.0,0.0,0.0,0.0,0.0,0.0,0.0,0.0,0.0,0.0,0.0,0.0,0.0,0.0,0.0,0.0,0.0,0.0,0.0,0.0,0.0,0.0,0.0,0.0,0.0,0.0,0.0,0.0,0.0,0.0,0.0,0.0,0.0,0.0,0.0,0.0,0.0,0.0,0.0,0.0,0.0,0.0,0.0,0.0,0.0,0.0,0.0,0.0,0.0,0.0,0.0,0.0,0.0,0.0,0.0,0.0,0.0,0.0,0.0,0.0,0.0,0.0,0.0,0.0,0.0,0.0,0.0,0.0,0.0,0.0,0.0,0.0,0.0,0.0,0.0,0.0,0.0,0.0,0.0,0.0,0.0,0.0,0.0,0.0,0.0,0.0,0.0,0.0,0.0,0.0,0.0,0.0,0.0,0.0,0.0,0.0,0.0,0.0,0.0,0.0,0.0,0.0,0.0,0.0,0.0,0.0,0.0,0.0,0.0,0.0,0.0,0.0,0.0,0.0,0.0,0.0,0.0,0.0,0.0,0.0,0.0,0.0,0.0,0.0,0.0,0.0,0.0,0.0,0.0,0.0,0.0,0.0,0.0,0.0,0.0,0.0,0.0,0.0,0.0,0.0,0.0,0.0,2.5212,0.0,0.0,0.0,0.0,0.0,0.0,0.0,0.0,0.0,0.0,0.0,0.0,0.0,0.0,0.0,0.0,0.0,0.0,0.0,0.0,0.0,0.0,0.0,0.0,0.0,0.0,0.0,0.0,0.0,0.0,0.0,0.0,0.0,0.0,0.0,0.0,0.0,0.0,0.0,0.0,0.0,0.0,0.0,0.0,0.0,0.0,0.0,0.0,0.0,0.0,0.0,0.0,0.0,0.0,0.0,0.0,0.0,0.0,0.0,0.0,0.0,0.0,0.0,0.0,0.0,0.0,0.0,0.0,0.0,0.0,0.0,0.0,0.0,0.0,0.0,0.0,0.0,0.0,0.0,0.0,0.0,0.0,0.0,0.0,0.0,0.0,0.0,0.0,0.0,0.0,0.0,0.0,0.0,0.0,0.0,0.0,0.0,0.0,0.0,0.0,0.0,0.0,0.0,0.0,0.0,0.0,0.0,0.0,0.0,0.0,2.521,2.5203,2.5206,2.5198,2.5209,0.0,0.0,0.0,0.0,0.0,0.0,0.0,0.0,0.0,0.0,0.0,0.0,0.0,0.0,0.0,0.0,0.0,0.0,0.0,0.0,0.0,0.0,0.0,0.0,0.0,0.0,0.0,0.0,0.0,0.0,0.0,0.0,0.0,0.0,0.0,0.0,0.0,0.0,0.0,0.0,0.0,0.0,0.0,0.0,0.0,0.0,0.0,0.0,0.0,0.0,0.0,0.0,0.0,0.0,0.0,0.0,0.0,0.0,0.0,0.0,0.0,0.0,0.0,0.0,0.0,0.0,0.0,0.0,0.0,0.0,0.0,0.0,0.0,0.0,0.0,0.0,0.0,0.0,0.0,0.0,0.0,0.0,0.0,0.0,0.0,0.0,0.0,0.0,0.0,0.0,0.0,0.0,0.0,0.0,0.0,0.0,0.0,0.0,0.0,0.0,0.0,0.0,0.0,0.0,0.0,0.0,0.0,0.0,0.0,0.0,0.0,0.0,2.5214,2.5206,2.5217,0.0,0.0,0.0,0.0,0.0,0.0,0.0,0.0,0.0,0.0,0.0,0.0,0.0,0.0,0.0,0.0,0.0,0.0,0.0,0.0,0.0,0.0,0.0,0.0,0.0,0.0,0.0,0.0,0.0,0.0,0.0,0.0,0.0,0.0,0.0,0.0,0.0,0.0,0.0,0.0,0.0,0.0,0.0,0.0,0.0,0.0,0.0,0.0,0.0,0.0,0.0,0.0,0.0,0.0,0.0,0.0,0.0,0.0,0.0,0.0,0.0,0.0,0.0,0.0,0.0,0.0,0.0,0.0,0.0,0.0,0.0,0.0,0.0,0.0,0.0,0.0,0.0,0.0,0.0,0.0,0.0,0.0,0.0,0.0,0.0,0.0,0.0,0.0,0.0,0.0,0.0,0.0,0.0,0.0,0.0,0.0,0.0,0.0,0.0,0.0,0.0,0.0,0.0,0.0,0.0,0.0,0.0,0.0,0.0,0.0,2.521,2.521,2.521,0.0,2.5206,0.0,0.0,0.0,0.0,0.0,0.0,0.0,0.0,0.0,0.0,0.0,0.0,0.0,0.0,0.0,0.0,0.0,0.0,0.0,0.0,0.0,0.0,0.0,0.0,0.0,0.0,0.0,0.0,0.0,0.0,0.0,0.0,0.0,0.0,0.0,0.0,0.0,0.0,0.0,0.0,0.0,0.0,0.0,0.0,0.0,0.0,0.0,0.0,0.0,0.0,0.0,0.0,0.0,0.0,0.0,0.0,0.0,0.0,0.0,0.0,0.0,0.0,0.0,0.0,0.0,0.0,0.0,0.0,0.0,0.0,0.0,0.0,0.0,0.0,0.0,0.0,0.0,0.0,0.0,0.0,0.0,0.0,0.0,0.0,0.0,0.0,0.0,0.0,0.0,0.0,0.0,0.0,0.0,0.0,0.0,0.0,0.0,0.0,0.0,0.0,0.0,0.0,0.0,0.0,0.0,0.0,0.0,0.0,0.0,0.0,2.521,2.521,2.521,2.521,0.0,0.0,0.0,0.0,0.0,0.0,0.0,0.0,0.0,0.0,0.0,0.0,0.0,0.0,0.0,0.0,0.0,0.0,0.0,0.0,0.0,0.0,0.0,0.0,0.0,0.0,0.0,0.0,0.0,0.0,0.0,0.0,0.0,0.0,0.0,0.0,0.0,0.0,0.0,0.0,0.0,0.0,0.0,0.0,0.0,0.0,0.0,0.0,0.0,0.0,0.0,0.0,0.0,0.0,0.0,0.0,0.0,0.0,0.0,0.0,0.0,0.0,0.0,0.0,0.0,0.0,0.0,0.0,0.0,0.0,0.0,0.0,0.0,0.0,0.0,0.0,0.0,0.0,0.0,0.0,0.0,0.0,0.0,0.0,0.0,0.0,0.0,0.0,0.0,0.0,0.0,0.0,0.0,0.0,0.0,0.0,0.0,0.0,0.0,0.0,0.0,0.0,0.0,0.0,0.0,0.0,0.0,0.0,0.0,0.0,2.521,2.521,2.521,2.521,2.521,2.521,0.0,0.0,0.0,0.0,0.0,0.0,0.0,0.0,0.0,0.0,0.0,0.0,0.0,0.0,0.0,0.0,0.0,0.0,0.0,0.0,0.0,0.0,0.0,0.0,0.0,0.0,0.0,0.0,0.0,0.0,0.0,0.0,0.0,0.0,0.0,0.0,0.0,0.0,0.0,0.0,0.0,0.0,0.0,0.0,0.0,0.0,0.0,0.0,0.0,0.0,0.0,0.0,0.0,0.0,0.0,0.0,0.0,0.0,0.0,0.0,0.0,0.0,0.0,0.0,0.0,0.0,0.0,0.0,0.0,0.0,0.0,0.0,0.0,0.0,0.0,0.0,0.0,0.0,0.0,0.0,0.0,0.0,0.0,0.0,0.0,0.0,0.0,0.0,0.0,0.0,0.0,0.0,0.0,0.0,0.0,0.0,0.0,0.0,0.0,0.0,0.0,0.0,0.0,0.0,0.0,0.0,0.0,0.0,2.521,2.521,2.521,2.521,2.521,2.521,0.0,0.0,0.0,0.0,0.0,0.0,0.0,0.0,0.0,0.0,0.0,0.0,0.0,0.0,0.0,0.0,0.0,0.0,0.0,0.0,0.0,0.0,0.0,0.0,0.0,0.0,0.0,0.0,0.0,0.0,0.0,0.0,0.0,0.0,0.0,0.0,0.0,0.0,0.0,0.0,0.0,0.0,0.0,0.0,0.0,0.0,0.0,0.0,0.0,0.0,0.0,0.0,0.0,0.0,0.0,0.0,0.0,0.0,0.0,0.0,0.0,0.0,0.0,0.0,0.0,0.0,0.0,0.0,0.0,0.0,0.0,0.0,0.0,0.0,0.0,0.0,0.0,0.0,0.0,0.0,0.0,0.0,0.0,0.0,0.0,0.0,0.0,0.0,0.0,0.0,0.0,0.0,0.0,0.0,0.0,0.0,0.0,0.0,0.0,0.0,0.0,0.0,0.0,0.0,0.0,0.0,0.0,0.0,0.0,2.5249,2.5707,2.5726,2.5249,2.5707,2.5715,0.0,0.0,0.0,0.0,0.0,0.0,0.0,0.0,0.0,0.0,0.0,0.0,0.0,0.0,0.0,0.0,0.0,0.0,0.0,0.0,0.0,0.0,0.0,0.0,0.0,0.0,0.0,0.0,0.0,0.0,0.0,0.0,0.0,0.0,0.0,0.0,0.0,0.0,0.0,0.0,0.0,0.0,0.0,0.0,0.0,0.0,0.0,0.0,0.0,0.0,0.0,0.0,0.0,0.0,0.0,0.0,0.0,0.0,0.0,0.0,0.0,0.0,0.0,0.0,0.0,0.0,0.0,0.0,0.0,0.0,0.0,0.0,0.0,0.0,0.0,0.0,0.0,0.0,0.0,0.0,0.0,0.0,0.0,0.0,0.0,0.0,0.0,0.0,0.0,0.0,0.0,0.0,0.0,0.0,0.0,0.0,0.0,0.0,0.0,0.0,0.0,0.0,0.0,0.0,0.0,0.0,0.0,0.0,0.0,2.6402,0.0,2.6937,2.644,2.6918,2.6842,0.0,0.0,0.0,0.0,0.0,0.0,0.0,0.0,0.0,0.0,0.0,0.0,0.0,0.0,0.0,0.0,0.0,0.0,0.0,0.0,0.0,0.0,0.0,0.0,0.0,0.0,0.0,0.0,0.0,0.0,0.0,0.0,0.0,0.0,0.0,0.0,0.0,0.0,0.0,0.0,0.0,0.0,0.0,0.0,0.0,0.0,0.0,0.0,0.0,0.0,0.0,0.0,0.0,0.0,0.0,0.0,0.0,0.0,0.0,0.0,0.0,0.0,0.0,0.0,0.0,0.0,0.0,0.0,0.0,0.0,0.0,0.0,0.0,0.0,0.0,0.0,0.0,0.0,0.0,0.0,0.0,0.0,0.0,0.0,0.0,0.0,0.0,0.0,0.0,0.0,0.0,0.0,0.0,0.0,0.0,0.0,0.0,0.0,0.0,0.0,0.0,0.0,0.0,0.0,0.0,0.0,0.0,0.0,2.7338,2.8834,2.893,2.8949,2.8911,2.893,2.8548,0.0,0.0,0.0,0.0,0.0,0.0,0.0,0.0,0.0,0.0,0.0,0.0,0.0,0.0,0.0,0.0,0.0,0.0,0.0,0.0,0.0,0.0,0.0,0.0,0.0,0.0,0.0,0.0,0.0,0.0,0.0,0.0,0.0,0.0,0.0,0.0,0.0,0.0,0.0,0.0,0.0,0.0,0.0,0.0,0.0,0.0,0.0,0.0,0.0,0.0,0.0,0.0,0.0,0.0,0.0,0.0,0.0,0.0,0.0,0.0,0.0,0.0,0.0,0.0,0.0,0.0,0.0,0.0,0.0,0.0,0.0,0.0,0.0,0.0,0.0,0.0,0.0,0.0,0.0,0.0,0.0,0.0,0.0,0.0,0.0,0.0,0.0,0.0,0.0,0.0,0.0,0.0,0.0,0.0,0.0,0.0,0.0,0.0,0.0,0.0,0.0,0.0,0.0,0.0,0.0,0.0,0.0,0.0,0.0,3.072,3.1255,3.1221,3.0682,3.1202,3.0591,0.0,0.0,0.0,0.0,0.0,0.0,0.0,0.0,0.0,0.0,0.0,0.0,0.0,0.0,0.0,0.0,0.0,0.0,0.0,0.0,0.0,0.0,0.0,0.0,0.0,0.0,0.0,0.0,0.0,0.0,0.0,0.0,0.0,0.0,0.0,0.0,0.0,0.0,0.0,0.0,0.0,0.0,0.0,0.0,0.0,0.0,0.0,0.0,0.0,0.0,0.0,0.0,0.0,0.0,0.0,0.0,0.0,0.0,0.0,0.0,0.0,0.0,0.0,0.0,0.0,0.0,0.0,0.0,0.0,0.0,0.0,0.0,0.0,0.0,0.0,0.0,0.0,0.0,0.0,0.0,0.0,0.0,0.0,0.0,0.0,0.0,0.0,0.0,0.0,0.0,0.0,0.0,0.0,0.0,0.0,0.0,0.0,0.0,0.0,0.0,0.0,0.0,0.0,0.0,0.0,0.0,0.0,0.0,0.0,3.5209,3.4789,3.4159,3.3337,3.3528,3.273,3.0911,0.0,0.0,0.0,0.0,0.0,0.0,0.0,0.0,0.0,0.0,0.0,0.0,0.0,0.0,0.0,0.0,0.0,0.0,0.0,0.0,0.0,0.0,0.0,0.0,0.0,0.0,0.0,0.0,0.0,0.0,0.0,0.0,0.0,0.0,0.0,0.0,0.0,0.0,0.0,0.0,0.0,0.0,0.0,0.0,0.0,0.0,0.0,0.0,0.0,0.0,0.0,0.0,0.0,0.0,0.0,0.0,0.0,0.0,0.0,0.0,0.0,0.0,0.0,0.0,0.0,0.0,0.0,0.0,0.0,0.0,0.0,0.0,0.0,0.0,0.0,0.0,0.0,0.0,0.0,0.0,0.0,0.0,0.0,0.0,0.0,0.0,0.0,0.0,0.0,0.0,0.0,0.0,0.0,0.0,0.0,0.0,0.0,0.0,0.0,0.0,0.0,0.0,0.0,0.0,0.0,0.0,0.0,0.0,4.159,3.9374,3.775,3.6795,3.5954,3.5057,0.0,0.0,0.0,0.0,0.0,0.0,0.0,0.0,0.0,0.0,0.0,0.0,0.0,0.0,0.0,0.0,0.0,0.0,0.0,0.0,0.0,0.0,0.0,0.0,0.0,0.0,0.0,0.0,0.0,0.0,0.0,0.0,0.0,0.0,0.0,0.0,0.0,0.0,0.0,0.0,0.0,0.0,0.0,0.0,0.0,0.0,0.0,0.0,0.0,0.0,0.0,0.0,0.0,0.0,0.0,0.0,0.0,0.0,0.0,0.0,0.0,0.0,0.0,0.0,0.0,0.0,0.0,0.0,0.0,0.0,0.0,0.0,0.0,0.0,0.0,0.0,0.0,0.0,0.0,0.0,0.0,0.0,0.0,0.0,0.0,0.0,0.0,0.0,0.0,0.0,0.0,0.0,0.0,0.0,0.0,0.0,0.0,0.0,0.0,0.0,0.0,0.0,0.0,0.0,0.0,0.0,0.0,0.0,0.0,4.3291,4.3902,4.2908,4.0291,3.9393,3.798,0.0,0.0,0.0,0.0,0.0,0.0,0.0,0.0,0.0,0.0,0.0,0.0,0.0,0.0,0.0,0.0,0.0,0.0,0.0,0.0,0.0,0.0,0.0,0.0,0.0,0.0,0.0,0.0,0.0,0.0,0.0,0.0,0.0,0.0,0.0,0.0,0.0,0.0,0.0,0.0,0.0,0.0,0.0,0.0,0.0,0.0,0.0,0.0,0.0,0.0,0.0,0.0,0.0,0.0,0.0,0.0,0.0,0.0,0.0,0.0,0.0,0.0,0.0,0.0,0.0,0.0,0.0,0.0,0.0,0.0,0.0,0.0,0.0,0.0,0.0,0.0,0.0,0.0,0.0,0.0,0.0,0.0,0.0,0.0,0.0,0.0,0.0,0.0,0.0,0.0,0.0,0.0,0.0,0.0,0.0,0.0,0.0,0.0,0.0,0.0,0.0,0.0,0.0,0.0,0.0,0.0,0.0,0.0,4.3902,4.6099,4.6729,4.6309,4.4723,4.2163,3.9794,0.0,0.0,0.0,0.0,0.0,0.0,0.0,0.0,0.0,0.0,0.0,0.0,0.0,0.0,0.0,0.0,0.0,0.0,0.0,0.0,0.0,0.0,0.0,0.0,0.0,0.0,0.0,0.0,0.0,0.0,0.0,0.0,0.0,0.0,0.0,0.0,0.0,0.0,0.0,0.0,0.0,0.0,0.0,0.0,0.0,0.0,0.0,0.0,0.0,0.0,0.0,0.0,0.0,0.0,0.0,0.0,0.0,0.0,0.0,0.0,0.0,0.0,0.0,0.0,0.0,0.0,0.0,0.0,0.0,0.0,0.0,0.0,0.0,0.0,0.0,0.0,0.0,0.0,0.0,0.0,0.0,0.0,0.0,0.0,0.0,0.0,0.0,0.0,0.0,0.0,0.0,0.0,0.0,0.0,0.0,0.0,0.0,0.0,0.0,0.0,0.0,0.0,0.0,0.0,0.0,0.0,0.0,0.0,4.5125,4.9098,4.864,4.8602,4.906,4.4456,4.1055,0.0,0.0,0.0,0.0,0.0,0.0,0.0,0.0,0.0,0.0,0.0,0.0,0.0,0.0,0.0,0.0,0.0,0.0,0.0,0.0,0.0,0.0,0.0,0.0,0.0,0.0,0.0,0.0,0.0,0.0,0.0,0.0,0.0,0.0,0.0,0.0,0.0,0.0,0.0,0.0,0.0,0.0,0.0,0.0,0.0,0.0,0.0,0.0,0.0,0.0,0.0,0.0,0.0,0.0,0.0,0.0,0.0,0.0,0.0,0.0,0.0,0.0,0.0,0.0,0.0,0.0,0.0,0.0,0.0,0.0,0.0,0.0,0.0,0.0,0.0,0.0,0.0,0.0,0.0,0.0,0.0,0.0,0.0,0.0,0.0,0.0,0.0,0.0,0.0,0.0,0.0,0.0,0.0,0.0,0.0,0.0,0.0,0.0,0.0,0.0,0.0,0.0,0.0,0.0,0.0,0.0,0.0,0.0,4.7131,4.9958,5.1142,5.12,5.0054,4.6424,4.3367,0.0,0.0,0.0,0.0,0.0,0.0,0.0,0.0,0.0,0.0,0.0,0.0,0.0,0.0,0.0,0.0,0.0,0.0,0.0,0.0,0.0,0.0,0.0,0.0,0.0,0.0,0.0,0.0,0.0,0.0,0.0,0.0,0.0,0.0,0.0,0.0,0.0,0.0,0.0,0.0,0.0,0.0,0.0,0.0,0.0,0.0,0.0,0.0,3.1428,0.0,0.0,0.0,0.0,0.0,0.0,0.0,0.0,0.0,0.0,0.0,0.0,0.0,0.0,0.0,0.0,0.0,0.0,0.0,0.0,0.0,0.0,0.0,0.0,0.0,0.0,0.0,0.0,0.0,0.0,0.0,0.0,0.0,0.0,0.0,0.0,0.0,0.0,0.0,0.0,0.0,0.0,0.0,0.0,0.0,0.0,0.0,0.0,0.0,0.0,0.0,0.0,0.0,0.0,0.0,0.0,0.0,0.0,0.0,4.848,5.1324,5.2297,5.2341,5.141,4.8621,4.5316,0.0,0.0,0.0,0.0,0.0,0.0,0.0,0.0,0.0,0.0,0.0,0.0,0.0,0.0,0.0,0.0,0.0,0.0,0.0,0.0,0.0,0.0,0.0,0.0,0.0,0.0,0.0,0.0,0.0,0.0,0.0,0.0,0.0,0.0,0.0,0.0,0.0,0.0,0.0,0.0,0.0,0.0,0.0,0.0,0.0,0.0,0.0,0.0,0.0,0.0,0.0,0.0,0.0,0.0,0.0,0.0,0.0,0.0,0.0,0.0,0.0,0.0,0.0,0.0,0.0,0.0,0.0,0.0,0.0,0.0,0.0,0.0,0.0,0.0,0.0,0.0,0.0,0.0,0.0,0.0,0.0,0.0,0.0,0.0,0.0,0.0,0.0,0.0,0.0,0.0,0.0,0.0,0.0,0.0,0.0,0.0,0.0,0.0,0.0,0.0,0.0,0.0,0.0,0.0,0.0,0.0,0.0,4.6123,4.9439,5.2507,5.2927,5.2978,5.2761,5.0512,4.694,4.2068,0.0,0.0,0.0,0.0,0.0,0.0,0.0,0.0,0.0,0.0,0.0,0.0,0.0,0.0,0.0,0.0,0.0,0.0,0.0,0.0,0.0,0.0,0.0,0.0,0.0,0.0,0.0,0.0,0.0,0.0,0.0,0.0,0.0,0.0,0.0,0.0,0.0,0.0,2.9865,3.1443,0.0,0.0,0.0,0.0,0.0,0.0,0.0,0.0,3.369,0.0,0.0,0.0,0.0,0.0,0.0,0.0,0.0,0.0,0.0,0.0,0.0,0.0,0.0,0.0,0.0,0.0,0.0,0.0,0.0,0.0,0.0,0.0,0.0,0.0,0.0,0.0,0.0,0.0,0.0,0.0,0.0,0.0,0.0,0.0,0.0,0.0,0.0,0.0,0.0,0.0,0.0,0.0,0.0,0.0,0.0,0.0,0.0,0.0,0.0,0.0,0.0,0.0,0.0,0.0,0.0,4.2593,4.6559,4.9911,5.2551,5.3998,5.4063,5.2749,5.0969,4.798,4.371,0.0,0.0,0.0,0.0,0.0,0.0,0.0,0.0,0.0,0.0,0.0,0.0,0.0,0.0,0.0,0.0,0.0,0.0,0.0,0.0,0.0,0.0,0.0,0.0,0.0,0.0,0.0,0.0,0.0,0.0,0.0,0.0,0.0,0.0,0.0,0.0,0.0,0.0,0.0,3.3183,3.4061,0.0,0.0,0.0,0.0,0.0,0.0,0.0,0.0,3.4686,0.0,0.0,0.0,0.0,0.0,0.0,0.0,0.0,0.0,0.0,0.0,0.0,0.0,0.0,0.0,0.0,0.0,0.0,0.0,0.0,0.0,0.0,0.0,0.0,0.0,0.0,0.0,0.0,0.0,0.0,0.0,0.0,0.0,0.0,0.0,0.0,0.0,0.0,0.0,0.0,0.0,0.0,0.0,0.0,0.0,0.0,0.0,0.0,0.0,0.0,0.0,0.0,0.0,0.0,0.0,4.3061,4.7188,5.0342,5.2418,5.4116,5.423,5.2639,5.1053,4.8243,0.0,0.0,0.0,0.0,0.0,0.0,0.0,0.0,0.0,0.0,0.0,0.0,0.0,0.0,0.0,0.0,0.0,0.0,0.0,0.0,0.0,0.0,0.0,0.0,0.0,0.0,0.0,0.0,0.0,0.0,0.0,0.0,0.0,0.0,0.0,0.0,0.0,0.0,0.0,0.0,3.4569,3.5545,3.603,0.0,0.0,0.0,0.0,0.0,0.0,3.7009,3.656,0.0,0.0,0.0,0.0,0.0,0.0,0.0,0.0,0.0,0.0,0.0,0.0,0.0,0.0,0.0,0.0,0.0,0.0,0.0,0.0,0.0,0.0,0.0,0.0,0.0,0.0,0.0,0.0,0.0,0.0,0.0,0.0,0.0,0.0,0.0,0.0,0.0,0.0,0.0,0.0,0.0,0.0,0.0,0.0,0.0,0.0,0.0,0.0,0.0,0.0,0.0,0.0,0.0,0.0,0.0,4.3454,4.7588,5.0543,5.2216,5.3959,5.4057,5.2475,5.0957,4.8153,0.0,0.0,0.0,0.0,0.0,0.0,0.0,0.0,0.0,0.0,0.0,0.0,0.0,0.0,0.0,0.0,0.0,0.0,0.0,0.0,0.0,0.0,0.0,0.0,0.0,0.0,0.0,0.0,0.0,0.0,0.0,0.0,0.0,0.0,0.0,0.0,0.0,0.0,0.0,0.0,0.0,3.7262,3.8626,3.9136,0.0,0.0,0.0,0.0,3.9351,3.9214,0.0,0.0,0.0,0.0,0.0,0.0,0.0,0.0,0.0,0.0,0.0,0.0,0.0,0.0,0.0,0.0,0.0,0.0,0.0,0.0,0.0,0.0,0.0,0.0,0.0,0.0,0.0,0.0,0.0,0.0,0.0,0.0,0.0,0.0,0.0,0.0,0.0,0.0,0.0,0.0,0.0,0.0,0.0,0.0,0.0,0.0,0.0,0.0,0.0,0.0,0.0,0.0,0.0,0.0,0.0,0.0,4.3344,4.7371,5.0284,5.2015,5.3672,5.3843,5.2351,5.0789,4.7979,0.0,0.0,0.0,0.0,0.0,0.0,0.0,0.0,0.0,0.0,0.0,0.0,0.0,0.0,0.0,0.0,0.0,0.0,0.0,0.0,0.0,0.0,0.0,0.0,0.0,0.0,0.0,0.0,0.0,0.0,0.0,0.0,0.0,0.0,0.0,0.0,0.0,0.0,0.0,0.0,0.0,3.9429,3.9624,4.0971,4.1693,0.0,0.0,4.1947,4.1967,4.1322,0.0,0.0,0.0,0.0,0.0,0.0,0.0,0.0,0.0,0.0,0.0,0.0,0.0,0.0,0.0,0.0,0.0,0.0,0.0,0.0,0.0,0.0,0.0,0.0,0.0,0.0,0.0,0.0,0.0,0.0,0.0,0.0,0.0,0.0,0.0,0.0,0.0,0.0,0.0,0.0,0.0,0.0,0.0,0.0,0.0,0.0,0.0,0.0,0.0,0.0,0.0,0.0,0.0,0.0,0.0,4.0654,4.3849,4.7454,5.0094,5.1757,5.3474,5.3583,5.2083,5.0482,4.7748,0.0,0.0,0.0,0.0,0.0,0.0,0.0,0.0,0.0,0.0,0.0,0.0,0.0,0.0,0.0,0.0,0.0,0.0,0.0,0.0,0.0,0.0,0.0,0.0,0.0,0.0,0.0,0.0,0.0,0.0,0.0,0.0,0.0,0.0,0.0,0.0,0.0,0.0,0.0,0.0,0.0,0.0,4.1869,4.2669,0.0,0.0,0.0,4.3313,4.3801,0.0,0.0,0.0,0.0,0.0,0.0,0.0,0.0,0.0,0.0,0.0,0.0,0.0,0.0,0.0,0.0,0.0,0.0,0.0,0.0,0.0,0.0,0.0,0.0,0.0,0.0,0.0,0.0,0.0,0.0,0.0,0.0,0.0,0.0,0.0,0.0,0.0,0.0,0.0,0.0,0.0,0.0,0.0,0.0,0.0,0.0,0.0,0.0,0.0,0.0,0.0,0.0,0.0,0.0,0.0,0.0,0.0,4.4218,4.7466,4.993,5.1554,5.3267,5.3377,5.1784,5.0247,0.0,0.0,0.0,0.0,0.0,0.0,0.0,0.0,0.0,0.0,0.0,0.0,0.0,0.0,0.0,0.0,0.0,0.0,0.0,0.0,0.0,0.0,0.0,0.0,0.0,0.0,0.0,3.0043,0.0,0.0,0.0,0.0,0.0,0.0,0.0,0.0,0.0,0.0,0.0,0.0,0.0,0.0,4.2064,4.3782,4.4387,4.4914,0.0,0.0,4.4894,4.5539,4.4738,4.3509,0.0,0.0,0.0,0.0,0.0,0.0,0.0,0.0,0.0,0.0,0.0,0.0,0.0,0.0,0.0,0.0,0.0,0.0,0.0,0.0,0.0,0.0,0.0,0.0,0.0,0.0,0.0,0.0,0.0,0.0,0.0,0.0,0.0,0.0,0.0,0.0,0.0,0.0,0.0,0.0,0.0,0.0,0.0,0.0,0.0,0.0,0.0,0.0,0.0,0.0,0.0,0.0,0.0,0.0,0.0,4.4091,4.735,4.9828,5.1502,5.3161,5.3253,5.1663,5.0118,4.736,0.0,0.0,0.0,0.0,0.0,0.0,0.0,0.0,0.0,0.0,0.0,0.0,0.0,0.0,0.0,0.0,0.0,0.0,0.0,0.0,0.0,0.0,0.0,0.0,0.0,0.0,0.0,0.0,0.0,0.0,0.0,0.0,0.0,0.0,0.0,0.0,0.0,0.0,0.0,0.0,0.0,4.2942,4.468,4.63,4.7354,0.0,0.0,4.7354,4.7412,4.6007,4.4582,4.3665,0.0,0.0,0.0,0.0,0.0,0.0,0.0,0.0,0.0,0.0,0.0,0.0,0.0,0.0,0.0,0.0,0.0,0.0,0.0,0.0,0.0,0.0,0.0,0.0,0.0,0.0,0.0,0.0,0.0,0.0,0.0,0.0,0.0,0.0,0.0,0.0,0.0,0.0,0.0,0.0,0.0,0.0,0.0,0.0,0.0,0.0,0.0,0.0,0.0,0.0,0.0,0.0,0.0,4.0859,4.3999,4.7222,4.9672,5.1268,5.2438,5.2456,5.1379,4.9384,4.6861,0.0,0.0,0.0,0.0,0.0,0.0,0.0,0.0,0.0,0.0,0.0,0.0,0.0,0.0,0.0,0.0,0.0,0.0,0.0,0.0,0.0,0.0,0.0,0.0,0.0,0.0,0.0,0.0,3.3475,3.4214,3.4834,0.0,0.0,0.0,0.0,0.0,0.0,0.0,0.0,0.0,0.0,4.4016,4.628,4.7178,0.0,0.0,4.8267,4.7783,4.8271,4.6905,4.5324,4.3938,4.2708,0.0,0.0,0.0,0.0,0.0,0.0,0.0,0.0,0.0,0.0,0.0,0.0,0.0,0.0,0.0,0.0,0.0,0.0,0.0,0.0,0.0,0.0,0.0,0.0,0.0,0.0,0.0,0.0,0.0,0.0,0.0,0.0,0.0,0.0,0.0,0.0,0.0,0.0,0.0,0.0,0.0,0.0,0.0,0.0,0.0,0.0,0.0,0.0,0.0,0.0,0.0,0.0,4.0717,4.3936,4.7138,4.951,5.1138,5.2174,5.2229,5.1176,4.91,4.6836,0.0,0.0,0.0,0.0,0.0,0.0,0.0,0.0,0.0,0.0,0.0,0.0,0.0,0.0,0.0,0.0,0.0,0.0,0.0,0.0,0.0,0.0,0.0,0.0,0.0,0.0,0.0,0.0,3.4662,3.5338,3.5813,0.0,0.0,0.0,0.0,0.0,0.0,0.0,0.0,0.0,0.0,4.493,4.7233,4.778,4.8466,4.9891,4.8896,4.8154,4.8701,4.7412,4.5792,4.4328,0.0,0.0,0.0,0.0,0.0,0.0,0.0,0.0,0.0,0.0,0.0,0.0,0.0,0.0,0.0,0.0,0.0,0.0,0.0,0.0,0.0,0.0,0.0,0.0,0.0,0.0,0.0,0.0,0.0,0.0,2.6258,0.0,0.0,0.0,0.0,0.0,0.0,0.0,0.0,0.0,0.0,0.0,0.0,0.0,0.0,0.0,0.0,0.0,0.0,0.0,0.0,0.0,0.0,4.0547,4.3878,4.6997,4.9418,5.1062,5.2631,5.2687,5.1117,4.9455,4.7424,4.5004,0.0,0.0,0.0,0.0,0.0,0.0,0.0,0.0,0.0,0.0,0.0,0.0,0.0,0.0,0.0,0.0,0.0,0.0,0.0,0.0,0.0,0.0,0.0,0.0,0.0,0.0,3.535,3.6346,3.6609,0.0,0.0,0.0,0.0,0.0,0.0,0.0,0.0,0.0,0.0,4.3851,4.5581,4.726,4.8224,4.9072,4.9965,4.9345,4.8779,4.8798,4.7412,4.5987,0.0,0.0,0.0,0.0,0.0,0.0,0.0,0.0,0.0,0.0,0.0,0.0,0.0,0.0,0.0,0.0,0.0,0.0,0.0,0.0,0.0,0.0,0.0,0.0,0.0,0.0,0.0,2.9789,2.9735,0.0,0.0,0.0,0.0,0.0,0.0,0.0,0.0,0.0,0.0,0.0,3.546,3.5763,0.0,0.0,0.0,0.0,0.0,0.0,0.0,0.0,0.0,0.0,0.0,0.0,4.0425,4.3597,4.6764,4.9211,5.079,5.1974,5.2051,5.0982,4.9436,4.722,4.4284,0.0,0.0,0.0,0.0,0.0,0.0,0.0,0.0,0.0,0.0,0.0,0.0,0.0,0.0,0.0,0.0,0.0,0.0,0.0,0.0,0.0,0.0,0.0,0.0,0.0,3.6594,0.0,0.0,0.0,0.0,0.0,0.0,0.0,0.0,0.0,0.0,0.0,4.1779,4.3773,4.4582,4.562,4.726,4.8244,4.9111,0.0,0.0,0.0,0.0,0.0,0.0,0.0,0.0,0.0,0.0,0.0,0.0,0.0,0.0,4.1615,4.0483,4.0274,4.0277,4.0257,0.0,0.0,0.0,0.0,0.0,0.0,0.0,0.0,0.0,0.0,0.0,0.0,0.0,0.0,3.2234,0.0,3.1709,0.0,0.0,0.0,0.0,0.0,0.0,0.0,0.0,3.5783,3.6834,3.7863,3.815,3.8583,0.0,3.8664,3.7716,0.0,0.0,0.0,0.0,0.0,0.0,0.0,0.0,4.0529,4.3426,4.658,4.8977,5.0552,5.1752,5.1807,5.0725,4.8713,4.6396,4.3778,4.1459,3.9944,0.0,0.0,0.0,0.0,0.0,0.0,0.0,0.0,0.0,0.0,0.0,0.0,0.0,0.0,0.0,0.0,0.0,0.0,0.0,0.0,0.0,0.0,0.0,3.8016,0.0,0.0,0.0,0.0,0.0,0.0,0.0,0.0,0.0,4.1267,4.1913,4.2938,4.4639,4.5196,4.603,4.7688,0.0,0.0,0.0,0.0,0.0,0.0,0.0,4.7627,4.6515,4.63,4.6124,4.5578,4.548,4.546,4.548,0.0,0.0,4.2415,4.2006,4.2006,4.2006,4.2236,4.2451,4.2454,4.2708,4.2903,0.0,0.0,0.0,0.0,0.0,0.0,0.0,0.0,3.4715,3.4715,0.0,3.4697,0.0,0.0,0.0,0.0,0.0,3.5168,0.0,0.0,3.8681,3.9496,3.9604,4.0293,4.069,4.0833,4.0833,4.0795,4.0682,3.7713,0.0,0.0,0.0,0.0,0.0,0.0,4.086,4.334,4.6444,4.8812,5.0356,5.1967,5.2021,5.0417,4.7435,4.5132,4.3646,4.2794,4.1391,3.9268,3.9221,0.0,0.0,0.0,0.0,0.0,0.0,0.0,0.0,0.0,0.0,0.0,0.0,0.0,0.0,0.0,0.0,0.0,0.0,0.0,0.0,3.8626,0.0,0.0,0.0,0.0,0.0,0.0,0.0,0.0,0.0,0.0,4.2114,4.3673,4.4812,4.4851,0.0,0.0,0.0,0.0,4.9445,5.1084,5.0664,5.0141,5.0102,4.9384,4.8818,4.8759,0.0,0.0,4.8759,4.8759,4.8681,4.8779,4.8623,4.7744,4.4504,4.3957,4.3938,4.3938,4.4602,4.509,4.5148,4.5695,4.6222,4.0329,0.0,0.0,0.0,0.0,3.6816,3.6942,3.716,3.7178,3.7178,3.7178,3.716,0.0,0.0,0.0,0.0,0.0,0.0,3.8771,3.9532,4.0564,4.1651,4.2755,4.2955,4.3371,4.3935,4.3373,4.3139,4.3048,4.1089,3.9545,3.8569,0.0,0.0,0.0,0.0,4.205,4.3958,4.7106,4.9271,5.0307,5.1941,5.2058,5.0453,4.7338,4.5516,4.5132,4.3316,4.1797,4.0714,3.9751,0.0,0.0,0.0,0.0,0.0,0.0,0.0,0.0,0.0,0.0,0.0,0.0,0.0,0.0,0.0,0.0,0.0,0.0,0.0,4.0291,4.0711,4.0555,0.0,0.0,0.0,0.0,0.0,0.0,0.0,0.0,0.0,4.3714,4.4311,4.4955,0.0,0.0,4.7163,4.7687,4.8857,4.9829,5.0329,5.0751,0.0,0.0,4.9879,4.9512,4.8915,4.8798,4.8798,4.8798,4.8798,4.8798,4.8818,4.8798,4.8447,4.7627,4.7334,4.7315,4.7354,4.7549,4.7705,4.7725,4.7939,4.8096,4.4497,4.1701,4.0528,4.004,4.0057,4.0057,4.0039,4.0057,4.0057,4.0039,4.0057,4.0057,3.9713,3.9079,3.8608,0.0,0.0,0.0,4.1506,4.1959,4.2774,4.3643,4.453,4.4584,4.482,4.5254,4.482,4.4584,4.4548,4.3607,4.2702,4.1832,0.0,0.0,4.0399,4.1941,4.3482,4.5073,4.7674,4.9567,5.0693,5.1373,5.1271,5.0271,4.7219,4.5621,4.5697,4.3796,4.243,4.1796,4.0704,3.9703,0.0,0.0,0.0,0.0,0.0,0.0,0.0,0.0,0.0,0.0,0.0,3.5477,0.0,0.0,0.0,0.0,3.9814,4.0922,4.1934,4.2049,0.0,0.0,0.0,0.0,0.0,0.0,0.0,4.1609,4.3227,4.4344,4.438,4.5066,4.5783,4.6332,4.7202,4.7908,4.8241,0.0,5.0068,5.0416,5.0972,5.1174,5.0703,5.0611,5.0445,4.993,4.9833,4.9833,4.9833,4.9833,4.9833,4.9833,4.9833,4.9833,4.9833,4.9813,4.956,4.8954,4.9072,4.9423,4.9735,5.0087,5.0438,4.8128,4.724,4.4466,4.3328,4.3262,4.3262,4.3262,4.3262,4.3208,4.3172,4.3172,4.3099,4.2266,4.089,4.089,0.0,4.0999,4.3262,4.4313,4.4421,4.5218,4.5617,4.5671,4.5689,4.5671,4.5689,4.5689,4.5671,4.5707,4.5617,4.5599,4.5526,4.3389,4.2157,4.2103,4.357,4.511,4.6576,4.8261,4.9854,5.1321,5.0524,5.009,5.0071,4.7116,4.5524,4.5547,4.4163,4.3096,4.2516,4.1915,4.0942,3.9575,0.0,0.0,0.0,0.0,0.0,0.0,0.0,0.0,0.0,0.0,0.0,0.0,0.0,0.0,0.0,4.1953,0.0,4.2889,4.2888,0.0,0.0,0.0,4.3003,4.3,4.3054,4.3073,4.3094,0.0,0.0,4.4472,4.595,4.7022,4.7163,4.7981,4.8845,4.9594,4.985,5.0276,5.1026,5.1226,5.133,5.1291,5.1327,5.1284,5.1234,5.1394,5.1297,5.1297,5.1297,5.1375,5.1297,5.1375,5.1336,5.1375,5.1277,5.0906,4.9364,4.9755,5.0555,5.1277,5.2078,5.2839,5.0127,4.8916,4.8209,4.7338,4.6434,4.6416,4.6476,4.6522,4.5906,4.5635,4.5599,4.5001,4.4512,4.415,4.4168,4.4168,4.4222,4.5399,4.6269,4.6884,4.7681,4.8387,4.8949,4.8949,4.8949,4.8949,4.8949,4.8949,4.8912,4.8351,4.8043,4.8025,4.7482,4.6287,4.4566,4.6027,4.7025,4.7428,4.9582,5.1194,5.2136,5.0814,5.009,5.0053,4.7034,4.5428,4.5583,4.4071,4.3008,4.2535,4.2502,4.1845,4.0461,3.983,0.0,0.0,0.0,0.0,0.0,0.0,0.0,0.0,0.0,3.7827,3.9565,0.0,4.1476,0.0,4.3138,4.373,4.373,4.371,0.0,0.0,4.3235,4.2871,4.2908,4.352,4.3923,4.3923,4.4614,4.54,4.6052,4.705,4.7952,4.8587,4.9004,4.9354,4.9614,5.0284,5.0817,5.1074,5.119,5.1228,5.1316,5.1375,5.1401,5.1394,5.1394,5.1394,5.1394,5.1394,5.1394,5.1394,5.1394,5.1394,5.1394,5.1394,5.1277,5.0926,5.1492,5.2136,5.237,5.3093,5.3756,5.1758,5.0986,5.0628,5.008,4.9387,4.8838,4.862,4.8627,4.8236,4.8098,4.8043,4.7246,4.6902,4.6902,4.6902,4.692,4.6975,4.7753,4.8333,4.8786,4.9238,4.9655,5.009,5.009,5.009,5.009,5.009,5.009,5.0071,4.9655,4.9438,4.9438,4.9438,4.8768,4.7518,4.8309,4.8926,4.9311,5.0959,5.2027,5.2426,5.0923,4.9927,4.951,4.6794,4.5225,4.5055,4.3871,4.3173,4.3088,4.2909,4.2507,4.179,4.0841,4.0012,0.0,0.0,0.0,0.0,0.0,0.0,0.0,0.0,0.0,0.0,0.0,4.2985,4.3845,4.4322,4.459,4.459,4.4571,4.4571,4.4631,4.4191,4.3924,4.3963,4.4384,4.469,4.4671,4.5379,4.6088,4.6606,4.7737,4.8677,4.9139,4.9624,4.9971,5.0063,5.0571,5.0937,5.0995,5.1081,5.1191,5.1281,5.1355,5.1401,5.139,5.1394,5.1394,5.1394,5.1394,5.1394,5.1394,5.1394,5.1394,5.1394,5.1394,5.1394,5.155,5.2429,5.319,5.3288,5.3951,5.4654,5.3082,5.2832,5.2136,5.1847,5.1817,5.0628,5.0172,5.02,5.0244,5.018,5.0035,4.9365,4.9075,4.9057,4.9057,4.9057,4.9112,4.989,5.0253,5.0234,5.0343,5.0379,5.0397,5.0397,5.0397,5.0397,5.0397,5.0397,5.0397,5.0397,5.0397,5.0379,5.0397,5.0452,5.0542,5.056,5.0886,5.1593,5.219,5.2498,5.248,5.0923,4.9764,4.9003,4.6613,4.5062,4.4563,4.3689,4.3393,4.3734,4.3243,4.2981,4.3063,4.1964,4.1009,0.0,3.9658,0.0,0.0,0.0,0.0,0.0,0.0,0.0,0.0,4.3271,4.4494,4.522,4.5277,4.5277,4.5277,4.5277,4.5277,4.5277,4.5277,4.5277,4.5277,4.5277,4.5335,4.543,4.6061,4.6579,4.6985,4.8209,4.9111,4.9403,4.9961,5.0406,5.0528,5.0662,5.0805,5.089,5.1017,5.119,5.1269,5.1355,5.1377,5.139,5.139,5.1394,5.1394,5.1394,5.1394,5.1394,5.1394,5.1394,5.1394,5.1394,5.1394,5.1414,5.2761,5.3893,5.4029,5.4771,5.5669,5.394,5.2886,5.2707,5.2297,5.1722,5.1585,5.167,5.1824,5.1174,5.0615,5.0071,4.9927,4.9872,4.9872,4.9854,4.9854,4.9908,5.0687,5.1067,5.1086,5.1737,5.2045,5.2045,5.2045,5.2045,5.2027,5.2045,5.2045,5.2027,5.2027,5.2045,5.2045,5.2027,5.2371,5.2987,0.0,0.0,0.0,5.2752,5.2498,5.2444,5.0923,5.0017,4.98,4.6902,0.0,4.5328,4.398,4.3393,4.3753,4.3781,0.0,0.0,0.0,0.0,0.0,0.0,0.0,0.0,0.0,0.0,0.0,4.2928,4.3367,4.3539,4.4456,4.5125,4.5277,4.5277,4.5277,4.5277,4.5277,4.5277,4.5277,4.5277,4.5277,4.5277,4.5297,4.5526,4.6214,4.6424,4.7054,4.8356,4.893,4.935,4.9924,5.023,5.0352,5.0418,5.0566,5.072,5.0861,5.1037,5.121,5.1292,5.131,5.1355,5.1377,5.1401,5.1386,5.139,5.1394,5.1394,5.1394,5.1394,5.1394,5.1394,5.1394,5.1394,5.1394,5.278,5.399,5.4029,5.5259,5.6411,5.4616,0.0,5.3207,5.2654,0.0,5.1919,5.1907,5.2084,5.1849,5.1527,5.1285,5.1285,5.1285,5.1267,5.1267,5.1267,5.1285,5.1701,5.1882,5.1919,5.2299,5.2498,5.2498,5.2498,5.2498,5.2498,5.2498,5.2498,5.2498,5.2498,5.2697,5.3096,5.3096,5.3476,5.4273,5.4309,5.411,5.3729,5.3295,5.2915,5.248,5.1303,5.0307,4.9492,0.0,0.0,0.0,0.0,0.0,0.0,0.0,0.0,0.0,0.0,0.0,4.3005,4.2731,4.2631,4.2713,4.2754,4.2985,4.3386,4.4169,4.4647,4.4647,4.5048,4.5277,4.5277,4.5277,4.5277,4.5277,4.5277,4.5277,4.5277,4.5277,4.5277,4.5335,4.566,4.6042,4.6519,4.7264,4.8143,4.8965,4.948,4.9824,5.0225,5.0302,5.0325,5.0393,5.0523,5.0683,5.0861,5.1042,5.1186,5.124,5.1273,5.1303,5.1349,5.138,5.1391,5.1386,5.1386,5.139,5.1394,5.1394,5.1394,5.1394,5.1394,5.1394,5.1511,5.2448,5.3502,5.3932,5.5376,5.6606,5.5094,5.49,5.3744,5.3135,5.2814,5.2172,5.1915,5.1907,0.0,0.0,0.0,5.2498,5.2498,5.2498,5.2498,5.2498,5.2498,5.2498,5.2498,5.2498,5.2498,5.2498,5.2516,5.2643,5.2715,5.2715,5.2842,5.2915,5.2933,5.2915,5.3259,5.3856,5.3911,5.4309,5.5051,5.5233,5.4907,5.4128,5.3838,5.3385,5.2697,5.1774,5.0597,4.9166,4.8206,4.6762,4.4794,4.4634,4.4401,4.3956,4.4063,4.4178,4.4367,4.384,4.3679,4.4051,4.3567,4.3354,4.3569,4.3632,4.3978,4.4628,4.5335,4.5602,4.5335,4.5277,4.5277,4.5277,4.5277,4.5277,4.5277,4.5277,4.5277,4.5277,4.5277,4.5335,4.5507,4.608,4.6596,4.7035,4.82,4.9156,4.9328,4.9882,5.0302,5.0302,5.0302,5.0321,5.039,5.0521,5.0683,5.0858,5.0995,5.1108,5.1178,5.124,5.1292,5.1303,5.1336,5.1394,5.1391,5.1396,5.1401,5.139,5.1394,5.1394,5.1394,5.1394,5.1394,5.1394,5.2097,5.2975,5.3873,5.5259,5.6333,5.5387,5.4989,5.4758,5.4011,5.2868,5.2761,5.2434,5.1925,5.215,5.2358,5.2498,5.2498,5.2498,5.2498,5.2498,5.2498,5.2498,5.2498,5.2498,5.2498,5.2498,5.2498,5.2534,5.3222,5.3548,5.3585,5.4218,5.4562,5.4562,5.4544,5.4635,5.4725,5.4744,5.5106,5.583,5.6518,5.6482,5.5667,5.4381,5.3639,5.3512,5.2063,5.0868,4.9927,4.8496,4.7306,4.6412,4.5783,4.546,4.5553,4.5155,4.4981,4.5134,4.4635,4.4748,4.5587,4.5735,4.6121,4.6834,4.7045,4.715,4.7264,4.7398,4.6863,4.5449,4.5277,4.5277,4.5297,4.5335,4.5277,4.5277,4.5277,4.5297,4.5316,4.5297,4.5564,4.6233,4.6481,4.7131,4.843,4.8888,4.9404,4.9958,5.0206,5.0302,5.0302,5.0302,5.0321,5.0386,5.0502,5.0664,5.0844,5.0975,5.1042,5.1101,5.1178,5.1211,5.1292,5.1308,5.1342,5.1394,5.1386,5.1396,5.1401,5.1386,5.1394,5.1394,5.1394,5.1394,5.1433,5.2078,5.2878,5.3737,5.481,5.5728,5.5552,5.537,5.5129,5.4652,5.3993,5.3242,5.2541,5.1943,5.2005,5.2216,5.2423,5.2452,5.2498,5.2498,5.2498,5.2498,5.2498,5.2498,5.2498,5.2534,5.2969,5.3168,5.3241,5.3971,5.4351,5.4381,5.4725,5.4907,5.4907,5.4907,5.5124,5.5486,5.5921,5.6319,5.6645,5.7007,5.7025,5.6627,5.554,5.4544,5.3711,5.2987,5.2009,5.0778,4.9999,4.8858,4.7311,4.6939,4.6458,4.5753,4.5607,4.5614,4.583,4.5749,4.5959,4.6534,4.6788,4.7093,4.7577,4.7732,4.7799,4.7799,4.7799,4.7494,4.6748,4.6653,4.6462,4.6023,4.5965,4.5755,4.5354,4.5277,4.5468,4.5908,4.5946,4.629,4.7092,4.7665,4.8239,4.8984,4.948,4.9882,5.0264,5.0302,5.0302,5.0302,5.0302,5.0321,5.0378,5.0435,5.0545,5.0701,5.0844,5.096,5.0976,5.1076,5.1156,5.1201,5.1239,5.1292,5.1323,5.1343,5.1361,5.1396,5.1401,5.1386,5.1394,5.1394,5.1394,5.1433,5.1648,5.2312,5.3151,5.4322,5.5532,5.5648,5.5653,5.5355,5.5184,5.4919,5.351,5.2612,5.2126,5.1996,5.2005,5.2216,5.2387,5.2452,5.2498,5.2498,5.2498,5.2498,5.2498,5.2498,5.257,5.3349,5.3729,5.3838,5.4677,5.5147,5.5178,5.5323,5.5432,5.5432,5.5432,5.5703,5.6265,5.688,5.7188,5.7188,5.7188,5.7188,5.7152,5.6573,5.5595,5.4273,5.3892,5.3005,5.1683,5.1357,5.0343,4.8405,4.8127,4.7579,4.6458,4.623,4.6286,4.6548,4.6629,4.688,4.7306,4.7521,4.7827,4.8128,4.8285,4.8372,4.8372,4.8372,4.8372,4.8353,4.8372,4.7914,4.6997,4.6806,4.6538,4.608,4.5908,4.6118,4.6729,4.6806,4.7169,4.799,4.8697,4.9194,4.9366,4.9939,5.0283,5.0302,5.0302,5.0302,5.0302,5.0302,5.0321,5.0359,5.0386,5.0459,5.0526,5.0701,5.0844,5.0874,5.0966,5.1063,5.1062,5.119,5.1258,5.1292,5.1296,5.1317,5.1361,5.1396,5.1401,5.139,5.1394,5.1394,5.1414,5.1472,5.1804,5.2956,5.4264,5.5532,5.5607,5.5724,5.5773,5.5573,5.4991,5.356,5.2881,5.274,5.2193,5.192,5.201,5.2216,5.2441,5.2498,5.2498,5.2498,5.2498,5.2498,5.2498,5.2607,5.3331,5.3711,5.3911,5.5214,5.5903,5.5975,5.6573,5.6826,5.6844,5.6899,5.6989,5.7098,5.717,5.7188,5.7188,5.7188,5.7188,5.7188,5.7116,5.6663,5.5758,5.4436,5.3277,5.2408,5.1683,5.085,4.9854,4.9295,4.8901,4.8689,4.7581,4.7095,4.7239,4.6884,4.7081,4.8096,4.8305,4.8844,4.982,5.0026,4.9996,5.0073,4.9977,4.9977,4.9996,5.0015,4.9385,4.8124,4.7704,4.7627,4.7589,4.7474,4.7474,4.7627,4.7685,4.8009,4.8793,4.9041,4.9366,5.013,5.0225,5.0302,5.0302,5.0302,5.0302,5.0302,5.0302,5.0302,5.0321,5.0367,5.039,5.0438,5.0545,5.0682,5.0789,5.0855,5.0961,5.1069,5.1147,5.122,5.1258,5.13,5.1317,5.1323,5.1341,5.1377,5.1401,5.1386,5.1394,5.1394,5.1511,5.1882,5.3444,5.4556,5.5474,5.5507,5.5625,5.5706,5.5494,5.499,5.4456,5.3991,5.3528,5.324,5.2967,5.2641,5.2723,5.2618,5.2423,5.2452,5.2498,5.2498,5.2498,5.277,5.3259,5.4037,5.4653,5.516,5.6156,5.6717,5.6717,5.7043,5.7188,5.7188,5.7188,5.7188,5.7188,5.7188,5.7188,5.7188,5.7188,5.7188,5.7188,5.7188,5.7025,5.6627,5.5631,5.4472,5.3331,5.2878,5.2082,5.0941,5.0514,5.0021,4.9156,4.8575,4.819,4.796,4.7918,4.8174,4.8796,4.9202,4.9599,5.0095,5.0255,5.0302,5.0302,5.0302,5.0302,5.0302,5.0302,4.9977,4.9404,4.885,4.8391,4.7914,4.7799,4.799,4.843,4.8563,4.8888,4.971,4.9805,4.9977,5.0264,5.0302,5.0302,5.0302,5.0302,5.0302,5.0302,5.0302,5.0302,5.0302,5.0325,5.0344,5.0348,5.0438,5.0545,5.0644,5.0771,5.0855,5.0961,5.1069,5.1159,5.122,5.1267,5.13,5.1303,5.1323,5.1361,5.1396,5.1401,5.1386,5.139,5.1472,5.1921,5.3659,5.4283,5.5025,5.5525,5.5507,5.5666,5.5578,5.5326,5.5186,5.4831,5.4349,5.4117,5.3758,5.3396,5.3361,5.3207,5.2846,5.2575,5.256,5.2824,5.2824,5.3259,5.4055,5.4834,5.5486,5.6047,5.6808,5.7188,5.7188,5.7188,5.7188,5.7188,5.7188,5.7188,5.7188,5.7188,5.7188,5.7188,5.7188,5.7188,5.7188,5.7188,5.7188,5.7098,5.6627,5.5595,5.4182,5.382,5.3041,5.1683,5.1411,5.0822,4.9767,4.9604,4.9241,4.8689,4.8919,4.9203,4.9345,4.9741,5.0031,5.0108,5.0231,5.0302,5.0302,5.0302,5.0302,5.0302,5.0302,5.0302,5.0206,4.9748,4.9137,4.864,4.8487,4.8793,4.9347,4.9423,4.9691,5.0206,5.0302,5.0283,5.0302,5.0302,5.0302,5.0302,5.0302,5.0302,5.0302,5.0302,5.0302,5.0302,5.0302,5.0302,5.0302,5.0367,5.0418,5.0546,5.0682,5.0773,5.0871,5.099,5.1081,5.1178,5.123,5.1315,5.13,5.1303,5.1323,5.1386,5.1391,5.1401,5.1429,5.1609,5.2195,5.3698,5.4108,5.4986,5.5525,5.5507,5.5648,5.5861,5.6073,5.5362,5.5061,5.5116,5.442,5.4045,5.3992,5.4112,5.4146,5.3982,5.2936,5.2792,5.3585,5.3639,5.4092,5.4852,5.5577,5.5957,5.6029,5.6808,5.7188,5.7188,5.7188,5.7188,5.7188,5.7188,5.7188,5.7188,5.7188,5.7188,5.7188,5.7188,5.7188,5.7188,5.7188,5.7188,5.7188,5.7152,5.6355,5.4943,5.411,5.3349,5.248,5.1719,5.123,5.1176,5.0635,5.0039,4.945,4.9712,4.9812,4.9664,4.9843,5.0031,5.0108,5.0212,5.0302,5.0302,5.0302,5.0302,5.0302,5.0302,5.0302,5.0302,5.0206,5.0092,5.0034,4.9882,4.9996,5.0111,5.0187,5.0225,5.0283,5.0302,5.0302,5.0302,5.0302,5.0302,5.0302,5.0302,5.0302,5.0302,5.0302,5.0302,5.0302,5.0302,5.0302,5.0302,5.0302,5.0348,5.0481,5.0605,5.0682,5.0769,5.0883,5.103,5.1105,5.119,5.1249,5.1304,5.1308,5.133,5.1375,5.1386,5.1401,5.1585,5.2117,5.2897,5.3795,5.4674,5.5513,5.5525,5.5525,5.5666,5.5764,5.5861,5.5766,5.5808,5.5845,5.5615,5.5241,5.483,5.483,5.4597,5.4164,5.3746,5.3806,5.4273,5.4406,5.4888,5.5558,5.5866,5.6265,5.6772,5.708,5.7188,5.7188,5.7188,5.7188,5.7188,5.7188,5.7188,5.7188,5.7188,5.7188,5.7188,5.7188,5.7188,5.7188,5.7188,5.7188,5.7188,5.7188,5.6681,5.5631,5.4852,5.4092,5.3295,5.248,5.1828,5.1321,5.1111,5.0732,5.0136,5.0044,5.0126,5.0203,5.0014,4.9925,5.0063,5.0174,5.0264,5.0302,5.0302,5.0302,5.0302,5.0302,5.0302,5.0302,5.0302,5.0302,5.0302,5.0302,5.0302,5.0302,5.0302,5.0302,5.0302,5.0302,5.0302,5.0302,5.0302,5.0302,5.0302,5.0302,5.0302,5.0302,5.0302,5.0302,5.0302,5.0302,5.0302,5.0302,5.0302,5.0325,5.0348,5.0502,5.0644,5.07,5.0786,5.0932,5.103,5.1147,5.122,5.1287,5.13,5.1323,5.1388,5.1396,5.1406,5.1664,5.2234,5.3151,5.3815,5.4869,5.5689,5.5525,5.5525,5.5607,5.5666,5.5724,5.5936,5.6141,5.6197,5.629,5.6043,5.5651,5.558,5.533,5.4989,5.4935,5.5091,5.526,5.5248,5.5618,5.6337,5.6391,5.6663,5.7098,5.7188,5.7188,5.7188,5.7188,5.7188,5.7188,5.7188,5.7188,5.7188,5.7188,5.7188,5.7188,5.7188,5.7188,5.7188,5.7188,5.7188,5.7188,5.7188,5.6953,5.6355,5.5649,5.4762,5.3748,5.3168,5.2498,5.181,5.1719,5.1533,5.1005,5.0637,5.0664,5.0941,5.0775,5.0685,5.0824,5.0708,5.0646,5.0684,5.0436,5.0302,5.0302,5.0302,5.0302,5.0302,5.0302,5.0302,5.0302,5.0302,5.0302,5.0302,5.0302,5.0302,5.0302,5.0302,5.0302,5.0302,5.0302,5.0302,5.0302,5.0302,5.0302,5.0302,5.0302,5.0302,5.0302,5.0302,5.0302,5.0302,5.0302,5.0302,5.0325,5.0457,5.0563,5.0625,5.0736,5.0855,5.0981,5.1108,5.12,5.1249,5.1284,5.1335,5.1369,5.1396,5.1546,5.1765,5.2624,5.3639,5.4381,5.5181,5.5923,5.5525,5.5525,5.5525,5.5549,5.5648,5.5706,5.5879,5.6123,5.6197,5.6237,5.6185,5.6329,5.6204,5.6312,5.626,5.6528,5.6471,5.6049,5.6241,5.7043,5.7098,5.7098,5.7188,5.7188,5.7188,5.7188,5.7188,5.7188,5.7188,5.7188,5.7188,5.7188,5.7188,5.7188,5.7188,5.7188,5.7188,5.7188,5.7188,5.7188,5.7188,5.7188,5.7152,5.7043,5.6373,5.5341,5.3911,5.3711,5.3277,5.2607,5.2481,5.243,5.204,5.1583,5.1486,5.186,5.2076,5.2305,5.2365,5.1839,5.1525,5.1505,5.0875,5.055,5.0512,5.0455,5.0397,5.0302,5.0302,5.0302,5.0302,5.0302,5.0302,5.0302,5.0302,5.0302,5.0302,5.0302,5.0302,5.0302,5.0302,5.0302,5.0302,5.0302,5.0302,5.0302,5.0302,5.0302,5.0302,5.0302,5.0302,5.0302,5.0302,5.0302,5.0325,5.0367,5.0478,5.0563,5.0702,5.0825,5.0941,5.1075,5.1147,5.1211,5.1284,5.1335,5.146,5.1533,5.1956,5.2351,5.3288,5.4108,5.483,5.5532,5.6118,5.5525,5.5525,5.5525,5.5507,5.5566,5.5666,5.5782,5.5914,5.6085,5.6179,5.629,5.6346,5.6383,5.6401,5.6455,5.6546,5.6635,5.6543,5.6768,5.7102,5.7188,5.7188,5.7188,5.7188,5.7188,5.7188,5.7188,5.7188,5.7188,5.7188,5.7188,5.7188,5.7188,5.7188,5.7188,5.7188,5.7188,5.7188,5.7188,5.7188,5.7188,5.7188,5.7188,5.717,5.6935,5.6301,5.5305,5.4273,5.3621,5.3331,5.2834,5.2589,5.2679,5.2395,5.2361,5.2566,5.236,5.2332,5.2474,5.2399,5.231,5.2341,5.2136,5.1735,5.1295,5.12,5.0951,5.0474,5.0302,5.0302,5.0302,5.0302,5.0321,5.0302,5.0302,5.0302,5.0302,5.0302,5.0302,5.0302,5.0302,5.0302,5.0302,5.0302,5.0302,5.0302,5.0302,5.0302,5.0302,5.0302,5.0302,5.0302,5.0302,5.0302,5.0302,5.0325,5.0393,5.0502,5.0644,5.0793,5.0913,5.1034,5.1101,5.124,5.1315,5.1471,5.1564,5.1938,5.2455,5.3034,5.3893,5.4596,5.522,5.5806,5.6391,5.5525,5.5525,5.5525,5.5525,5.5525,5.5607,5.5648,5.5706,5.5897,5.6085,5.6197,5.6308,5.6346,5.6401,5.6383,5.6492,5.66,5.6689,5.6847,5.7087,5.7188,5.7188,5.7188,5.7188,5.7188,5.7188,5.7188,5.7188,5.7188,5.7188,5.7188,5.7188,5.7188,5.7188,5.7188,5.7188,5.7188,5.7188,5.7188,5.7188,5.7188,5.7188,5.7188,5.7188,5.7188,5.6935,5.6373,5.5214,5.4291,5.3711,5.3025,5.2779,5.3059,5.3061,5.3199,5.339,5.3338,5.3267,5.3385,5.3259,5.311,5.3219,5.2977,5.2594,5.2136,5.2059,5.1735,5.1353,5.1276,5.1104,5.0875,5.0779,5.0665,5.0321,5.0302,5.0302,5.0302,5.0302,5.0302,5.0302,5.0302,5.0302,5.0302,5.0302,5.0302,5.0302,5.0302,5.0302,5.0302,5.0302,5.0302,5.0321,5.0302,5.0302,5.0302,5.0325,5.0348,5.0462,5.0586,5.0739,5.0883,5.1024,5.1127,5.1385,5.151,5.1986,5.2174,5.2791,5.3352,5.3962,5.4517,5.5123,5.5747,5.6138,5.6586,5.5525,5.5525,5.5525,5.5525,5.5525,5.5525,5.5566,5.5648,5.5706,5.5897,5.6141,5.6197,5.629,5.6383,5.6383,5.6437,5.6546,5.66,5.6742,5.6951,5.7087,5.7188,5.7188,5.7188,5.7188,5.7188,5.7188,5.7188,5.7188,5.7188,5.7188,5.7188,5.7188,5.7188,5.7188,5.7188,5.7188,5.7188,5.7188,5.7188,5.7188,5.7188,5.7188,5.7188,5.7188,5.717,5.6971,5.6102,5.5033,5.3867,5.3108,5.2875,5.3157,5.3524,5.3888,5.4228,5.4538,5.4659,5.4781,5.4313,5.4006,5.4098,5.3588,5.2881,5.2919,5.2881,5.2766,5.2537,5.2537,5.2346,5.1792,5.1658,5.1314,5.0646,5.0455,5.034,5.0302,5.0302,5.0302,5.0302,5.0302,5.0302,5.0302,5.0302,5.034,5.0474,5.0512,5.055,5.055,5.0588,5.0397,5.034,5.0321,5.0302,5.0302,5.0302,5.0348,5.0536,5.0739,5.099,5.1093,5.1247,5.1438,5.1657,5.2094,5.2512,5.2948,5.3565,5.4128,5.4684,5.5216,5.5767,5.6138,5.6469,5.6586,5.5525,5.5525,5.5525,5.5525,5.5525,5.5525,5.5507,5.5566,5.5666,5.5822,5.5993,5.6123,5.6235,5.6401,5.6383,5.6437,5.6492,5.6546,5.66,5.6742,5.6951,5.7087,5.7188,5.7188,5.7188,5.7188,5.7188,5.7188,5.7188,5.7188,5.7188,5.7188,5.7188,5.7188,5.7188,5.7188,5.7188,5.7188,5.7188,5.7188,5.7188,5.7188,5.7188,5.7188,5.7188,5.7188,5.7062,5.5903,5.4792,5.3852,5.3144,5.2944,5.324,5.3582,5.3944,5.4233,5.4524,5.4799,5.4933,5.4857,5.4844,5.5033,5.4715,5.4448,5.3798,5.376,5.3435,5.3015,5.2785,5.2766,5.2537,5.2461,5.2289,5.2059,5.1142,5.0455,5.0417,5.0302,5.0302,5.0302,5.0378,5.0436,5.0455,5.0474,5.0665,5.1104,5.1257,5.1276,5.1257,5.1238,5.1181,5.0531,5.034,5.0321,5.0302,5.0302,5.0386,5.0613,5.0951,5.1452,5.1602,5.1755,5.2003,5.2271,5.3028,5.3557,5.3852,5.4294,5.4839,5.5401,5.5797,5.625,5.6372,5.6606,5.6606,5.5525,5.5525,5.5525,5.5525,5.5525,5.5525,5.5525,5.5507,5.5566,5.5706,5.5804,5.5993,5.6179,5.629,5.6401,5.6383,5.6401,5.6492,5.6546,5.6635,5.6899,5.7054,5.7206,5.7188,5.7188,5.7188,5.7188,5.7188,5.7188,5.7188,5.7188,5.7188,5.7188,5.7188,5.7188,5.7188,5.7188,5.7188,5.7188,5.7188,5.7188,5.7188,5.7188,5.7188,5.7188,5.7188,5.7025,5.6011,5.49,5.3907,5.3153,5.2944,5.3198,5.3582,5.3907,5.4179,5.4524,5.4767,5.4912,5.5038,5.5168,5.5294,5.5358,5.5174,5.4753,5.4639,5.4333,5.4046,5.3894,5.3702,5.3339,5.3053,5.2824,5.2614,5.1921,5.1367,5.1372,5.1429,5.1372,5.1353,5.1353,5.1353,5.1334,5.1334,5.1563,5.1945,5.2098,5.2098,5.2098,5.2079,5.1926,5.1372,5.1142,5.1314,5.1391,5.1391,5.1499,5.1612,5.1857,5.2257,5.2504,5.2647,5.2783,5.3225,5.3963,5.4515,5.4734,5.5048,5.5607,5.6074,5.6397,5.6504,5.6563,5.6606,5.6606,5.5525,5.5525,5.5525,5.5525,5.5525,5.5525,5.5525,5.5525,5.5525,5.5625,5.5706,5.5804,5.5993,5.6197,5.6308,5.6383,5.6383,5.6383,5.6492,5.6653,5.6865,5.7054,5.7138,5.7188,5.7188,5.7188,5.7188,5.7188,5.7188,5.7188,5.7188,5.7188,5.7188,5.7188,5.7188,5.7188,5.7188,5.7188,5.7188,5.7188,5.7188,5.7188,5.7188,5.7188,5.7188,5.7188,5.6989,5.6319,5.5341,5.4085,5.3308,5.312,5.323,5.3582,5.3889,5.4179,5.4524,5.4767,5.4901,5.5028,5.5121,5.5222,5.5339,5.5403,5.5288,5.525,5.5193,5.5078,5.5365,5.4868,5.4333,5.3569,5.3359,5.3359,5.3137,5.308,5.3028,5.2919,5.2785,5.2785,5.2747,5.2785,5.2785,5.2805,5.2785,5.2862,5.2957,5.2957,5.2957,5.2957,5.2766,5.2422,5.2422,5.2594,5.2614,5.2614,5.2767,5.2941,5.3185,5.35,5.3867,5.3974,5.3891,5.4178,5.484,5.5217,5.5408,5.5833,5.6257,5.6394,5.647,5.6538,5.6582,5.6606,5.6606,5.5525,5.5525,5.5525,5.5525,5.5525,5.5525,5.5525,5.5525,5.5525,5.5566,5.5666,5.5706,5.5897,5.6215,5.6253,5.629,5.6401,5.6401,5.6492,5.66,5.6742,5.6899,5.7036,5.7138,5.7188,5.7188,5.7188,5.7188,5.7188,5.7243,5.7206,5.7243,5.7387,5.7224,5.7297,5.7406,5.7206,5.7206,5.7224,5.7243,5.7188,5.7188,5.7188,5.7188,5.7188,5.7188,5.7043,5.641,5.5897,5.5414,5.45,5.3723,5.3497,5.3619,5.3944,5.4214,5.4524,5.4767,5.492,5.5028,5.5121,5.5203,5.5313,5.5403,5.5403,5.5403,5.5403,5.5403,5.5384,5.5269,5.504,5.4925,5.4677,5.46,5.4632,5.469,5.46,5.3664,5.3053,5.2919,5.2938,5.2824,5.2862,5.2996,5.3206,5.3645,5.3817,5.3817,5.3817,5.3817,5.3645,5.3397,5.3339,5.3435,5.3479,5.3522,5.3778,5.3985,5.4283,5.4552,5.4915,5.5035,5.4855,5.5112,5.5658,5.589,5.5954,5.6118,5.6445,5.6478,5.6517,5.6626,5.6714,5.668,5.6996,5.5525,5.5525,5.5525,5.5525,5.5525,5.5525,5.5525,5.5525,5.5525,5.5566,5.5607,5.5666,5.5839,5.5954,5.6141,5.6253,5.629,5.6401,5.6455,5.6546,5.6689,5.6847,5.6951,5.7087,5.7188,5.7188,5.7188,5.7188,5.7261,5.7569,5.7804,5.7822,5.8094,5.842,5.8311,5.8275,5.8148,5.784,5.7768,5.7623,5.7261,5.7188,5.7188,5.7188,5.7188,5.7188,5.7134,5.6826,5.6472,5.6098,5.5577,5.4781,5.4041,5.3921,5.3981,5.4268,5.4543,5.4755,5.486,5.5,5.5121,5.5149,5.5313,5.5358,5.5403,5.5403,5.5403,5.5403,5.5403,5.5403,5.5403,5.5384,5.5403,5.5403,5.5403,5.5403,5.525,5.4562,5.4027,5.4027,5.4142,5.4104,5.4027,5.3779,5.3989,5.4581,5.4639,5.4658,5.4715,5.4696,5.4581,5.4409,5.4237,5.4199,5.4224,5.4379,5.4674,5.4938,5.5226,5.5439,5.5705,5.5728,5.5683,5.593,5.6115,5.626,5.6336,5.648,5.6488,5.6503,5.6582,5.6757,5.7002,5.7265,5.7734,5.5525,5.5525,5.5525,5.5525,5.5525,5.5525,5.5525,5.5525,5.5525,5.5525,5.5525,5.5607,5.5666,5.5782,5.6028,5.6197,5.6235,5.6346,5.6401,5.6437,5.6653,5.6742,5.6847,5.7054,5.7138,5.7188,5.7188,5.7224,5.7587,5.8021,5.8347,5.8619,5.918,5.9325,5.9488,5.9542,5.9162,5.8655,5.8365,5.8076,5.7514,5.7333,5.7188,5.7188,5.7188,5.7188,5.7188,5.713,5.6962,5.6455,5.6565,5.6077,5.5313,5.4444,5.4128,5.4446,5.4608,5.4755,5.4848,5.499,5.5113,5.5094,5.526,5.5377,5.5403,5.5403,5.5403,5.5403,5.5403,5.5403,5.5403,5.5403,5.5403,5.5403,5.5403,5.5403,5.5403,5.5403,5.5212,5.5212,5.4963,5.4868,5.5002,5.4944,5.5231,5.5403,5.5403,5.5403,5.5403,5.5365,5.5135,5.5059,5.4849,5.4759,5.4784,5.4867,5.5176,5.5441,5.5821,5.5998,5.6165,5.6097,5.6033,5.6222,5.6388,5.6465,5.6483,5.6492,5.65,5.6515,5.6803,5.7141,5.7504,5.7865,5.8475,5.5525,5.5525,5.5525,5.5525,5.5525,5.5525,5.5525,5.5525,5.5525,5.5525,5.5525,5.5507,5.5607,5.5706,5.5861,5.6106,5.629,5.6383,5.6383,5.6455,5.66,5.6689,5.6847,5.7003,5.7105,5.7188,5.7279,5.7587,5.8021,5.8365,5.8927,5.9343,5.9669,5.976,5.9814,5.9633,5.9742,5.9398,5.8963,5.851,5.8039,5.7514,5.7188,5.7188,5.7188,5.7188,5.7239,5.7307,5.7431,5.7489,5.7116,5.6965,5.6692,5.5752,5.5096,5.4747,5.4886,5.5108,5.5132,5.5083,5.5095,5.5094,5.5347,5.5446,5.5472,5.5441,5.5498,5.5403,5.5403,5.5403,5.5403,5.5403,5.5403,5.5403,5.5403,5.5403,5.5403,5.5403,5.5403,5.5403,5.5403,5.5403,5.5403,5.5403,5.5403,5.5403,5.5403,5.5403,5.5403,5.5403,5.5326,5.5307,5.5307,5.5275,5.5287,5.5374,5.5528,5.5673,5.5935,5.6052,5.6199,5.6246,5.6314,5.6386,5.6417,5.6446,5.6455,5.6483,5.6628,5.6742,5.7154,5.7603,5.8181,5.8724,5.9319,5.5525,5.5525,5.5525,5.5525,5.5525,5.5525,5.5525,5.5525,5.5525,5.5525,5.5525,5.5525,5.5507,5.5607,5.5706,5.5993,5.6235,5.6383,5.6383,5.6437,5.6546,5.6689,5.6794,5.6951,5.7054,5.7264,5.7605,5.7985,5.8474,5.9343,5.976,6.0212,6.0611,6.0846,6.0864,6.0919,6.0593,6.0267,5.9797,5.9164,5.842,5.7623,5.7261,5.7188,5.7188,5.7239,5.7289,5.7356,5.7553,5.7812,5.7729,5.7629,5.7463,5.7136,5.6493,5.5973,5.5932,5.6078,5.6128,5.625,5.6358,5.6426,5.6406,5.6545,5.6504,5.6358,5.5899,5.5536,5.5403,5.5403,5.5403,5.5403,5.5403,5.5403,5.5403,5.5403,5.5403,5.5403,5.5403,5.5403,5.5403,5.5403,5.5403,5.5403,5.5403,5.5403,5.5403,5.5403,5.5403,5.5403,5.5403,5.5384,5.5409,5.5561,5.5614,5.581,5.6094,5.6232,5.6336,5.6451,5.6451,5.6596,5.6477,5.6386,5.6407,5.6729,5.6474,5.6522,5.6745,5.7045,5.7544,5.813,5.8922,5.9617,6.0154,5.5525,5.5525,5.5525,5.5525,5.5525,5.5525,5.5525,5.5525,5.5525,5.5525,5.5525,5.5525,5.5525,5.5566,5.5724,5.5936,5.6197,5.6346,5.6383,5.6455,5.6492,5.6653,5.6794,5.6917,5.7162,5.7695,5.8293,5.8637,5.8981,5.9977,6.0738,6.1118,6.1734,6.2005,6.1897,6.1752,6.1534,6.1227,6.0775,5.9943,5.8655,5.7804,5.7333,5.7206,5.7206,5.7289,5.7406,5.7504,5.7745,5.8024,5.8183,5.8238,5.8045,5.824,5.8173,5.7691,5.747,5.7378,5.7346,5.7332,5.7222,5.7301,5.7549,5.7709,5.7668,5.7084,5.6549,5.5861,5.5689,5.5575,5.546,5.5403,5.5403,5.5403,5.5403,5.5403,5.5403,5.5403,5.5403,5.5403,5.5403,5.546,5.5517,5.5403,5.5403,5.5403,5.5403,5.5403,5.5403,5.5403,5.5384,5.539,5.5479,5.5691,5.5922,5.6207,5.6638,5.7134,5.7234,5.7349,5.7197,5.7088,5.7021,5.7114,5.7233,5.7449,5.703,5.6834,5.729,5.7708,5.807,5.8669,5.9541,6.0255,6.0856,5.5525,5.5525,5.5525,5.5525,5.5525,5.5525,5.5525,5.5525,5.5525,5.5525,5.5525,5.5525,5.5525,5.5566,5.5764,5.5993,5.6179,5.6346,5.6383,5.6401,5.6437,5.66,5.6742,5.6794,5.7418,5.806,5.8981,5.9416,5.9705,6.0448,6.1208,6.1734,6.186,6.2023,6.2023,6.2023,6.1969,6.1752,6.1136,6.0033,5.8782,5.8329,5.784,5.7492,5.7307,5.7388,5.7504,5.7745,5.8024,5.8275,5.8511,5.8766,5.9008,5.9233,5.9359,5.8918,5.8259,5.7422,5.7573,5.7718,5.778,5.7919,5.7863,5.7768,5.7889,5.7905,5.739,5.6549,5.6473,5.6262,5.5842,5.5556,5.546,5.5594,5.5785,5.5689,5.5632,5.6091,5.6014,5.5919,5.6091,5.5842,5.5708,5.5536,5.5403,5.5403,5.5422,5.5498,5.5651,5.5861,5.5944,5.6066,5.6223,5.6456,5.6665,5.6907,5.7254,5.7899,5.8017,5.8115,5.7968,5.7865,5.8234,5.8328,5.8332,5.8247,5.8023,5.7983,5.8139,5.8507,5.9038,5.9599,6.0191,6.086,6.1427,5.5525,5.5525,5.5525,5.5525,5.5525,5.5525,5.5525,5.5525,5.5525,5.5525,5.5525,5.5525,5.5525,5.5584,5.5764,5.5918,5.6049,5.6273,5.6401,5.6383,5.6437,5.6564,5.6742,5.6847,5.7381,5.8422,5.9198,5.9887,6.0339,6.1027,6.1734,6.1933,6.2023,6.2023,6.2023,6.2023,6.2023,6.177,6.1227,6.0502,5.9724,5.8927,5.829,5.7978,5.7642,5.7607,5.7745,5.795,5.8268,5.8511,5.8762,5.8964,5.9196,5.9383,5.9562,5.9521,5.9181,5.8881,5.8862,5.8767,5.8786,5.8916,5.8919,5.8959,5.871,5.8555,5.8249,5.7428,5.7332,5.7103,5.6855,5.6836,5.6816,5.6778,5.6568,5.6625,5.6645,5.6816,5.6988,5.6874,5.674,5.6549,5.6282,5.5938,5.5957,5.6148,5.6262,5.6396,5.6728,5.7117,5.7117,5.7066,5.7254,5.745,5.7657,5.7911,5.8058,5.8506,5.8552,5.8648,5.8648,5.8733,5.9108,5.9055,5.8768,5.8753,5.8909,5.8899,5.8841,5.9404,6.0091,6.0457,6.0783,6.1133,6.1598,5.5525,5.5525,5.5525,5.5525,5.5525,5.5525,5.5525,5.5525,5.5525,5.5525,5.5525,5.5525,5.5525,5.5566,5.5706,5.5861,5.5901,5.6217,5.6346,5.6401,5.6437,5.6546,5.6689,5.6865,5.7438,5.8621,5.9307,6.0158,6.1064,6.1643,6.1951,6.2023,6.2023,6.2023,6.2023,6.2023,6.2023,6.1951,6.1498,6.1045,6.0557,5.9685,5.9081,5.8601,5.819,5.7946,5.8061,5.8268,5.8486,5.8721,5.8942,5.91,5.9234,5.9474,5.9581,5.9631,5.954,5.9677,5.9658,5.9709,5.9963,6.0057,6.014,5.9798,5.954,5.9415,5.9071,5.8268,5.8192,5.8077,5.7925,5.781,5.7676,5.7619,5.7676,5.7829,5.7905,5.7791,5.7638,5.7428,5.739,5.7562,5.7179,5.6587,5.653,5.6836,5.7065,5.7294,5.7634,5.8042,5.7985,5.7838,5.7905,5.8173,5.8665,5.8874,5.9052,5.9211,5.9274,5.9424,5.9632,5.9724,5.9912,5.9685,5.939,5.9785,6.0234,5.9854,5.9561,6.0261,6.0863,6.1022,6.1316,6.1588,6.1715,5.5525,5.5525,5.5525,5.5525,5.5525,5.5525,5.5525,5.5525,5.5525,5.5525,5.5525,5.5525,5.5525,5.5566,5.5666,5.5804,5.5918,5.6123,5.629,5.6401,5.6383,5.6492,5.6635,5.6974,5.7583,5.895,5.9508,6.0448,6.1534,6.1806,6.2005,6.2023,6.2023,6.2023,6.2023,6.2023,6.2023,6.2005,6.1806,6.1462,6.1117,6.0588,6.0111,5.9169,5.8992,5.886,5.8349,5.8529,5.8721,5.8964,5.91,5.9215,5.9309,5.9491,5.9597,5.9631,5.9786,5.9885,5.9904,5.9918,5.9963,6.0087,6.0217,6.0304,6.0102,6.0217,5.9835,5.9147,5.9052,5.8746,5.8326,5.7944,5.8307,5.8402,5.8555,5.8536,5.8517,5.8364,5.8211,5.7982,5.8096,5.8421,5.8498,5.7982,5.7542,5.781,5.8162,5.8418,5.8355,5.8592,5.8544,5.8462,5.846,5.8837,5.9572,5.9835,5.9995,6.0255,6.042,6.0667,6.0934,6.0948,6.0617,6.0767,6.0628,6.1089,6.1296,6.0721,6.0536,6.1168,6.1537,6.1451,6.1452,6.1632,6.1696,5.5525,5.5525,5.5525,5.5525,5.5525,5.5525,5.5525,5.5525,5.5525,5.5525,5.5525,5.5525,5.5525,5.5566,5.5666,5.5764,5.5918,5.6106,5.6235,5.6346,5.6383,5.6492,5.6582,5.6867,5.7421,5.859,5.9256,6.0104,6.1136,6.1752,6.1987,6.2023,6.2023,6.2023,6.2023,6.2023,6.2023,6.2023,6.2023,6.1788,6.1732,6.1238,6.0934,6.0658,5.9522,5.9438,5.9258,5.8985,5.9038,5.9081,5.9196,5.9272,5.9309,5.9491,5.9562,5.9616,5.9786,5.9885,5.9904,5.9918,5.9982,6.0087,6.0285,6.0389,6.0389,6.0389,6.0293,5.9988,5.9854,5.951,5.9529,5.9434,5.9548,5.9453,5.9357,5.9281,5.9205,5.909,5.909,5.8994,5.9262,5.9606,5.9587,5.9472,5.9052,5.8784,5.9155,5.9439,5.9345,5.9344,5.935,5.9425,5.9473,5.9669,6.0377,6.0696,6.0918,6.1143,6.1386,6.1386,6.14,6.1381,6.1161,6.1428,6.1515,6.1479,6.1413,6.1267,6.1315,6.1519,6.1603,6.1582,6.1621,6.171,6.1832,5.5525,5.5525,5.5525,5.5525,5.5525,5.5525,5.5525,5.5525,5.5525,5.5525,5.5525,5.5525,5.5525,5.5507,5.5625,5.5764,5.5879,5.6049,5.6235,5.6346,5.6383,5.6437,5.6582,5.6849,5.7313,5.8211,5.9112,6.0068,6.0919,6.1643,6.1933,6.2023,6.2023,6.2023,6.2023,6.2023,6.2023,6.206,6.206,6.215,6.2164,6.1956,6.1642,6.1666,6.0868,6.0302,6.005,5.9654,5.9362,5.9309,5.9272,5.929,5.9364,5.9455,5.9562,5.9685,5.9786,5.9904,5.9885,5.995,6.0013,6.0118,6.0285,6.0389,6.0389,6.0389,6.0332,6.0351,6.0332,6.0389,6.0389,6.0198,6.0122,5.9969,5.9988,5.995,5.9988,5.9931,6.0026,6.0064,6.0255,6.0179,6.0149,6.0015,5.989,5.9584,5.981,6.0099,6.02,6.0234,6.0448,6.0536,6.0655,6.0882,6.1181,6.1171,6.1143,6.1216,6.1386,6.1386,6.14,6.14,6.1428,6.1479,6.1515,6.1537,6.151,6.1412,6.1451,6.1568,6.1651,6.1726,6.1841,6.193,6.2184,5.5525,5.5525,5.5525,5.5525,5.5525,5.5525,5.5525,5.5525,5.5525,5.5525,5.5525,5.5525,5.5525,5.5507,5.5507,5.5666,5.5861,5.5918,5.6088,5.6328,5.6383,5.6383,5.6474,5.6725,5.71,5.807,5.9041,5.9942,6.072,6.1607,6.1933,6.2023,6.2078,6.2078,6.2023,6.2023,6.206,6.215,6.2203,6.2344,6.2515,6.2576,6.2468,6.2299,6.2109,6.1489,6.0684,6.028,5.9871,5.9366,5.9309,5.929,5.9327,5.9491,5.9597,5.9616,5.9786,5.9885,5.9937,6.0026,6.0068,6.0118,6.0285,6.0389,6.0389,6.0389,6.0389,6.0389,6.0389,6.0389,6.0389,6.0389,6.0389,6.0389,6.0389,6.0389,6.0389,6.0389,6.0389,6.0389,6.0389,6.0398,6.0398,6.0406,6.0441,6.0411,6.052,6.0635,6.0757,6.0872,6.096,6.1022,6.1115,6.1203,6.1287,6.1352,6.1366,6.14,6.14,6.14,6.1414,6.1408,6.1434,6.1472,6.1507,6.1528,6.1568,6.1568,6.1714,6.1868,6.1834,6.1901,6.2022,6.2325,6.2755,5.5525,5.5525,5.5525,5.5525,5.5525,5.5525,5.5525,5.5525,5.5525,5.5525,5.5525,5.5525,5.5525,5.5525,5.5507,5.5666,5.5861,5.5918,5.6088,5.6383,5.6383,5.6383,5.6492,5.6635,5.6921,5.7549,5.8608,5.9653,5.9995,6.1317,6.1987,6.2114,6.2222,6.2222,6.215,6.215,6.2203,6.231,6.2397,6.2552,6.2755,6.3032,6.3159,6.3074,6.2867,6.2238,6.1218,6.0827,6.0191,5.944,5.929,5.929,5.9327,5.9472,5.9597,5.965,5.9786,5.9904,5.9918,5.9994,6.0099,6.0178,6.0285,6.0389,6.0389,6.0389,6.0389,6.0389,6.0389,6.0389,6.0389,6.0389,6.0389,6.0389,6.0389,6.0389,6.0389,6.0389,6.0389,6.0389,6.0389,6.0444,6.0472,6.0578,6.0629,6.0699,6.0748,6.0785,6.0877,6.0981,6.108,6.1115,6.12,6.1287,6.1352,6.1386,6.14,6.14,6.14,6.14,6.1414,6.1421,6.1447,6.1491,6.1507,6.1519,6.1598,6.1714,6.2024,6.2185,6.2441,6.2551,6.2686,6.3164,6.3731,5.5525,5.5525,5.5525,5.5525,5.5525,5.5525,5.5525,5.5525,5.5525,5.5525,5.5525,5.5525,5.5525,5.5525,5.5507,5.5666,5.5861,5.5918,5.6144,5.6437,5.6492,5.6492,5.66,5.6653,5.683,5.7349,5.8446,5.958,5.9865,6.1317,6.2059,6.2362,6.2449,6.2552,6.25,6.25,6.2449,6.2603,6.2755,6.2904,6.3099,6.3336,6.3602,6.3637,6.3397,6.2791,6.1857,6.1129,6.0454,5.9684,5.929,5.929,5.9364,5.9455,5.9581,5.965,5.9786,5.9885,5.9918,6.0026,6.0099,6.0099,6.0285,6.0389,6.0389,6.0389,6.0389,6.0389,6.0389,6.0389,6.0389,6.0389,6.0389,6.0389,6.0389,6.0389,6.0389,6.0389,6.0417,6.0417,6.0444,6.0499,6.0578,6.066,6.0734,6.0843,6.0908,6.0959,6.0983,6.1079,6.1171,6.122,6.1268,6.1337,6.1386,6.1386,6.14,6.14,6.14,6.14,6.1414,6.1421,6.1467,6.1503,6.1537,6.1588,6.1685,6.1859,6.2352,6.298,6.3566,6.3598,6.3496,6.4004,6.4687,5.5472,5.5507,5.5525,5.5525,5.5525,5.5525,5.5525,5.5525,5.5525,5.5525,5.5525,5.5525,5.5525,5.5507,5.5525,5.5666,5.5936,5.5975,5.6199,5.6492,5.6582,5.6689,5.6794,5.6899,5.7003,5.7578,5.8513,5.9502,5.9914,6.1561,6.2464,6.2603,6.2805,6.2953,6.3002,6.2935,6.2886,6.3002,6.3147,6.3307,6.3492,6.3691,6.3848,6.3902,6.384,6.3097,6.2255,6.1562,6.068,5.991,5.929,5.929,5.9383,5.9491,5.9581,5.9685,5.982,5.9853,5.9918,6.0045,6.0087,6.0129,6.0285,6.0342,6.0389,6.0389,6.0389,6.0389,6.0389,6.0389,6.0389,6.0389,6.0389,6.0389,6.0389,6.0389,6.0389,6.0417,6.0417,6.0444,6.0525,6.0585,6.069,6.0785,6.0894,6.0976,6.1058,6.1137,6.1171,6.1186,6.1275,6.1287,6.1337,6.1386,6.14,6.14,6.14,6.14,6.14,6.14,6.1428,6.148,6.1479,6.1515,6.1558,6.1705,6.2015,6.2403,6.2855,6.354,6.4417,6.452,6.4394,6.5038,6.5643,5.4998,5.5507,5.5525,5.5525,5.5525,5.5525,5.5525,5.5525,5.5525,5.5525,5.5525,5.5525,5.5566,5.5666,5.5648,5.5822,5.6049,5.6235,5.6383,5.66,5.6776,5.6899,5.7003,5.7105,5.7206,5.7583,5.8373,5.9434,6.0413,6.1917,6.2886,6.3051,6.3194,6.3447,6.3492,6.3492,6.3447,6.3447,6.3557,6.3647,6.378,6.391,6.4019,6.4102,6.4184,6.3306,6.2238,6.1825,6.0886,5.9647,5.9328,5.929,5.929,5.9491,5.9631,5.982,5.9885,5.9904,5.9937,6.0026,6.0099,6.0129,6.0285,6.0389,6.0389,6.0389,6.0389,6.0389,6.0389,6.0389,6.0389,6.0389,6.0389,6.0389,6.0389,6.0417,6.0417,6.0444,6.0472,6.0559,6.0591,6.0714,6.0834,6.0941,6.1041,6.1138,6.1213,6.1281,6.131,6.1306,6.1322,6.1352,6.1352,6.14,6.14,6.14,6.14,6.14,6.1516,6.1633,6.1758,6.1765,6.1589,6.1701,6.2036,6.2299,6.255,6.3004,6.3584,6.4424,6.5223,6.5267,6.5429,6.5917,6.6288,5.4156,5.4612,5.4928,5.5209,5.549,5.5525,5.5525,5.5525,5.5525,5.5525,5.5507,5.5566,5.5607,5.5706,5.5839,5.6067,5.629,5.6383,5.6582,5.6899,5.6984,5.7188,5.7289,5.7388,5.7553,5.7875,5.847,5.9493,6.0717,6.2271,6.3447,6.3447,6.3628,6.3761,6.3867,6.3867,6.391,6.3867,6.391,6.391,6.3977,6.4061,6.4162,6.4203,6.4284,6.3327,6.2069,6.1825,6.0886,5.9591,5.9309,5.929,5.9327,5.9491,5.9666,5.9853,5.9904,5.9904,5.9918,5.9975,6.0038,6.0129,6.0266,6.037,6.0389,6.0389,6.0389,6.0389,6.0389,6.0389,6.0389,6.0389,6.0389,6.0389,6.0417,6.0436,6.0444,6.0499,6.0585,6.0666,6.0766,6.0877,6.0982,6.1079,6.1171,6.1227,6.1281,6.1345,6.1356,6.1337,6.1371,6.1386,6.1386,6.14,6.1439,6.1594,6.175,6.1886,6.208,6.2157,6.2205,6.2497,6.271,6.2725,6.2718,6.302,6.3358,6.3862,6.4469,6.525,6.5828,6.599,6.6092,6.6327,6.6619,5.3138,5.3313,5.3998,5.4753,5.5367,5.5455,5.5525,5.5525,5.5507,5.5507,5.5566,5.5666,5.5782,5.5879,5.6067,5.629,5.6492,5.6635,5.6899,5.7257,5.7338,5.7486,5.7697,5.7857,5.7914,5.8253,5.8823,5.9559,6.1032,6.2487,6.3519,6.3805,6.3891,6.4019,6.4079,6.4121,6.4121,6.4162,6.4121,6.4121,6.4143,6.4244,6.4284,6.4284,6.4078,6.3552,6.2275,6.1524,6.1036,5.991,5.929,5.929,5.9383,5.9491,5.9666,5.982,5.9904,5.9904,5.9918,5.9994,6.0038,6.0129,6.0227,6.0323,6.0389,6.0389,6.0389,6.0389,6.0389,6.0389,6.0389,6.0389,6.0389,6.0417,6.0444,6.0472,6.0552,6.0635,6.0719,6.0834,6.092,6.1022,6.1116,6.1223,6.1239,6.1291,6.1341,6.1386,6.1444,6.1425,6.1502,6.1516,6.1439,6.1516,6.1788,6.1963,6.2235,6.241,6.2682,6.2929,6.3132,6.3541,6.3998,6.372,6.337,6.3867,6.4294,6.4689,6.5094,6.5705,6.6224,6.6619,6.6795,6.6756,6.6776,5.2646,5.326,5.3998,5.4437,5.4665,5.5244,5.5549,5.5666,5.5666,5.5666,5.5666,5.5804,5.5975,5.6217,5.6328,5.6546,5.6847,5.6984,5.7206,5.7455,5.7649,5.7792,5.7978,5.8205,5.8275,5.8418,5.8894,5.9702,6.1026,6.2398,6.3439,6.3944,6.4027,6.4091,6.4244,6.4244,6.4244,6.4303,6.4263,6.4244,6.4244,6.4244,6.4284,6.4284,6.4134,6.3402,6.2369,6.1731,6.0792,5.9647,5.9365,5.9346,5.9457,5.9526,5.965,5.9791,5.9872,5.9904,5.9918,5.9963,6.0007,6.0118,6.0207,6.0313,6.0361,6.0389,6.0389,6.0389,6.0389,6.0389,6.0389,6.0417,6.0398,6.0425,6.048,6.0578,6.0655,6.0762,6.0899,6.0982,6.108,6.1154,6.1259,6.1306,6.1322,6.1356,6.1371,6.1439,6.1555,6.1614,6.1847,6.1827,6.1516,6.1614,6.206,6.2507,6.2857,6.3265,6.3595,6.3837,6.4059,6.4383,6.4683,6.4256,6.4043,6.4636,6.5063,6.5196,6.5647,6.6173,6.6419,6.6737,6.6795,6.6776,6.6795,5.1768,5.226,5.298,5.3563,5.4042,5.4781,5.5155,5.538,5.5794,5.5993,5.5993,5.6088,5.6273,5.6546,5.6653,5.6899,5.7257,5.7388,5.7601,5.781,5.7932,5.8133,5.8312,5.8468,5.8572,5.8735,5.9328,6.0136,6.102,6.189,6.2797,6.3528,6.3777,6.3909,6.4134,6.4265,6.4228,6.4303,6.4247,6.4265,6.4265,6.4284,6.4284,6.4284,6.404,6.327,6.2407,6.1712,6.0773,5.9797,5.9328,5.9383,5.9474,5.9545,5.9669,5.9791,5.9857,5.9904,5.9918,5.9931,5.9994,6.0087,6.0159,6.0227,6.0389,6.0389,6.0389,6.0389,6.0389,6.0389,6.0417,6.0417,6.0425,6.0453,6.0585,6.0685,6.0808,6.096,6.106,6.1152,6.1223,6.1259,6.1322,6.1356,6.1391,6.1527,6.1555,6.1983,6.2022,6.2157,6.2293,6.2391,6.2274,6.2449,6.3051,6.3401,6.3634,6.4061,6.4527,6.4881,6.5174,6.5275,6.5299,6.5124,6.5163,6.5572,6.5901,6.5898,6.6083,6.6517,6.6678,6.6795,6.6795,6.6795,6.6795,5.0926,5.0996,5.1733,5.2511,5.3326,5.4158,5.4606,5.4841,5.5829,5.6277,5.6331,5.6456,5.6582,5.6794,5.7054,5.7406,5.7649,5.7774,5.7997,5.8179,5.8286,5.8418,5.8572,5.8698,5.8821,5.911,5.9624,6.0037,6.0582,6.1316,6.205,6.2763,6.3083,6.3252,6.3777,6.3946,6.3777,6.3928,6.4003,6.4153,6.4228,6.4284,6.4284,6.4284,6.4059,6.3289,6.2294,6.143,6.0717,6.0004,5.929,5.9346,5.9438,5.9529,5.9634,5.9738,5.9824,5.9872,5.9904,5.9918,5.9963,6.0038,6.0072,6.0179,6.0342,6.0389,6.0389,6.0389,6.0389,6.0417,6.0417,6.0444,6.0499,6.0578,6.0704,6.0846,6.102,6.1272,6.1438,6.1539,6.1652,6.1667,6.174,6.1735,6.1808,6.1905,6.2138,6.2565,6.2934,6.3148,6.3323,6.3498,6.3537,6.3809,6.4119,6.4236,6.4411,6.4993,6.546,6.5911,6.6199,6.6065,6.6098,6.6351,6.6488,6.639,6.6466,6.651,6.6707,6.677,6.6795,6.6795,6.6795,6.6795,6.6795,5.0891,5.0961,5.179,5.2304,5.2605,5.3511,5.4047,5.4331,5.5274,5.5841,5.6176,5.6985,5.7356,5.7239,5.7388,5.7697,5.8042,5.816,5.8275,5.8425,5.8633,5.8758,5.884,5.8942,5.9139,5.9328,5.9553,5.9891,6.0134,6.0623,6.1224,6.1994,6.2031,6.2144,6.2238,6.2463,6.2782,6.3101,6.3402,6.3496,6.404,6.4153,6.4284,6.4078,6.3627,6.2801,6.1937,6.1168,6.0323,5.9647,5.929,5.9327,5.9383,5.9493,5.9564,5.9669,5.9772,5.9839,5.9872,5.9904,5.9982,6.0026,6.0049,6.0159,6.0285,6.0389,6.0389,6.0389,6.0389,6.0389,6.0417,6.0499,6.0552,6.0762,6.0923,6.1116,6.131,6.1884,6.2374,6.2618,6.2886,6.3017,6.3172,6.3187,6.3168,6.3265,6.3362,6.3711,6.377,6.4042,6.4333,6.4508,6.4683,6.4819,6.4974,6.5013,6.5226,6.5829,6.6213,6.6334,6.6465,6.6591,6.6702,6.6712,6.6722,6.6615,6.6739,6.6803,6.6805,6.679,6.6795,6.6795,6.6795,6.6795,6.6795]},{"header":{"parameterUnit":"m.s-1","parameterCategory":1,"la1":31.0,"la2":29.5877,"lo1":-88.7671,"lo2":-86.6584,"dy":0.0162,"dx":0.0185,"nx":115,"ny":88,"refTime":"2023-03-09T06:00:00:Z","depth":0,"parameterNumber":3,"parameterNumberName":"V-component_of_WINDS"},"data":[0.0,0.0,0.0,0.0,0.0,0.0,0.0,0.0,0.0,0.0,0.0,0.0,0.0,0.0,0.0,0.0,0.0,0.0,0.0,0.0,0.0,0.0,0.0,0.0,0.0,0.0,0.0,0.0,0.0,0.0,0.0,0.0,0.0,0.0,0.0,0.0,0.0,0.0,0.0,0.0,0.0,0.0,0.0,0.0,0.0,0.0,0.0,0.0,0.0,0.0,0.0,0.0,0.0,0.0,0.0,0.0,0.0,0.0,0.0,0.0,0.0,0.0,0.0,0.0,0.0,0.0,0.0,0.0,0.0,0.0,0.0,0.0,0.0,0.0,0.0,0.0,0.0,0.0,0.0,0.0,0.0,0.0,0.0,0.0,0.0,0.0,0.0,0.0,0.0,0.0,0.0,0.0,0.0,0.0,0.0,0.0,0.0,0.0,0.0,0.0,0.0,0.0,0.0,0.0,0.0,0.0,0.0,0.0,0.0,0.0,0.0,0.0,0.0,0.0,0.0,0.0,0.0,0.0,0.0,0.0,0.0,0.0,0.0,0.0,0.0,0.0,0.0,0.0,0.0,0.0,0.0,0.0,0.0,0.0,0.0,0.0,0.0,0.0,0.0,0.0,0.0,0.0,0.0,0.0,0.0,0.0,0.0,0.0,0.0,0.0,0.0,0.0,0.0,0.0,0.0,0.0,0.0,0.0,0.0,0.0,0.0,0.0,0.0,0.0,0.0,0.0,0.0,0.0,0.0,0.0,0.0,0.0,0.0,0.0,0.0,0.0,0.0,0.0,0.0,0.0,0.0,0.0,0.0,0.0,0.0,0.0,0.0,0.0,0.0,0.0,0.0,0.0,0.0,0.0,0.0,0.0,0.0,0.0,0.0,0.0,0.0,0.0,0.0,0.0,0.0,0.0,0.0,0.0,0.0,0.0,0.0,0.0,0.0,0.0,0.0,0.0,0.0,0.0,0.0,0.0,0.0,0.0,0.0,0.0,0.0,0.0,0.0,0.0,0.0,0.0,0.0,0.0,0.0,0.0,0.0,0.0,0.0,0.0,0.0,0.0,0.0,0.0,0.0,0.0,0.0,0.0,0.0,0.0,0.0,0.0,0.0,0.0,0.0,0.0,0.0,0.0,0.0,0.0,0.0,0.0,0.0,0.0,0.0,0.0,0.0,0.0,0.0,0.0,0.0,0.0,0.0,0.0,0.0,0.0,0.0,0.0,0.0,0.0,0.0,0.0,0.0,0.0,0.0,0.0,0.0,0.0,0.0,0.0,0.0,0.0,0.0,0.0,0.0,0.0,0.0,0.0,0.0,0.0,0.0,0.0,0.0,0.0,0.0,0.0,0.0,0.0,0.0,0.0,0.0,0.0,0.0,0.0,0.0,0.0,0.0,0.0,0.0,0.0,0.0,0.0,0.0,0.0,0.0,0.0,0.0,0.0,0.0,0.0,0.0,0.0,0.0,0.0,0.0,0.0,0.0,0.0,0.0,0.0,0.0,0.0,0.0,0.0,0.0,0.0,0.0,0.0,0.0,0.0,0.0,0.0,0.0,0.0,0.0,0.0,0.0,0.0,0.0,0.0,0.0,0.0,0.0,0.0,0.0,0.0,0.0,0.0,0.0,0.0,0.0,0.0,0.0,0.0,0.0,0.0,0.0,0.0,0.0,0.0,0.0,0.0,0.0,0.0,0.0,0.0,0.0,0.0,0.0,0.0,0.0,0.0,0.0,0.0,0.0,0.0,0.0,0.0,0.0,0.0,0.0,0.0,0.0,0.0,0.0,0.0,0.0,0.0,0.0,0.0,0.0,0.0,0.0,0.0,0.0,0.0,0.0,0.0,0.0,0.0,0.0,0.0,0.0,0.0,0.0,0.0,0.0,0.0,0.0,0.0,0.0,0.0,0.0,0.0,0.0,0.0,0.0,0.0,0.0,0.0,0.0,0.0,0.0,0.0,0.0,0.0,0.0,0.0,0.0,0.0,0.0,0.0,0.0,0.0,0.0,0.0,0.0,0.0,0.0,0.0,0.0,0.0,0.0,0.0,0.0,0.0,0.0,0.0,0.0,0.0,0.0,0.0,0.0,0.0,0.0,0.0,0.0,0.0,0.0,0.0,0.0,0.0,0.0,0.0,0.0,0.0,0.0,0.0,0.0,0.0,0.0,0.0,0.0,0.0,0.0,0.0,0.0,0.0,0.0,0.0,0.0,0.0,0.0,0.0,0.0,0.0,0.0,0.0,0.0,0.0,0.0,0.0,0.0,0.0,0.0,0.0,0.0,0.0,0.0,0.0,0.0,0.0,0.0,0.0,0.0,0.0,0.0,0.0,0.0,0.0,0.0,0.0,0.0,0.0,0.0,0.0,0.0,0.0,0.0,0.0,0.0,0.0,0.0,0.0,0.0,0.0,0.0,0.0,0.0,0.0,0.0,0.0,0.0,0.0,0.0,0.0,0.0,0.0,0.0,0.0,0.0,0.0,0.0,0.0,0.0,0.0,0.0,0.0,0.0,0.0,0.0,0.0,0.0,0.0,0.0,0.0,0.0,0.0,0.0,0.0,0.0,0.0,0.0,0.0,0.0,0.0,0.0,0.0,0.0,0.0,0.0,0.0,0.0,0.0,0.0,0.0,0.0,0.0,0.0,0.0,0.0,0.0,0.0,0.0,0.0,0.0,0.0,0.0,0.0,0.0,0.0,0.0,0.0,0.0,0.0,0.0,0.0,0.0,0.0,0.0,0.0,0.0,0.0,0.0,0.0,0.0,0.0,0.0,0.0,0.0,0.0,0.0,0.0,0.0,0.0,0.0,0.0,0.0,0.0,0.0,0.0,0.0,0.0,0.0,0.0,0.0,0.0,0.0,0.0,0.0,0.0,0.0,0.0,0.0,0.0,0.0,0.0,0.0,0.0,0.0,0.0,0.0,0.0,0.0,0.0,0.0,0.0,0.0,0.0,0.0,0.0,0.0,0.0,0.0,0.0,0.0,0.0,0.0,0.0,0.0,0.0,0.0,0.0,0.0,0.0,0.0,0.0,0.0,0.0,0.0,0.0,0.0,0.0,0.0,0.0,0.0,0.0,0.0,0.0,0.0,0.0,0.0,0.0,0.0,0.0,0.0,0.0,0.0,0.0,0.0,0.0,0.0,0.0,0.0,0.0,0.0,0.0,0.0,0.0,0.0,0.0,0.0,0.0,0.0,0.0,0.0,0.0,0.0,0.0,0.0,0.0,0.0,0.0,0.0,0.0,0.0,0.0,0.0,0.0,0.0,0.0,0.0,0.0,0.0,0.0,0.0,0.0,0.0,0.0,0.0,0.0,0.0,0.0,0.0,0.0,0.0,0.0,0.0,0.0,0.0,0.0,0.0,0.0,0.0,0.0,0.0,0.0,0.0,0.0,0.0,0.0,0.0,0.0,0.0,0.0,0.0,0.0,0.0,0.0,0.0,0.0,0.0,0.0,0.0,0.0,0.0,0.0,0.0,0.0,0.0,0.0,0.0,0.0,0.0,0.0,0.0,0.0,0.0,0.0,0.0,0.0,0.0,0.0,0.0,0.0,0.0,0.0,0.0,0.0,0.0,0.0,0.0,0.0,0.0,0.0,0.0,0.0,0.0,0.0,0.0,0.0,0.0,0.0,0.0,0.0,0.0,0.0,0.0,0.0,0.0,0.0,0.0,0.0,0.0,0.0,0.0,0.0,0.0,0.0,0.0,0.0,0.0,0.0,0.0,0.0,0.0,0.0,0.0,0.0,0.0,0.0,0.0,0.0,0.0,0.0,0.0,0.0,0.0,0.0,0.0,0.0,0.0,0.0,0.0,0.0,0.0,0.0,0.0,0.0,0.0,0.0,0.0,0.0,0.0,0.0,0.0,0.0,0.0,0.0,0.0,0.0,0.0,0.0,0.0,0.0,0.0,0.0,0.0,0.0,0.0,0.0,0.0,0.0,0.0,0.0,0.0,0.0,0.0,0.0,0.0,0.0,0.0,0.0,0.0,0.0,0.0,0.0,0.0,0.0,0.0,0.0,0.0,0.0,0.0,0.0,0.0,0.0,0.0,0.0,0.0,0.0,0.0,0.0,0.0,0.0,0.0,0.0,0.0,0.0,0.0,0.0,0.0,0.0,0.0,0.0,0.0,0.0,0.0,0.0,0.0,0.0,0.0,0.0,0.0,0.0,0.0,0.0,0.0,0.0,0.0,0.0,0.0,0.0,0.0,0.0,0.0,0.0,0.0,0.0,0.0,0.0,0.0,0.0,0.0,0.0,0.0,0.0,0.0,0.4901,0.0,0.0,0.0,0.0,0.0,0.0,0.0,0.0,0.0,0.0,0.0,0.0,0.0,0.0,0.0,0.0,0.0,0.0,0.0,0.0,0.0,0.0,0.0,0.0,0.0,0.0,0.0,0.0,0.0,0.0,0.0,0.0,0.0,0.0,0.0,0.0,0.0,0.0,0.0,0.0,0.0,0.0,0.0,0.0,0.0,0.0,0.0,0.0,0.0,0.0,0.0,0.0,0.0,0.0,0.0,0.0,0.0,0.0,0.0,0.0,0.0,0.0,0.0,0.0,0.0,0.0,0.0,0.0,0.0,0.0,0.0,0.0,0.0,0.0,0.0,0.0,0.0,0.0,0.0,0.0,0.0,0.0,0.0,0.0,0.0,0.0,0.0,0.0,0.0,0.0,0.0,0.0,0.0,0.0,0.0,0.0,0.0,0.0,0.0,0.0,0.0,0.0,0.0,0.0,0.0,0.0,0.0,0.0,0.0,0.0,0.5301,0.5242,0.5128,0.5069,0.5014,0.0,0.0,0.0,0.0,0.0,0.0,0.0,0.0,0.0,0.0,0.0,0.0,0.0,0.0,0.0,0.0,0.0,0.0,0.0,0.0,0.0,0.0,0.0,0.0,0.0,0.0,0.0,0.0,0.0,0.0,0.0,0.0,0.0,0.0,0.0,0.0,0.0,0.0,0.0,0.0,0.0,0.0,0.0,0.0,0.0,0.0,0.0,0.0,0.0,0.0,0.0,0.0,0.0,0.0,0.0,0.0,0.0,0.0,0.0,0.0,0.0,0.0,0.0,0.0,0.0,0.0,0.0,0.0,0.0,0.0,0.0,0.0,0.0,0.0,0.0,0.0,0.0,0.0,0.0,0.0,0.0,0.0,0.0,0.0,0.0,0.0,0.0,0.0,0.0,0.0,0.0,0.0,0.0,0.0,0.0,0.0,0.0,0.0,0.0,0.0,0.0,0.0,0.0,0.0,0.0,0.0,0.0,0.0,0.0,0.0,0.0,0.0,0.5187,0.5128,0.5073,0.0,0.0,0.0,0.0,0.0,0.0,0.0,0.0,0.0,0.0,0.0,0.0,0.0,0.0,0.0,0.0,0.0,0.0,0.0,0.0,0.0,0.0,0.0,0.0,0.0,0.0,0.0,0.0,0.0,0.0,0.0,0.0,0.0,0.0,0.0,0.0,0.0,0.0,0.0,0.0,0.0,0.0,0.0,0.0,0.0,0.0,0.0,0.0,0.0,0.0,0.0,0.0,0.0,0.0,0.0,0.0,0.0,0.0,0.0,0.0,0.0,0.0,0.0,0.0,0.0,0.0,0.0,0.0,0.0,0.0,0.0,0.0,0.0,0.0,0.0,0.0,0.0,0.0,0.0,0.0,0.0,0.0,0.0,0.0,0.0,0.0,0.0,0.0,0.0,0.0,0.0,0.0,0.0,0.0,0.0,0.0,0.0,0.0,0.0,0.0,0.0,0.0,0.0,0.0,0.0,0.0,0.0,0.0,0.0,0.0,0.5301,0.5301,0.5301,0.0,0.5128,0.0,0.0,0.0,0.0,0.0,0.0,0.0,0.0,0.0,0.0,0.0,0.0,0.0,0.0,0.0,0.0,0.0,0.0,0.0,0.0,0.0,0.0,0.0,0.0,0.0,0.0,0.0,0.0,0.0,0.0,0.0,0.0,0.0,0.0,0.0,0.0,0.0,0.0,0.0,0.0,0.0,0.0,0.0,0.0,0.0,0.0,0.0,0.0,0.0,0.0,0.0,0.0,0.0,0.0,0.0,0.0,0.0,0.0,0.0,0.0,0.0,0.0,0.0,0.0,0.0,0.0,0.0,0.0,0.0,0.0,0.0,0.0,0.0,0.0,0.0,0.0,0.0,0.0,0.0,0.0,0.0,0.0,0.0,0.0,0.0,0.0,0.0,0.0,0.0,0.0,0.0,0.0,0.0,0.0,0.0,0.0,0.0,0.0,0.0,0.0,0.0,0.0,0.0,0.0,0.0,0.0,0.0,0.0,0.0,0.0,0.5301,0.5301,0.5301,0.5301,0.0,0.0,0.0,0.0,0.0,0.0,0.0,0.0,0.0,0.0,0.0,0.0,0.0,0.0,0.0,0.0,0.0,0.0,0.0,0.0,0.0,0.0,0.0,0.0,0.0,0.0,0.0,0.0,0.0,0.0,0.0,0.0,0.0,0.0,0.0,0.0,0.0,0.0,0.0,0.0,0.0,0.0,0.0,0.0,0.0,0.0,0.0,0.0,0.0,0.0,0.0,0.0,0.0,0.0,0.0,0.0,0.0,0.0,0.0,0.0,0.0,0.0,0.0,0.0,0.0,0.0,0.0,0.0,0.0,0.0,0.0,0.0,0.0,0.0,0.0,0.0,0.0,0.0,0.0,0.0,0.0,0.0,0.0,0.0,0.0,0.0,0.0,0.0,0.0,0.0,0.0,0.0,0.0,0.0,0.0,0.0,0.0,0.0,0.0,0.0,0.0,0.0,0.0,0.0,0.0,0.0,0.0,0.0,0.0,0.0,0.5301,0.5301,0.5301,0.5301,0.5301,0.5301,0.0,0.0,0.0,0.0,0.0,0.0,0.0,0.0,0.0,0.0,0.0,0.0,0.0,0.0,0.0,0.0,0.0,0.0,0.0,0.0,0.0,0.0,0.0,0.0,0.0,0.0,0.0,0.0,0.0,0.0,0.0,0.0,0.0,0.0,0.0,0.0,0.0,0.0,0.0,0.0,0.0,0.0,0.0,0.0,0.0,0.0,0.0,0.0,0.0,0.0,0.0,0.0,0.0,0.0,0.0,0.0,0.0,0.0,0.0,0.0,0.0,0.0,0.0,0.0,0.0,0.0,0.0,0.0,0.0,0.0,0.0,0.0,0.0,0.0,0.0,0.0,0.0,0.0,0.0,0.0,0.0,0.0,0.0,0.0,0.0,0.0,0.0,0.0,0.0,0.0,0.0,0.0,0.0,0.0,0.0,0.0,0.0,0.0,0.0,0.0,0.0,0.0,0.0,0.0,0.0,0.0,0.0,0.0,0.5301,0.5301,0.5301,0.5301,0.5301,0.5301,0.0,0.0,0.0,0.0,0.0,0.0,0.0,0.0,0.0,0.0,0.0,0.0,0.0,0.0,0.0,0.0,0.0,0.0,0.0,0.0,0.0,0.0,0.0,0.0,0.0,0.0,0.0,0.0,0.0,0.0,0.0,0.0,0.0,0.0,0.0,0.0,0.0,0.0,0.0,0.0,0.0,0.0,0.0,0.0,0.0,0.0,0.0,0.0,0.0,0.0,0.0,0.0,0.0,0.0,0.0,0.0,0.0,0.0,0.0,0.0,0.0,0.0,0.0,0.0,0.0,0.0,0.0,0.0,0.0,0.0,0.0,0.0,0.0,0.0,0.0,0.0,0.0,0.0,0.0,0.0,0.0,0.0,0.0,0.0,0.0,0.0,0.0,0.0,0.0,0.0,0.0,0.0,0.0,0.0,0.0,0.0,0.0,0.0,0.0,0.0,0.0,0.0,0.0,0.0,0.0,0.0,0.0,0.0,0.0,0.5309,0.5406,0.541,0.5309,0.5406,0.5466,0.0,0.0,0.0,0.0,0.0,0.0,0.0,0.0,0.0,0.0,0.0,0.0,0.0,0.0,0.0,0.0,0.0,0.0,0.0,0.0,0.0,0.0,0.0,0.0,0.0,0.0,0.0,0.0,0.0,0.0,0.0,0.0,0.0,0.0,0.0,0.0,0.0,0.0,0.0,0.0,0.0,0.0,0.0,0.0,0.0,0.0,0.0,0.0,0.0,0.0,0.0,0.0,0.0,0.0,0.0,0.0,0.0,0.0,0.0,0.0,0.0,0.0,0.0,0.0,0.0,0.0,0.0,0.0,0.0,0.0,0.0,0.0,0.0,0.0,0.0,0.0,0.0,0.0,0.0,0.0,0.0,0.0,0.0,0.0,0.0,0.0,0.0,0.0,0.0,0.0,0.0,0.0,0.0,0.0,0.0,0.0,0.0,0.0,0.0,0.0,0.0,0.0,0.0,0.0,0.0,0.0,0.0,0.0,0.0,0.5612,0.0,0.5726,0.562,0.5722,0.5705,0.0,0.0,0.0,0.0,0.0,0.0,0.0,0.0,0.0,0.0,0.0,0.0,0.0,0.0,0.0,0.0,0.0,0.0,0.0,0.0,0.0,0.0,0.0,0.0,0.0,0.0,0.0,0.0,0.0,0.0,0.0,0.0,0.0,0.0,0.0,0.0,0.0,0.0,0.0,0.0,0.0,0.0,0.0,0.0,0.0,0.0,0.0,0.0,0.0,0.0,0.0,0.0,0.0,0.0,0.0,0.0,0.0,0.0,0.0,0.0,0.0,0.0,0.0,0.0,0.0,0.0,0.0,0.0,0.0,0.0,0.0,0.0,0.0,0.0,0.0,0.0,0.0,0.0,0.0,0.0,0.0,0.0,0.0,0.0,0.0,0.0,0.0,0.0,0.0,0.0,0.0,0.0,0.0,0.0,0.0,0.0,0.0,0.0,0.0,0.0,0.0,0.0,0.0,0.0,0.0,0.0,0.0,0.0,0.5811,0.6195,0.6215,0.6219,0.6211,0.6215,0.6133,0.0,0.0,0.0,0.0,0.0,0.0,0.0,0.0,0.0,0.0,0.0,0.0,0.0,0.0,0.0,0.0,0.0,0.0,0.0,0.0,0.0,0.0,0.0,0.0,0.0,0.0,0.0,0.0,0.0,0.0,0.0,0.0,0.0,0.0,0.0,0.0,0.0,0.0,0.0,0.0,0.0,0.0,0.0,0.0,0.0,0.0,0.0,0.0,0.0,0.0,0.0,0.0,0.0,0.0,0.0,0.0,0.0,0.0,0.0,0.0,0.0,0.0,0.0,0.0,0.0,0.0,0.0,0.0,0.0,0.0,0.0,0.0,0.0,0.0,0.0,0.0,0.0,0.0,0.0,0.0,0.0,0.0,0.0,0.0,0.0,0.0,0.0,0.0,0.0,0.0,0.0,0.0,0.0,0.0,0.0,0.0,0.0,0.0,0.0,0.0,0.0,0.0,0.0,0.0,0.0,0.0,0.0,0.0,0.0,0.653,0.6643,0.6707,0.6522,0.6703,0.6572,0.0,0.0,0.0,0.0,0.0,0.0,0.0,0.0,0.0,0.0,0.0,0.0,0.0,0.0,0.0,0.0,0.0,0.0,0.0,0.0,0.0,0.0,0.0,0.0,0.0,0.0,0.0,0.0,0.0,0.0,0.0,0.0,0.0,0.0,0.0,0.0,0.0,0.0,0.0,0.0,0.0,0.0,0.0,0.0,0.0,0.0,0.0,0.0,0.0,0.0,0.0,0.0,0.0,0.0,0.0,0.0,0.0,0.0,0.0,0.0,0.0,0.0,0.0,0.0,0.0,0.0,0.0,0.0,0.0,0.0,0.0,0.0,0.0,0.0,0.0,0.0,0.0,0.0,0.0,0.0,0.0,0.0,0.0,0.0,0.0,0.0,0.0,0.0,0.0,0.0,0.0,0.0,0.0,0.0,0.0,0.0,0.0,0.0,0.0,0.0,0.0,0.0,0.0,0.0,0.0,0.0,0.0,0.0,0.0,0.7484,0.7395,0.7261,0.7086,0.7127,0.7032,0.657,0.0,0.0,0.0,0.0,0.0,0.0,0.0,0.0,0.0,0.0,0.0,0.0,0.0,0.0,0.0,0.0,0.0,0.0,0.0,0.0,0.0,0.0,0.0,0.0,0.0,0.0,0.0,0.0,0.0,0.0,0.0,0.0,0.0,0.0,0.0,0.0,0.0,0.0,0.0,0.0,0.0,0.0,0.0,0.0,0.0,0.0,0.0,0.0,0.0,0.0,0.0,0.0,0.0,0.0,0.0,0.0,0.0,0.0,0.0,0.0,0.0,0.0,0.0,0.0,0.0,0.0,0.0,0.0,0.0,0.0,0.0,0.0,0.0,0.0,0.0,0.0,0.0,0.0,0.0,0.0,0.0,0.0,0.0,0.0,0.0,0.0,0.0,0.0,0.0,0.0,0.0,0.0,0.0,0.0,0.0,0.0,0.0,0.0,0.0,0.0,0.0,0.0,0.0,0.0,0.0,0.0,0.0,0.0,0.884,0.8369,0.8024,0.7821,0.7642,0.7452,0.0,0.0,0.0,0.0,0.0,0.0,0.0,0.0,0.0,0.0,0.0,0.0,0.0,0.0,0.0,0.0,0.0,0.0,0.0,0.0,0.0,0.0,0.0,0.0,0.0,0.0,0.0,0.0,0.0,0.0,0.0,0.0,0.0,0.0,0.0,0.0,0.0,0.0,0.0,0.0,0.0,0.0,0.0,0.0,0.0,0.0,0.0,0.0,0.0,0.0,0.0,0.0,0.0,0.0,0.0,0.0,0.0,0.0,0.0,0.0,0.0,0.0,0.0,0.0,0.0,0.0,0.0,0.0,0.0,0.0,0.0,0.0,0.0,0.0,0.0,0.0,0.0,0.0,0.0,0.0,0.0,0.0,0.0,0.0,0.0,0.0,0.0,0.0,0.0,0.0,0.0,0.0,0.0,0.0,0.0,0.0,0.0,0.0,0.0,0.0,0.0,0.0,0.0,0.0,0.0,0.0,0.0,0.0,0.0,0.9202,0.9332,0.912,0.8564,0.8373,0.8073,0.0,0.0,0.0,0.0,0.0,0.0,0.0,0.0,0.0,0.0,0.0,0.0,0.0,0.0,0.0,0.0,0.0,0.0,0.0,0.0,0.0,0.0,0.0,0.0,0.0,0.0,0.0,0.0,0.0,0.0,0.0,0.0,0.0,0.0,0.0,0.0,0.0,0.0,0.0,0.0,0.0,0.0,0.0,0.0,0.0,0.0,0.0,0.0,0.0,0.0,0.0,0.0,0.0,0.0,0.0,0.0,0.0,0.0,0.0,0.0,0.0,0.0,0.0,0.0,0.0,0.0,0.0,0.0,0.0,0.0,0.0,0.0,0.0,0.0,0.0,0.0,0.0,0.0,0.0,0.0,0.0,0.0,0.0,0.0,0.0,0.0,0.0,0.0,0.0,0.0,0.0,0.0,0.0,0.0,0.0,0.0,0.0,0.0,0.0,0.0,0.0,0.0,0.0,0.0,0.0,0.0,0.0,0.0,0.9332,0.9799,0.9933,0.9843,0.9506,0.8962,0.8459,0.0,0.0,0.0,0.0,0.0,0.0,0.0,0.0,0.0,0.0,0.0,0.0,0.0,0.0,0.0,0.0,0.0,0.0,0.0,0.0,0.0,0.0,0.0,0.0,0.0,0.0,0.0,0.0,0.0,0.0,0.0,0.0,0.0,0.0,0.0,0.0,0.0,0.0,0.0,0.0,0.0,0.0,0.0,0.0,0.0,0.0,0.0,0.0,0.0,0.0,0.0,0.0,0.0,0.0,0.0,0.0,0.0,0.0,0.0,0.0,0.0,0.0,0.0,0.0,0.0,0.0,0.0,0.0,0.0,0.0,0.0,0.0,0.0,0.0,0.0,0.0,0.0,0.0,0.0,0.0,0.0,0.0,0.0,0.0,0.0,0.0,0.0,0.0,0.0,0.0,0.0,0.0,0.0,0.0,0.0,0.0,0.0,0.0,0.0,0.0,0.0,0.0,0.0,0.0,0.0,0.0,0.0,0.0,0.9592,1.0436,1.0339,1.0331,1.0428,0.9449,0.8727,0.0,0.0,0.0,0.0,0.0,0.0,0.0,0.0,0.0,0.0,0.0,0.0,0.0,0.0,0.0,0.0,0.0,0.0,0.0,0.0,0.0,0.0,0.0,0.0,0.0,0.0,0.0,0.0,0.0,0.0,0.0,0.0,0.0,0.0,0.0,0.0,0.0,0.0,0.0,0.0,0.0,0.0,0.0,0.0,0.0,0.0,0.0,0.0,0.0,0.0,0.0,0.0,0.0,0.0,0.0,0.0,0.0,0.0,0.0,0.0,0.0,0.0,0.0,0.0,0.0,0.0,0.0,0.0,0.0,0.0,0.0,0.0,0.0,0.0,0.0,0.0,0.0,0.0,0.0,0.0,0.0,0.0,0.0,0.0,0.0,0.0,0.0,0.0,0.0,0.0,0.0,0.0,0.0,0.0,0.0,0.0,0.0,0.0,0.0,0.0,0.0,0.0,0.0,0.0,0.0,0.0,0.0,0.0,1.0018,1.0619,1.0871,1.0883,1.0639,0.9868,0.9218,0.0,0.0,0.0,0.0,0.0,0.0,0.0,0.0,0.0,0.0,0.0,0.0,0.0,0.0,0.0,0.0,0.0,0.0,0.0,0.0,0.0,0.0,0.0,0.0,0.0,0.0,0.0,0.0,0.0,0.0,0.0,0.0,0.0,0.0,0.0,0.0,0.0,0.0,0.0,0.0,0.0,0.0,0.0,0.0,0.0,0.0,0.0,0.0,0.1029,0.0,0.0,0.0,0.0,0.0,0.0,0.0,0.0,0.0,0.0,0.0,0.0,0.0,0.0,0.0,0.0,0.0,0.0,0.0,0.0,0.0,0.0,0.0,0.0,0.0,0.0,0.0,0.0,0.0,0.0,0.0,0.0,0.0,0.0,0.0,0.0,0.0,0.0,0.0,0.0,0.0,0.0,0.0,0.0,0.0,0.0,0.0,0.0,0.0,0.0,0.0,0.0,0.0,0.0,0.0,0.0,0.0,0.0,0.0,1.0526,1.1143,1.1355,1.1245,1.0928,1.0335,0.9632,0.0,0.0,0.0,0.0,0.0,0.0,0.0,0.0,0.0,0.0,0.0,0.0,0.0,0.0,0.0,0.0,0.0,0.0,0.0,0.0,0.0,0.0,0.0,0.0,0.0,0.0,0.0,0.0,0.0,0.0,0.0,0.0,0.0,0.0,0.0,0.0,0.0,0.0,0.0,0.0,0.0,0.0,0.0,0.0,0.0,0.0,0.0,0.0,0.0,0.0,0.0,0.0,0.0,0.0,0.0,0.0,0.0,0.0,0.0,0.0,0.0,0.0,0.0,0.0,0.0,0.0,0.0,0.0,0.0,0.0,0.0,0.0,0.0,0.0,0.0,0.0,0.0,0.0,0.0,0.0,0.0,0.0,0.0,0.0,0.0,0.0,0.0,0.0,0.0,0.0,0.0,0.0,0.0,0.0,0.0,0.0,0.0,0.0,0.0,0.0,0.0,0.0,0.0,0.0,0.0,0.0,0.0,1.0331,1.1074,1.1761,1.1855,1.1624,1.1335,1.0737,0.9977,0.8942,0.0,0.0,0.0,0.0,0.0,0.0,0.0,0.0,0.0,0.0,0.0,0.0,0.0,0.0,0.0,0.0,0.0,0.0,0.0,0.0,0.0,0.0,0.0,0.0,0.0,0.0,0.0,0.0,0.0,0.0,0.0,0.0,0.0,0.0,0.0,0.0,0.0,0.0,0.1043,0.1167,0.0,0.0,0.0,0.0,0.0,0.0,0.0,0.0,0.1176,0.0,0.0,0.0,0.0,0.0,0.0,0.0,0.0,0.0,0.0,0.0,0.0,0.0,0.0,0.0,0.0,0.0,0.0,0.0,0.0,0.0,0.0,0.0,0.0,0.0,0.0,0.0,0.0,0.0,0.0,0.0,0.0,0.0,0.0,0.0,0.0,0.0,0.0,0.0,0.0,0.0,0.0,0.0,0.0,0.0,0.0,0.0,0.0,0.0,0.0,0.0,0.0,0.0,0.0,0.0,0.0,0.9736,1.0963,1.1638,1.2012,1.2342,1.2233,1.1574,1.13,1.0527,0.939,0.0,0.0,0.0,0.0,0.0,0.0,0.0,0.0,0.0,0.0,0.0,0.0,0.0,0.0,0.0,0.0,0.0,0.0,0.0,0.0,0.0,0.0,0.0,0.0,0.0,0.0,0.0,0.0,0.0,0.0,0.0,0.0,0.0,0.0,0.0,0.0,0.0,0.0,0.0,0.1159,0.1189,0.0,0.0,0.0,0.0,0.0,0.0,0.0,0.0,0.1211,0.0,0.0,0.0,0.0,0.0,0.0,0.0,0.0,0.0,0.0,0.0,0.0,0.0,0.0,0.0,0.0,0.0,0.0,0.0,0.0,0.0,0.0,0.0,0.0,0.0,0.0,0.0,0.0,0.0,0.0,0.0,0.0,0.0,0.0,0.0,0.0,0.0,0.0,0.0,0.0,0.0,0.0,0.0,0.0,0.0,0.0,0.0,0.0,0.0,0.0,0.0,0.0,0.0,0.0,0.0,1.0637,1.1765,1.2435,1.2827,1.3117,1.2894,1.2153,1.1552,1.0695,0.0,0.0,0.0,0.0,0.0,0.0,0.0,0.0,0.0,0.0,0.0,0.0,0.0,0.0,0.0,0.0,0.0,0.0,0.0,0.0,0.0,0.0,0.0,0.0,0.0,0.0,0.0,0.0,0.0,0.0,0.0,0.0,0.0,0.0,0.0,0.0,0.0,0.0,0.0,0.0,0.1207,0.1241,0.1337,0.0,0.0,0.0,0.0,0.0,0.0,0.1292,0.1277,0.0,0.0,0.0,0.0,0.0,0.0,0.0,0.0,0.0,0.0,0.0,0.0,0.0,0.0,0.0,0.0,0.0,0.0,0.0,0.0,0.0,0.0,0.0,0.0,0.0,0.0,0.0,0.0,0.0,0.0,0.0,0.0,0.0,0.0,0.0,0.0,0.0,0.0,0.0,0.0,0.0,0.0,0.0,0.0,0.0,0.0,0.0,0.0,0.0,0.0,0.0,0.0,0.0,0.0,0.0,1.1542,1.264,1.3307,1.3626,1.3829,1.3603,1.2841,1.1882,1.1006,0.0,0.0,0.0,0.0,0.0,0.0,0.0,0.0,0.0,0.0,0.0,0.0,0.0,0.0,0.0,0.0,0.0,0.0,0.0,0.0,0.0,0.0,0.0,0.0,0.0,0.0,0.0,0.0,0.0,0.0,0.0,0.0,0.0,0.0,0.0,0.0,0.0,0.0,0.0,0.0,0.0,0.1301,0.1433,0.1367,0.0,0.0,0.0,0.0,0.1374,0.1369,0.0,0.0,0.0,0.0,0.0,0.0,0.0,0.0,0.0,0.0,0.0,0.0,0.0,0.0,0.0,0.0,0.0,0.0,0.0,0.0,0.0,0.0,0.0,0.0,0.0,0.0,0.0,0.0,0.0,0.0,0.0,0.0,0.0,0.0,0.0,0.0,0.0,0.0,0.0,0.0,0.0,0.0,0.0,0.0,0.0,0.0,0.0,0.0,0.0,0.0,0.0,0.0,0.0,0.0,0.0,0.0,1.202,1.336,1.4182,1.4303,1.4758,1.4427,1.3417,1.2663,1.174,0.0,0.0,0.0,0.0,0.0,0.0,0.0,0.0,0.0,0.0,0.0,0.0,0.0,0.0,0.0,0.0,0.0,0.0,0.0,0.0,0.0,0.0,0.0,0.0,0.0,0.0,0.0,0.0,0.0,0.0,0.0,0.0,0.0,0.0,0.0,0.0,0.0,0.0,0.0,0.0,0.0,0.1377,0.1384,0.1431,0.1456,0.0,0.0,0.1465,0.1466,0.1443,0.0,0.0,0.0,0.0,0.0,0.0,0.0,0.0,0.0,0.0,0.0,0.0,0.0,0.0,0.0,0.0,0.0,0.0,0.0,0.0,0.0,0.0,0.0,0.0,0.0,0.0,0.0,0.0,0.0,0.0,0.0,0.0,0.0,0.0,0.0,0.0,0.0,0.0,0.0,0.0,0.0,0.0,0.0,0.0,0.0,0.0,0.0,0.0,0.0,0.0,0.0,0.0,0.0,0.0,0.0,1.1561,1.2885,1.4057,1.4839,1.5208,1.546,1.5365,1.4566,1.3763,1.2571,0.0,0.0,0.0,0.0,0.0,0.0,0.0,0.0,0.0,0.0,0.0,0.0,0.0,0.0,0.0,0.0,0.0,0.0,0.0,0.0,0.0,0.0,0.0,0.0,0.0,0.0,0.0,0.0,0.0,0.0,0.0,0.0,0.0,0.0,0.0,0.0,0.0,0.0,0.0,0.0,0.0,0.0,0.1462,0.149,0.0,0.0,0.0,0.1513,0.153,0.0,0.0,0.0,0.0,0.0,0.0,0.0,0.0,0.0,0.0,0.0,0.0,0.0,0.0,0.0,0.0,0.0,0.0,0.0,0.0,0.0,0.0,0.0,0.0,0.0,0.0,0.0,0.0,0.0,0.0,0.0,0.0,0.0,0.0,0.0,0.0,0.0,0.0,0.0,0.0,0.0,0.0,0.0,0.0,0.0,0.0,0.0,0.0,0.0,0.0,0.0,0.0,0.0,0.0,0.0,0.0,0.0,1.3624,1.4625,1.5384,1.5885,1.6158,1.6065,1.5462,1.4527,0.0,0.0,0.0,0.0,0.0,0.0,0.0,0.0,0.0,0.0,0.0,0.0,0.0,0.0,0.0,0.0,0.0,0.0,0.0,0.0,0.0,0.0,0.0,0.0,0.0,0.0,0.0,0.3025,0.0,0.0,0.0,0.0,0.0,0.0,0.0,0.0,0.0,0.0,0.0,0.0,0.0,0.0,0.1469,0.1529,0.155,0.1568,0.0,0.0,0.1568,0.159,0.1562,0.1519,0.0,0.0,0.0,0.0,0.0,0.0,0.0,0.0,0.0,0.0,0.0,0.0,0.0,0.0,0.0,0.0,0.0,0.0,0.0,0.0,0.0,0.0,0.0,0.0,0.0,0.0,0.0,0.0,0.0,0.0,0.0,0.0,0.0,0.0,0.0,0.0,0.0,0.0,0.0,0.0,0.0,0.0,0.0,0.0,0.0,0.0,0.0,0.0,0.0,0.0,0.0,0.0,0.0,0.0,0.0,1.3902,1.493,1.5711,1.6115,1.6634,1.6536,1.5795,1.4965,1.4029,0.0,0.0,0.0,0.0,0.0,0.0,0.0,0.0,0.0,0.0,0.0,0.0,0.0,0.0,0.0,0.0,0.0,0.0,0.0,0.0,0.0,0.0,0.0,0.0,0.0,0.0,0.0,0.0,0.0,0.0,0.0,0.0,0.0,0.0,0.0,0.0,0.0,0.0,0.0,0.0,0.0,0.15,0.156,0.1617,0.1654,0.0,0.0,0.1654,0.1656,0.1607,0.1557,0.1525,0.0,0.0,0.0,0.0,0.0,0.0,0.0,0.0,0.0,0.0,0.0,0.0,0.0,0.0,0.0,0.0,0.0,0.0,0.0,0.0,0.0,0.0,0.0,0.0,0.0,0.0,0.0,0.0,0.0,0.0,0.0,0.0,0.0,0.0,0.0,0.0,0.0,0.0,0.0,0.0,0.0,0.0,0.0,0.0,0.0,0.0,0.0,0.0,0.0,0.0,0.0,0.0,0.0,1.2785,1.419,1.5457,1.6259,1.6782,1.7165,1.7171,1.6694,1.5689,1.4663,0.0,0.0,0.0,0.0,0.0,0.0,0.0,0.0,0.0,0.0,0.0,0.0,0.0,0.0,0.0,0.0,0.0,0.0,0.0,0.0,0.0,0.0,0.0,0.0,0.0,0.0,0.0,0.0,0.3814,0.3521,0.2741,0.0,0.0,0.0,0.0,0.0,0.0,0.0,0.0,0.0,0.0,0.1537,0.1616,0.1647,0.0,0.0,0.1791,0.1669,0.1686,0.1638,0.1583,0.1534,0.1491,0.0,0.0,0.0,0.0,0.0,0.0,0.0,0.0,0.0,0.0,0.0,0.0,0.0,0.0,0.0,0.0,0.0,0.0,0.0,0.0,0.0,0.0,0.0,0.0,0.0,0.0,0.0,0.0,0.0,0.0,0.0,0.0,0.0,0.0,0.0,0.0,0.0,0.0,0.0,0.0,0.0,0.0,0.0,0.0,0.0,0.0,0.0,0.0,0.0,0.0,0.0,0.0,1.323,1.4382,1.5772,1.6806,1.7359,1.7711,1.7729,1.7247,1.631,1.5444,0.0,0.0,0.0,0.0,0.0,0.0,0.0,0.0,0.0,0.0,0.0,0.0,0.0,0.0,0.0,0.0,0.0,0.0,0.0,0.0,0.0,0.0,0.0,0.0,0.0,0.0,0.0,0.0,0.441,0.4026,0.3212,0.0,0.0,0.0,0.0,0.0,0.0,0.0,0.0,0.0,0.0,0.1667,0.1753,0.1773,0.1692,0.1742,0.1707,0.1682,0.1701,0.1656,0.1599,0.1548,0.0,0.0,0.0,0.0,0.0,0.0,0.0,0.0,0.0,0.0,0.0,0.0,0.0,0.0,0.0,0.0,0.0,0.0,0.0,0.0,0.0,0.0,0.0,0.0,0.0,0.0,0.0,0.0,0.0,0.0,1.0609,0.0,0.0,0.0,0.0,0.0,0.0,0.0,0.0,0.0,0.0,0.0,0.0,0.0,0.0,0.0,0.0,0.0,0.0,0.0,0.0,0.0,0.0,1.3863,1.4682,1.6068,1.7016,1.7582,1.8122,1.8141,1.7601,1.7029,1.6329,1.5496,0.0,0.0,0.0,0.0,0.0,0.0,0.0,0.0,0.0,0.0,0.0,0.0,0.0,0.0,0.0,0.0,0.0,0.0,0.0,0.0,0.0,0.0,0.0,0.0,0.0,0.0,0.5283,0.4785,0.4252,0.0,0.0,0.0,0.0,0.0,0.0,0.0,0.0,0.0,0.0,0.2202,0.199,0.2063,0.1895,0.1714,0.1854,0.1723,0.1703,0.1704,0.1656,0.1606,0.0,0.0,0.0,0.0,0.0,0.0,0.0,0.0,0.0,0.0,0.0,0.0,0.0,0.0,0.0,0.0,0.0,0.0,0.0,0.0,0.0,0.0,0.0,0.0,0.0,0.0,0.0,1.2036,1.2014,0.0,0.0,0.0,0.0,0.0,0.0,0.0,0.0,0.0,0.0,0.0,1.4057,1.4087,0.0,0.0,0.0,0.0,0.0,0.0,0.0,0.0,0.0,0.0,0.0,0.0,1.4216,1.5439,1.6675,1.7547,1.8236,1.8405,1.8304,1.7929,1.7143,1.6259,1.5248,0.0,0.0,0.0,0.0,0.0,0.0,0.0,0.0,0.0,0.0,0.0,0.0,0.0,0.0,0.0,0.0,0.0,0.0,0.0,0.0,0.0,0.0,0.0,0.0,0.0,0.6617,0.0,0.0,0.0,0.0,0.0,0.0,0.0,0.0,0.0,0.0,0.0,0.283,0.2869,0.2434,0.1992,0.2063,0.1896,0.1715,0.0,0.0,0.0,0.0,0.0,0.0,0.0,0.0,0.0,0.0,0.0,0.0,0.0,0.0,0.1453,0.1414,0.123,0.1143,0.1142,0.0,0.0,0.0,0.0,0.0,0.0,0.0,0.0,0.0,0.0,0.0,0.0,0.0,0.0,1.3023,0.0,1.2811,0.0,0.0,0.0,0.0,0.0,0.0,0.0,0.0,1.4457,1.4882,1.5202,1.522,1.5295,0.0,1.5035,1.4289,0.0,0.0,0.0,0.0,0.0,0.0,0.0,0.0,1.4851,1.5913,1.7184,1.819,1.8775,1.8964,1.8984,1.8588,1.749,1.643,1.5395,1.4275,1.3268,0.0,0.0,0.0,0.0,0.0,0.0,0.0,0.0,0.0,0.0,0.0,0.0,0.0,0.0,0.0,0.0,0.0,0.0,0.0,0.0,0.0,0.0,0.0,0.7303,0.0,0.0,0.0,0.0,0.0,0.0,0.0,0.0,0.0,0.4428,0.3851,0.3568,0.3611,0.2962,0.2412,0.2499,0.0,0.0,0.0,0.0,0.0,0.0,0.0,0.1663,0.1624,0.1617,0.1611,0.1592,0.1588,0.1588,0.1588,0.0,0.0,0.1481,0.1467,0.1467,0.1467,0.1567,0.1575,0.1483,0.1491,0.1498,0.0,0.0,0.0,0.0,0.0,0.0,0.0,0.0,1.4026,1.4026,0.0,1.4018,0.0,0.0,0.0,0.0,0.0,1.4209,0.0,0.0,1.5628,1.5957,1.6001,1.6279,1.6337,1.6084,1.6084,1.5967,1.5718,1.4571,0.0,0.0,0.0,0.0,0.0,0.0,1.5582,1.6312,1.7712,1.8737,1.9456,1.9948,1.9969,1.9353,1.7853,1.6762,1.5994,1.5365,1.4353,1.2949,1.246,0.0,0.0,0.0,0.0,0.0,0.0,0.0,0.0,0.0,0.0,0.0,0.0,0.0,0.0,0.0,0.0,0.0,0.0,0.0,0.0,0.8034,0.0,0.0,0.0,0.0,0.0,0.0,0.0,0.0,0.0,0.0,0.5264,0.4879,0.471,0.4714,0.0,0.0,0.0,0.0,0.2159,0.223,0.1991,0.1861,0.1859,0.1725,0.1705,0.1703,0.0,0.0,0.1703,0.1703,0.17,0.1703,0.1698,0.1667,0.1554,0.1535,0.1534,0.1534,0.1558,0.1575,0.1577,0.1596,0.1614,1.6705,0.0,0.0,0.0,0.0,1.4874,1.4926,1.5013,1.5021,1.5021,1.5021,1.5013,0.0,0.0,0.0,0.0,0.0,0.0,1.5665,1.5972,1.6389,1.6828,1.7274,1.7355,1.7523,1.7639,1.7414,1.7211,1.7174,1.6393,1.5677,1.4902,0.0,0.0,0.0,0.0,1.6564,1.7316,1.8437,1.9284,1.969,2.0069,1.9983,1.9367,1.8053,1.7131,1.6762,1.5873,1.4904,1.392,1.2916,0.0,0.0,0.0,0.0,0.0,0.0,0.0,0.0,0.0,0.0,0.0,0.0,0.0,0.0,0.0,0.0,0.0,0.0,0.0,0.8564,0.8468,0.8159,0.0,0.0,0.0,0.0,0.0,0.0,0.0,0.0,0.0,0.6533,0.5637,0.5023,0.0,0.0,0.4126,0.3962,0.3524,0.3048,0.2858,0.266,0.0,0.0,0.2069,0.1945,0.1708,0.1704,0.1704,0.1704,0.1704,0.1704,0.1705,0.1704,0.1692,0.1663,0.1653,0.1652,0.1654,0.166,0.1666,0.1667,0.1674,0.168,1.8888,1.7273,1.6581,1.6279,1.6184,1.6184,1.6177,1.6184,1.6184,1.6177,1.6184,1.6184,1.6045,1.5789,1.5599,0.0,0.0,0.0,1.6769,1.6952,1.7282,1.7633,1.7991,1.8013,1.8108,1.8284,1.8108,1.8013,1.7999,1.7618,1.7145,1.6478,0.0,0.0,1.6118,1.6733,1.7458,1.8211,1.902,1.965,2.0096,2.0236,2.0067,1.9676,1.8363,1.7512,1.7313,1.6266,1.5338,1.4494,1.3521,1.2423,0.0,0.0,0.0,0.0,0.0,0.0,0.0,0.0,0.0,0.0,0.0,0.7541,0.0,0.0,0.0,0.0,0.8463,0.8698,0.8913,0.8938,0.0,0.0,0.0,0.0,0.0,0.0,0.0,0.6963,0.7234,0.7421,0.7327,0.6735,0.6129,0.5997,0.5482,0.5141,0.4964,0.0,0.3831,0.3636,0.3229,0.2794,0.2435,0.232,0.2092,0.1744,0.174,0.174,0.174,0.174,0.174,0.174,0.174,0.174,0.174,0.174,0.1731,0.171,0.1714,0.1726,0.1737,0.1749,0.1761,2.0926,2.0174,1.876,1.7836,1.7479,1.7479,1.7479,1.7479,1.7457,1.7443,1.7443,1.7413,1.7077,1.6521,1.6521,0.0,1.6565,1.7479,1.7904,1.7947,1.8269,1.843,1.8452,1.846,1.8452,1.846,1.846,1.8452,1.8467,1.843,1.8423,1.8394,1.753,1.7139,1.7011,1.7604,1.8225,1.8818,1.9499,2.0142,2.0735,2.0413,2.0237,2.023,1.8678,1.7818,1.7598,1.6732,1.5792,1.4743,1.4025,1.3106,1.1911,0.0,0.0,0.0,0.0,0.0,0.0,0.0,0.0,0.0,0.0,0.0,0.0,0.0,0.0,0.0,0.8917,0.0,0.9116,0.9214,0.0,0.0,0.0,0.8262,0.8067,0.7882,0.7886,0.7987,0.0,0.0,0.7942,0.7999,0.7869,0.7364,0.6637,0.6214,0.6199,0.5349,0.462,0.4576,0.3807,0.3139,0.28,0.2465,0.2127,0.1901,0.1795,0.1791,0.1791,0.1791,0.1794,0.1791,0.1794,0.1793,0.1794,0.1791,0.1778,0.1724,0.1737,0.1765,0.1791,0.1819,0.1845,2.2057,2.1269,2.0837,2.0094,1.9115,1.9108,1.9014,1.8796,1.8547,1.8438,1.8423,1.8182,1.7984,1.7838,1.7845,1.7845,1.7867,1.8343,1.8694,1.8942,1.9264,1.955,1.9777,1.9777,1.9777,1.9777,1.9777,1.9777,1.9762,1.9535,1.9411,1.9403,1.9184,1.8701,1.8006,1.8247,1.8642,1.9162,2.0033,2.0684,2.1064,2.053,2.0237,2.0223,1.8884,1.8009,1.7612,1.6917,1.5973,1.475,1.4118,1.3294,1.2081,1.0952,0.0,0.0,0.0,0.0,0.0,0.0,0.0,0.0,0.0,0.804,0.841,0.0,0.8816,0.0,0.9169,0.9295,0.9295,0.939,0.0,0.0,0.8698,0.8528,0.834,0.8361,0.8438,0.8438,0.8571,0.8619,0.8743,0.8933,0.8996,0.9005,0.8091,0.7376,0.7083,0.6508,0.6015,0.5481,0.4704,0.4032,0.3363,0.2692,0.2132,0.1795,0.1795,0.1795,0.1795,0.1795,0.1795,0.1795,0.1795,0.1795,0.1795,0.1795,0.1791,0.1778,0.1798,0.1821,0.1829,0.1854,0.1877,2.2909,2.2434,2.2277,2.1775,2.0964,2.0354,2.0015,1.9894,1.9611,1.9433,1.9411,1.9089,1.895,1.895,1.895,1.8957,1.8979,1.9294,1.9528,1.9711,1.9894,2.0062,2.0237,2.0237,2.0237,2.0237,2.0237,2.0237,2.023,2.0062,1.9974,1.9974,1.9974,1.9703,1.9199,1.9273,1.9519,1.9923,2.0589,2.102,2.1181,2.0574,2.0172,2.0003,1.8906,1.8043,1.7408,1.684,1.6035,1.4942,1.4253,1.3403,1.2478,1.1326,1.0348,0.0,0.0,0.0,0.0,0.0,0.0,0.0,0.0,0.0,0.0,0.0,0.9137,0.9319,0.9421,0.9478,0.9478,0.9474,0.9474,0.9283,0.9192,0.9036,0.8944,0.903,0.8991,0.9088,0.9232,0.9272,0.9271,0.9495,0.9572,0.9552,0.9085,0.8587,0.8153,0.7558,0.6932,0.6487,0.5594,0.4479,0.3586,0.2691,0.2132,0.1907,0.1795,0.1795,0.1795,0.1795,0.1795,0.1795,0.1795,0.1795,0.1795,0.1795,0.1795,0.18,0.1831,0.1857,0.1861,0.1884,0.1909,2.3634,2.3522,2.3213,2.2949,2.2531,2.149,2.091,2.0793,2.0428,2.0274,2.0216,1.9945,1.9828,1.982,1.982,1.982,1.9842,2.0157,2.0303,2.0296,2.034,2.0355,2.0362,2.0362,2.0362,2.0362,2.0362,2.0362,2.0362,2.0362,2.0362,2.0355,2.0362,2.0384,2.042,2.0428,2.0559,2.0845,2.1086,2.1211,2.1203,2.0574,2.0106,1.9798,1.8833,1.7978,1.7218,1.677,1.6116,1.5166,1.4364,1.3655,1.2858,1.1736,1.0701,0.0,0.9338,0.0,0.0,0.0,0.0,0.0,0.0,0.0,0.0,0.9198,0.9458,0.9612,0.9624,0.9624,0.9624,0.9624,0.9624,0.9624,0.9624,0.9624,0.9624,0.9624,0.9636,0.9657,0.9791,0.9794,0.9666,0.9918,0.9992,0.9827,0.9825,0.9684,0.9137,0.8364,0.7706,0.7265,0.6151,0.4704,0.3473,0.2691,0.2243,0.1907,0.1907,0.1795,0.1795,0.1795,0.1795,0.1795,0.1795,0.1795,0.1795,0.1795,0.1795,0.1795,0.1842,0.1882,0.1887,0.1913,0.1944,2.4298,2.3546,2.3467,2.3284,2.2893,2.243,2.1933,2.1466,2.1197,2.0707,2.023,2.0172,2.015,2.015,2.0142,2.0142,2.0164,2.0479,2.0633,2.064,2.0903,2.1028,2.1028,2.1028,2.1028,2.102,2.1028,2.1028,2.102,2.102,2.1028,2.1028,2.102,2.1159,2.1408,0.0,0.0,0.0,2.1313,2.1211,2.1189,2.0574,2.0208,2.012,1.895,0.0,1.7513,1.6882,1.6116,1.5172,1.4543,0.0,0.0,0.0,0.0,0.0,0.0,0.0,0.0,0.0,0.0,0.0,0.9125,0.9218,0.9254,0.9449,0.9592,0.9624,0.9624,0.9624,0.9624,0.9624,0.9624,0.9624,0.9624,0.9624,0.9624,0.9628,0.9677,0.9823,0.9868,1.0002,1.0168,1.0289,1.0377,1.0498,1.0562,1.0359,1.0029,0.9258,0.8374,0.7601,0.6154,0.4706,0.3699,0.3138,0.2691,0.2243,0.2132,0.2019,0.1907,0.1795,0.1795,0.1795,0.1795,0.1795,0.1795,0.1795,0.1795,0.1795,0.1843,0.1885,0.1887,0.193,0.197,2.4746,0.0,2.3689,2.3443,0.0,2.298,2.257,2.2108,2.1609,2.1212,2.072,2.072,2.072,2.0713,2.0713,2.0713,2.072,2.0889,2.0962,2.0976,2.113,2.1211,2.1211,2.1211,2.1211,2.1211,2.1211,2.1211,2.1211,2.1211,2.1291,2.1452,2.1452,2.1606,2.1928,2.1942,2.1862,2.1708,2.1533,2.1379,2.1203,2.0728,2.0325,1.9996,0.0,0.0,0.0,0.0,0.0,0.0,0.0,0.0,0.0,0.0,0.0,1.1022,1.0259,0.9744,0.9469,0.9283,0.9137,0.9222,0.9388,0.949,0.949,0.9575,0.9624,0.9624,0.9624,0.9624,0.9624,0.9624,0.9624,0.9624,0.9624,0.9624,0.9636,0.9705,0.9786,0.9888,1.0046,1.0233,1.0408,1.0517,1.059,1.0676,1.0692,1.0582,1.0253,0.9592,0.8709,0.7601,0.6267,0.5154,0.437,0.3698,0.325,0.2803,0.258,0.2356,0.2019,0.2019,0.1907,0.1795,0.1795,0.1795,0.1795,0.1795,0.1795,0.1799,0.1832,0.1868,0.1883,0.1934,0.1977,2.5253,2.5019,2.421,2.3657,2.3514,2.3228,2.2843,2.257,0.0,0.0,0.0,2.1211,2.1211,2.1211,2.1211,2.1211,2.1211,2.1211,2.1211,2.1211,2.1211,2.1211,2.1218,2.1269,2.1298,2.1298,2.135,2.1379,2.1386,2.1379,2.1518,2.1759,2.1781,2.1942,2.2242,2.2315,2.2184,2.1869,2.1752,2.1569,2.1291,2.0918,2.0442,1.9864,1.9477,1.8775,1.7645,1.7357,1.6822,1.5999,1.5172,1.4461,1.367,1.2778,1.1908,1.1187,1.0459,0.991,0.9759,0.9473,0.9348,0.9486,0.9636,0.9693,0.9636,0.9624,0.9624,0.9624,0.9624,0.9624,0.9624,0.9624,0.9624,0.9624,0.9624,0.9636,0.9673,0.9795,0.9904,0.9998,1.0245,1.0448,1.0485,1.0603,1.0692,1.0692,1.0692,1.0696,1.0366,0.9706,0.8823,0.7487,0.6487,0.571,0.5041,0.437,0.3699,0.325,0.3027,0.2693,0.2356,0.2244,0.2132,0.1907,0.1795,0.1795,0.1795,0.1795,0.1795,0.1795,0.1819,0.185,0.1881,0.193,0.1967,2.5828,2.506,2.4954,2.433,2.3538,2.3491,2.3071,2.2578,2.2002,2.1554,2.1211,2.1211,2.1211,2.1211,2.1211,2.1211,2.1211,2.1211,2.1211,2.1211,2.1211,2.1211,2.1225,2.1503,2.1635,2.165,2.1906,2.2045,2.2045,2.2037,2.2074,2.2111,2.2118,2.2264,2.2557,2.2835,2.282,2.2491,2.1972,2.1672,2.162,2.1035,2.0552,2.0172,1.9594,1.8993,1.8282,1.7689,1.7223,1.6693,1.5658,1.4832,1.4231,1.3327,1.2515,1.2109,1.1297,1.086,1.0813,1.0322,1.0022,1.0046,1.0075,0.9961,0.9661,0.9624,0.9624,0.9628,0.9636,0.9624,0.9624,0.9624,0.9628,0.9632,0.9628,0.9685,0.9827,0.988,1.0018,1.0294,1.0391,1.0501,1.0619,1.0672,1.0692,1.0692,1.0692,1.0696,1.048,0.9702,0.8706,0.7712,0.6937,0.6267,0.5596,0.5041,0.448,0.3699,0.3475,0.3253,0.2693,0.2468,0.2244,0.2132,0.2019,0.1795,0.1795,0.1795,0.1795,0.1796,0.1819,0.1847,0.1877,0.1914,0.1946,2.6349,2.5819,2.5269,2.4762,2.4322,2.3705,2.3119,2.2585,2.2343,2.1896,2.1447,2.1325,2.1211,2.1211,2.1211,2.1211,2.1211,2.1211,2.1211,2.1225,2.1401,2.1481,2.1511,2.1943,2.2097,2.1972,2.2111,2.2184,2.2184,2.2184,2.2271,2.2418,2.2593,2.2754,2.2886,2.3032,2.304,2.2879,2.244,2.2037,2.1701,2.1408,2.1013,2.0516,2.0201,1.974,1.8875,1.849,1.795,1.722,1.6487,1.5706,1.5002,1.4096,1.3396,1.2796,1.1991,1.1415,1.0984,1.0473,1.016,1.016,1.016,1.0095,0.9937,0.9916,0.9876,0.9782,0.977,0.9726,0.964,0.9624,0.9665,0.9758,0.9766,0.9839,1.001,1.0132,1.0253,1.0412,1.0517,1.0603,1.0684,1.0692,1.0692,1.0692,1.0692,1.0696,1.0708,1.0147,0.9368,0.8484,0.7712,0.7049,0.6485,0.5819,0.5264,0.4592,0.4145,0.3699,0.3251,0.2915,0.2579,0.2244,0.2132,0.2019,0.1795,0.1795,0.1795,0.1796,0.1804,0.1827,0.1856,0.1897,0.1939,2.6692,2.6545,2.5666,2.5149,2.4883,2.3824,2.315,2.28,2.2609,2.2343,2.1896,2.1432,2.1325,2.1211,2.1211,2.1211,2.1211,2.1211,2.1211,2.124,2.1554,2.1708,2.1752,2.223,2.2421,2.2293,2.2352,2.2396,2.2396,2.2396,2.2506,2.2732,2.2981,2.3106,2.3106,2.3106,2.3106,2.3091,2.2857,2.2462,2.1928,2.1774,2.1415,2.0881,2.075,2.034,1.9557,1.9201,1.8622,1.795,1.7285,1.6504,1.5688,1.4814,1.3998,1.323,1.2511,1.1703,1.1111,1.0594,1.0282,1.0282,1.0282,1.0282,1.0278,1.0282,1.0184,0.9989,0.9949,0.9892,0.9795,0.9758,0.9803,0.9933,0.9949,1.0026,1.0201,1.0351,1.0456,1.0493,1.0615,1.0688,1.0692,1.0692,1.0692,1.0692,1.0692,1.0696,1.0704,1.048,0.9923,0.9364,0.8484,0.7712,0.7376,0.671,0.5931,0.5592,0.4704,0.4147,0.3699,0.3362,0.3026,0.2579,0.2244,0.2132,0.1907,0.1795,0.1795,0.1795,0.1797,0.1809,0.1849,0.1895,0.1939,2.6822,2.6579,2.6156,2.5473,2.4627,2.3567,2.3268,2.3344,2.2694,2.2441,2.248,2.1896,2.1454,2.1211,2.1211,2.1211,2.1211,2.1211,2.1211,2.1254,2.1547,2.1701,2.1781,2.2308,2.2586,2.2615,2.2857,2.2959,2.2967,2.2988,2.3025,2.3069,2.3098,2.3106,2.3106,2.3106,2.3106,2.3106,2.3076,2.2893,2.2528,2.1993,2.1525,2.1174,2.0881,2.0545,2.0142,1.9542,1.9263,1.9056,1.7908,1.6909,1.6266,1.5234,1.4282,1.3451,1.2831,1.2065,1.1159,1.0862,1.0627,1.0643,1.0623,1.0623,1.0627,1.0631,1.0497,1.0229,1.014,1.0123,1.0115,1.0091,1.0091,1.0123,1.0136,1.0205,1.0371,1.0424,1.0493,1.0655,1.0676,1.0692,1.0692,1.0692,1.0692,1.0692,1.0692,1.0692,1.0696,1.0476,1.0366,1.0033,0.9368,0.8481,0.7817,0.7374,0.6596,0.5706,0.515,0.4594,0.4147,0.3587,0.3026,0.2914,0.2578,0.2243,0.2132,0.2019,0.1795,0.1795,0.1799,0.1812,0.1866,0.1905,0.1937,2.7073,2.683,2.6571,2.5877,2.4916,2.4245,2.3897,2.3832,2.3565,2.3168,2.2889,2.2651,2.22,2.1447,2.1325,2.1211,2.1211,2.1211,2.132,2.1518,2.1832,2.2081,2.2286,2.2689,2.2915,2.2915,2.3047,2.3106,2.3106,2.3106,2.3106,2.3106,2.3106,2.3106,2.3106,2.3106,2.3106,2.3106,2.3106,2.304,2.2879,2.2476,2.2008,2.1547,2.1364,2.1042,2.0581,2.0281,1.983,1.9363,1.8646,1.7898,1.7101,1.6149,1.5305,1.4338,1.2954,1.2022,1.145,1.0911,1.0692,1.0692,1.0692,1.0692,1.0692,1.0692,1.0623,1.0501,1.0383,1.0286,1.0184,1.016,1.0201,1.0294,1.0322,1.0391,1.0566,1.0586,1.0623,1.0684,1.0692,1.0692,1.0692,1.0692,1.0692,1.0692,1.0692,1.0692,1.0692,1.0582,1.0586,1.0472,1.0033,0.9368,0.8589,0.7928,0.7374,0.6596,0.5706,0.5039,0.4594,0.4035,0.3587,0.325,0.2914,0.2579,0.2244,0.2132,0.2019,0.1907,0.1797,0.1813,0.1874,0.1896,0.1922,2.7081,2.7073,2.67,2.6064,2.5214,2.486,2.4556,2.4198,2.4094,2.3794,2.3356,2.334,2.286,2.216,2.1643,2.1369,2.1342,2.1342,2.1518,2.184,2.2154,2.2418,2.2645,2.2952,2.3106,2.3106,2.3106,2.3106,2.3106,2.3106,2.3106,2.3106,2.3106,2.3106,2.3106,2.3106,2.3106,2.3106,2.3106,2.3106,2.3069,2.2879,2.2462,2.1891,2.1745,2.143,2.0881,2.0772,2.0405,1.9729,1.929,1.8656,1.7842,1.6964,1.5869,1.4617,1.298,1.1896,1.1568,1.1021,1.0692,1.0692,1.0692,1.0692,1.0692,1.0692,1.0692,1.0672,1.0574,1.0444,1.0339,1.0306,1.0371,1.0489,1.0505,1.0562,1.0672,1.0692,1.0688,1.0692,1.0692,1.0692,1.0692,1.0692,1.0692,1.0692,1.0692,1.0692,1.0692,1.0692,1.0692,1.0692,1.0476,1.0029,0.9254,0.8595,0.8042,0.7263,0.6374,0.5594,0.5041,0.4482,0.3926,0.3587,0.325,0.2914,0.2468,0.2356,0.2132,0.1908,0.1802,0.1823,0.1875,0.1889,0.192,2.7081,2.7073,2.6692,2.6197,2.5554,2.523,2.4948,2.4539,2.4229,2.4063,2.4039,2.3669,2.3543,2.3332,2.2198,2.1732,2.165,2.1672,2.1854,2.2162,2.2454,2.2608,2.2637,2.2952,2.3106,2.3106,2.3106,2.3106,2.3106,2.3106,2.3106,2.3106,2.3106,2.3106,2.3106,2.3106,2.3106,2.3106,2.3106,2.3106,2.3106,2.3091,2.2769,2.2198,2.1862,2.1554,2.1203,2.0896,2.0698,2.0676,1.9818,1.9083,1.8488,1.736,1.5825,1.4007,1.2659,1.1896,1.1568,1.1017,1.0692,1.0692,1.0692,1.0692,1.0692,1.0692,1.0692,1.0692,1.0672,1.0647,1.0635,1.0603,1.0627,1.0651,1.0668,1.0676,1.0688,1.0692,1.0692,1.0692,1.0692,1.0692,1.0692,1.0692,1.0692,1.0692,1.0692,1.0692,1.0692,1.0692,1.0692,1.0692,1.0692,1.0472,0.9812,0.9151,0.8481,0.7814,0.7038,0.604,0.5371,0.4704,0.4258,0.3813,0.3475,0.3139,0.2692,0.2468,0.2132,0.1914,0.182,0.1847,0.1879,0.1909,0.1939,2.7081,2.7081,2.67,2.6449,2.6197,2.5708,2.5286,2.5156,2.4907,2.4595,2.4412,2.4269,2.4023,2.3551,2.3091,2.2701,2.2342,2.212,2.2176,2.2447,2.2571,2.2732,2.2937,2.3062,2.3106,2.3106,2.3106,2.3106,2.3106,2.3106,2.3106,2.3106,2.3106,2.3106,2.3106,2.3106,2.3106,2.3106,2.3106,2.3106,2.3106,2.3106,2.2901,2.2476,2.2162,2.1854,2.1533,2.1203,2.094,2.0735,2.0262,1.9729,1.8995,1.7476,1.5805,1.4396,1.3168,1.2332,1.1673,1.1008,1.0684,1.0692,1.0692,1.0692,1.0692,1.0692,1.0692,1.0692,1.0692,1.0692,1.0692,1.0692,1.0692,1.0692,1.0692,1.0692,1.0692,1.0692,1.0692,1.0692,1.0692,1.0692,1.0692,1.0692,1.0692,1.0692,1.0692,1.0692,1.0692,1.0692,1.0692,1.0692,1.0692,1.0582,1.0472,0.9702,0.893,0.8371,0.7703,0.6818,0.604,0.515,0.4594,0.4036,0.3587,0.3251,0.2806,0.2244,0.202,0.1917,0.1824,0.1856,0.1879,0.1916,0.1945,2.7081,2.7081,2.6822,2.67,2.6579,2.6083,2.5733,2.561,2.5357,2.5098,2.4778,2.4746,2.449,2.4053,2.4029,2.3669,2.3172,2.2743,2.2612,2.2762,2.2784,2.2893,2.3069,2.3106,2.3106,2.3106,2.3106,2.3106,2.3106,2.3106,2.3106,2.3106,2.3106,2.3106,2.3106,2.3106,2.3106,2.3106,2.3106,2.3106,2.3106,2.3106,2.301,2.2769,2.2484,2.2125,2.1715,2.1481,2.1211,2.0933,2.0634,2.004,1.907,1.7436,1.5853,1.4727,1.3724,1.2755,1.1851,1.1126,1.0765,1.0773,1.072,1.0692,1.0692,1.0692,1.0692,1.0692,1.0692,1.0692,1.0692,1.0692,1.0692,1.0692,1.0692,1.0692,1.0692,1.0692,1.0692,1.0692,1.0692,1.0692,1.0692,1.0692,1.0692,1.0692,1.0692,1.0692,1.0692,1.0692,1.0692,1.0692,1.0692,1.0692,1.0582,1.0036,0.9485,0.8927,0.8149,0.7374,0.6599,0.571,0.4817,0.4258,0.3811,0.3365,0.2805,0.2244,0.1913,0.1808,0.1838,0.1873,0.1899,0.1927,0.1953,2.7081,2.7081,2.7081,2.6943,2.6692,2.6571,2.6205,2.5725,2.561,2.5333,2.5162,2.5079,2.5024,2.4925,2.4608,2.4432,2.397,2.336,2.3152,2.3047,2.3069,2.3069,2.3106,2.3106,2.3106,2.3106,2.3106,2.3106,2.3106,2.3106,2.3106,2.3106,2.3106,2.3106,2.3106,2.3106,2.3106,2.3106,2.3106,2.3106,2.3106,2.3106,2.3091,2.3047,2.2776,2.2359,2.1781,2.1701,2.1525,2.1254,2.0938,1.9995,1.8684,1.7385,1.6233,1.4993,1.4076,1.3041,1.221,1.1255,1.0952,1.0948,1.0814,1.0745,1.0737,1.0724,1.0712,1.0692,1.0692,1.0692,1.0692,1.0692,1.0692,1.0692,1.0692,1.0692,1.0692,1.0692,1.0692,1.0692,1.0692,1.0692,1.0692,1.0692,1.0692,1.0692,1.0692,1.0692,1.0692,1.0692,1.0692,1.0692,1.0692,1.0692,1.0582,1.0476,0.9926,0.9485,0.8598,0.7709,0.7046,0.6158,0.515,0.448,0.3811,0.3365,0.2922,0.225,0.1928,0.1828,0.1861,0.1889,0.1915,0.1939,0.196,2.7081,2.7081,2.7081,2.7073,2.6952,2.67,2.6457,2.6222,2.5855,2.5602,2.5357,2.5234,2.5103,2.5111,2.4988,2.4734,2.4479,2.4001,2.3514,2.3216,2.3106,2.3106,2.3106,2.3106,2.3106,2.3106,2.3106,2.3106,2.3106,2.3106,2.3106,2.3106,2.3106,2.3106,2.3106,2.3106,2.3106,2.3106,2.3106,2.3106,2.3106,2.3106,2.3106,2.3098,2.3003,2.2747,2.2345,2.1928,2.1664,2.1547,2.1212,2.0451,1.9044,1.7786,1.6509,1.5571,1.4521,1.3412,1.2598,1.1977,1.1477,1.1245,1.1082,1.0997,1.0903,1.0883,1.083,1.0729,1.0692,1.0692,1.0692,1.0692,1.0696,1.0692,1.0692,1.0692,1.0692,1.0692,1.0692,1.0692,1.0692,1.0692,1.0692,1.0692,1.0692,1.0692,1.0692,1.0692,1.0692,1.0692,1.0692,1.0692,1.0692,1.0692,1.0692,1.0582,1.0253,0.9702,0.893,0.8045,0.7382,0.6492,0.5596,0.4596,0.3926,0.3374,0.2815,0.2381,0.2176,0.1852,0.1882,0.1907,0.1928,0.1949,0.1969,2.7081,2.7081,2.7081,2.7081,2.7081,2.6822,2.6692,2.6571,2.6214,2.5855,2.561,2.5365,2.5234,2.5111,2.5103,2.4857,2.461,2.4355,2.3984,2.3355,2.3106,2.3106,2.3106,2.3106,2.3106,2.3106,2.3106,2.3106,2.3106,2.3106,2.3106,2.3106,2.3106,2.3106,2.3106,2.3106,2.3106,2.3106,2.3106,2.3106,2.3106,2.3106,2.3106,2.3106,2.3106,2.3003,2.2776,2.2308,2.1935,2.1701,2.1155,2.0392,1.9312,1.8012,1.6774,1.5815,1.4792,1.3776,1.2817,1.2418,1.2018,1.1433,1.1261,1.1179,1.1082,1.1066,1.0997,1.0915,1.0899,1.0863,1.0814,1.0794,1.0769,1.0696,1.0692,1.0692,1.0692,1.0692,1.0692,1.0692,1.0692,1.0692,1.0692,1.0692,1.0692,1.0692,1.0692,1.0692,1.0692,1.0692,1.0692,1.0696,1.0692,1.0692,1.0692,1.0582,1.0472,0.9809,0.9147,0.8377,0.7718,0.6717,0.5712,0.4722,0.3941,0.3293,0.2734,0.2536,0.2213,0.212,0.1904,0.1925,0.1947,0.196,0.1976,2.7081,2.7081,2.7081,2.7081,2.7081,2.7081,2.6952,2.6692,2.6571,2.6214,2.5733,2.561,2.5357,2.5103,2.5103,2.498,2.4734,2.461,2.4232,2.3736,2.3355,2.3106,2.3106,2.3106,2.3106,2.3106,2.3106,2.3106,2.3106,2.3106,2.3106,2.3106,2.3106,2.3106,2.3106,2.3106,2.3106,2.3106,2.3106,2.3106,2.3106,2.3106,2.3106,2.3106,2.3106,2.3098,2.3018,2.2667,2.2235,2.1627,2.0786,2.0033,1.9216,1.8169,1.6862,1.5806,1.4997,1.4009,1.3025,1.2539,1.222,1.1622,1.139,1.124,1.1248,1.124,1.1216,1.1167,1.1167,1.1126,1.1009,1.098,1.0907,1.0765,1.0724,1.07,1.0692,1.0692,1.0692,1.0692,1.0692,1.0692,1.0692,1.0692,1.07,1.0729,1.0737,1.0745,1.0745,1.0753,1.0712,1.07,1.0696,1.0692,1.0692,1.0692,1.0472,0.9938,0.9175,0.8533,0.7636,0.6519,0.5747,0.4747,0.3986,0.3327,0.2891,0.269,0.2363,0.2149,0.2049,0.1947,0.196,0.1972,0.1976,2.7081,2.7081,2.7081,2.7081,2.7081,2.7081,2.7073,2.6952,2.67,2.6327,2.5961,2.5725,2.548,2.5111,2.5103,2.498,2.4857,2.4734,2.461,2.4232,2.3736,2.3355,2.3106,2.3106,2.3106,2.3106,2.3106,2.3106,2.3106,2.3106,2.3106,2.3106,2.3106,2.3106,2.3106,2.3106,2.3106,2.3106,2.3106,2.3106,2.3106,2.3106,2.3106,2.3106,2.3106,2.3106,2.3054,2.2586,2.1998,2.1349,2.0533,1.9795,1.8984,1.8058,1.7009,1.6065,1.5121,1.4172,1.3315,1.2791,1.241,1.1823,1.163,1.1573,1.1435,1.1427,1.1358,1.1269,1.122,1.1216,1.1167,1.1151,1.1114,1.1066,1.0871,1.0724,1.0716,1.0692,1.0692,1.0692,1.0708,1.072,1.0724,1.0729,1.0769,1.0863,1.0895,1.0899,1.0895,1.0891,1.0879,1.0741,1.07,1.0696,1.0692,1.0692,1.048,0.9953,0.9213,0.8495,0.7252,0.5897,0.5236,0.4458,0.4057,0.351,0.3176,0.2964,0.2634,0.2298,0.2192,0.2087,0.1969,0.1977,0.1977,2.7081,2.7081,2.7081,2.7081,2.7081,2.7081,2.7081,2.7073,2.6952,2.6571,2.6319,2.5961,2.5602,2.5357,2.5111,2.5103,2.5111,2.4857,2.4734,2.4479,2.386,2.3487,2.3113,2.3106,2.3106,2.3106,2.3106,2.3106,2.3106,2.3106,2.3106,2.3106,2.3106,2.3106,2.3106,2.3106,2.3106,2.3106,2.3106,2.3106,2.3106,2.3106,2.3106,2.3106,2.3106,2.3106,2.304,2.263,2.2042,2.137,2.067,1.9795,1.91,1.8058,1.7126,1.6177,1.5121,1.4291,1.3564,1.296,1.2483,1.2005,1.1893,1.1727,1.1638,1.1614,1.1549,1.1488,1.1455,1.1415,1.1338,1.1277,1.1228,1.1183,1.1155,1.1036,1.0919,1.0932,1.0919,1.0915,1.0915,1.0915,1.0911,1.0911,1.096,1.1041,1.1074,1.1074,1.1074,1.107,1.1037,1.0919,1.0871,1.0907,1.0923,1.0923,1.0595,1.0032,0.8911,0.816,0.7146,0.565,0.5082,0.454,0.4129,0.3812,0.3468,0.3126,0.2914,0.2571,0.2339,0.2097,0.2099,0.1977,0.1977,2.7081,2.7081,2.7081,2.7081,2.7081,2.7081,2.7081,2.7081,2.7081,2.683,2.6571,2.6319,2.5961,2.561,2.5365,2.5103,2.5103,2.5103,2.4857,2.4487,2.3991,2.3487,2.323,2.3106,2.3106,2.3106,2.3106,2.3106,2.3106,2.3106,2.3106,2.3106,2.3106,2.3106,2.3106,2.3106,2.3106,2.3106,2.3106,2.3106,2.3106,2.3106,2.3106,2.3106,2.3106,2.3106,2.3025,2.2754,2.2359,2.1715,2.0864,1.9993,1.9243,1.8058,1.712,1.6177,1.5121,1.4291,1.3688,1.3084,1.2599,1.2242,1.1889,1.1776,1.1752,1.1744,1.1732,1.1707,1.1768,1.1663,1.1549,1.1386,1.1342,1.1342,1.1537,1.1525,1.1392,1.1248,1.122,1.122,1.1212,1.122,1.122,1.1224,1.122,1.1236,1.1256,1.1256,1.1256,1.1256,1.1216,1.1143,1.1143,1.1179,1.1183,1.1183,1.0735,1.0051,0.8543,0.7638,0.6972,0.5911,0.5189,0.4621,0.4196,0.3861,0.3632,0.3415,0.3194,0.2832,0.2466,0.2221,0.2099,0.1977,0.1977,2.7081,2.7081,2.7081,2.7081,2.7081,2.7081,2.7081,2.7081,2.7081,2.6952,2.67,2.6571,2.6214,2.5619,2.5488,2.5357,2.5111,2.5111,2.4857,2.461,2.4232,2.386,2.3479,2.323,2.3106,2.3106,2.3106,2.3106,2.3106,2.3128,2.3113,2.3128,2.3186,2.312,2.3149,2.3193,2.3113,2.3113,2.312,2.3128,2.3106,2.3106,2.3106,2.3106,2.3106,2.3106,2.3047,2.2791,2.2442,2.1968,2.1194,2.022,1.9076,1.8071,1.7009,1.6059,1.5121,1.4291,1.3693,1.3084,1.2599,1.2238,1.201,1.1776,1.1776,1.1776,1.1776,1.1776,1.1772,1.1748,1.1699,1.1675,1.1622,1.1606,1.1737,1.1749,1.1606,1.1407,1.1277,1.1248,1.1252,1.1228,1.1236,1.1265,1.1309,1.1403,1.1439,1.1439,1.1439,1.1439,1.1403,1.135,1.1338,1.1358,1.1245,1.1133,1.0453,0.9884,0.8476,0.7303,0.6621,0.5906,0.5161,0.4701,0.4258,0.4031,0.3667,0.3555,0.3329,0.3083,0.2715,0.2472,0.2228,0.2103,0.199,2.7081,2.7081,2.7081,2.7081,2.7081,2.7081,2.7081,2.7081,2.7081,2.6952,2.6822,2.67,2.6336,2.6092,2.5733,2.5488,2.5357,2.5111,2.4988,2.4734,2.4355,2.3984,2.3736,2.3355,2.3106,2.3106,2.3106,2.3106,2.3135,2.3259,2.3354,2.3362,2.3471,2.3603,2.3559,2.3545,2.3493,2.3369,2.334,2.3281,2.3135,2.3106,2.3106,2.3106,2.3106,2.3106,2.3084,2.2959,2.253,2.2097,2.1334,2.0346,1.9004,1.7781,1.6891,1.5946,1.5126,1.4416,1.3933,1.3204,1.2599,1.2479,1.201,1.1893,1.1776,1.1776,1.1776,1.1776,1.1776,1.1776,1.1776,1.1772,1.1776,1.1776,1.1776,1.1776,1.1744,1.1598,1.1484,1.1484,1.1508,1.15,1.1484,1.1431,1.1476,1.1602,1.1614,1.1618,1.163,1.1626,1.1602,1.1565,1.1529,1.152,1.1402,1.094,1.0133,0.9317,0.8254,0.7299,0.6593,0.5857,0.5117,0.477,0.4416,0.4057,0.3816,0.3702,0.3579,0.3332,0.2965,0.2602,0.2364,0.2125,0.2142,2.7081,2.7081,2.7081,2.7081,2.7081,2.7081,2.7081,2.7081,2.7081,2.7081,2.7081,2.6822,2.67,2.6457,2.5978,2.561,2.548,2.5234,2.5111,2.498,2.4487,2.4232,2.3984,2.3487,2.323,2.3106,2.3106,2.312,2.3267,2.3442,2.3574,2.3684,2.391,2.3969,2.4035,2.4057,2.3903,2.3698,2.3581,2.3464,2.3237,2.3164,2.3106,2.3106,2.3106,2.3106,2.3106,2.2937,2.2726,2.2096,2.143,2.0272,1.8911,1.769,1.6549,1.5612,1.4888,1.4416,1.4057,1.3329,1.2724,1.2719,1.2251,1.1897,1.1776,1.1776,1.1776,1.1776,1.1776,1.1776,1.1776,1.1776,1.1776,1.1776,1.1776,1.1776,1.1776,1.1776,1.1736,1.1736,1.1683,1.1663,1.1691,1.1679,1.174,1.1776,1.1776,1.1776,1.1776,1.1768,1.1719,1.1703,1.1658,1.1515,1.1395,1.0789,1.0102,0.9029,0.7969,0.7248,0.6523,0.5896,0.5149,0.4795,0.4438,0.4196,0.395,0.3826,0.3703,0.3457,0.3226,0.2745,0.2511,0.2274,0.217,2.7081,2.7081,2.7081,2.7081,2.7081,2.7081,2.7081,2.7081,2.7081,2.7081,2.7081,2.7073,2.6822,2.6571,2.6197,2.5717,2.5357,2.5103,2.5103,2.4988,2.461,2.4355,2.3984,2.3611,2.3362,2.3106,2.3142,2.3267,2.3442,2.3581,2.3808,2.3976,2.4108,2.4145,2.4166,2.4093,2.4137,2.3998,2.3823,2.364,2.3449,2.3237,2.3106,2.3106,2.3106,2.3106,2.2981,2.2863,2.2334,2.1637,2.0788,1.9754,1.842,1.7445,1.6451,1.5698,1.4835,1.438,1.413,1.3606,1.2973,1.2719,1.2397,1.2039,1.1918,1.1784,1.1797,1.1776,1.1776,1.1776,1.1776,1.1776,1.1776,1.1776,1.1776,1.1776,1.1776,1.1776,1.1776,1.1776,1.1776,1.1776,1.1776,1.1776,1.1776,1.1776,1.1776,1.1776,1.1776,1.1776,1.176,1.1756,1.1756,1.1623,1.1374,1.0638,0.9916,0.8818,0.7861,0.7131,0.6403,0.5788,0.5298,0.4933,0.4564,0.4195,0.4071,0.395,0.3836,0.3595,0.3245,0.2893,0.2667,0.2307,0.2071,2.7081,2.7081,2.7081,2.7081,2.7081,2.7081,2.7081,2.7081,2.7081,2.7081,2.7081,2.7081,2.7073,2.6822,2.6571,2.5961,2.548,2.5103,2.5103,2.498,2.4734,2.4355,2.4108,2.3736,2.3487,2.3282,2.3274,2.3427,2.3625,2.3976,2.4145,2.4327,2.4488,2.4583,2.4591,2.4613,2.4481,2.4349,2.4312,2.4054,2.3603,2.3281,2.3135,2.3106,2.3106,2.2981,2.2856,2.2738,2.2237,2.1328,2.0585,1.9563,1.8256,1.7196,1.6199,1.5523,1.4856,1.4372,1.4255,1.3764,1.34,1.3027,1.2763,1.2406,1.2139,1.1979,1.1882,1.1805,1.1776,1.1776,1.1776,1.1776,1.1776,1.1776,1.1776,1.1776,1.1776,1.1776,1.1776,1.1776,1.1776,1.1776,1.1776,1.1776,1.1776,1.1776,1.1776,1.1776,1.1776,1.1776,1.1776,1.1772,1.1651,1.1304,1.0936,1.0218,0.9513,0.8529,0.7667,0.6931,0.6432,0.5824,0.5438,0.4933,0.4687,0.434,0.4073,0.3952,0.3844,0.3739,0.3268,0.2919,0.2701,0.2473,0.2232,2.7081,2.7081,2.7081,2.7081,2.7081,2.7081,2.7081,2.7081,2.7081,2.7081,2.7081,2.7081,2.7081,2.6952,2.6579,2.6083,2.561,2.5234,2.5103,2.4988,2.4857,2.4487,2.4108,2.3867,2.3531,2.331,2.3552,2.3691,2.383,2.4232,2.454,2.4693,2.4942,2.5052,2.5008,2.4949,2.4862,2.4893,2.4864,2.4523,2.3698,2.3354,2.3164,2.3113,2.3113,2.2856,2.2613,2.2362,2.1734,2.0976,2.0176,1.9345,1.8162,1.6976,1.5996,1.5458,1.4997,1.4572,1.4298,1.4029,1.3738,1.3229,1.3022,1.2662,1.2389,1.2134,1.202,1.1874,1.1837,1.1813,1.1788,1.1776,1.1776,1.1776,1.1776,1.1776,1.1776,1.1776,1.1776,1.1776,1.1776,1.1788,1.1801,1.1776,1.1776,1.1776,1.1776,1.1776,1.1776,1.1776,1.1772,1.1647,1.1413,1.0951,1.0365,0.9658,0.8971,0.803,0.7281,0.6661,0.6264,0.6,0.5491,0.5122,0.4881,0.4647,0.4238,0.3974,0.3881,0.3782,0.3297,0.3075,0.286,0.2631,0.2258,2.7081,2.7081,2.7081,2.7081,2.7081,2.7081,2.7081,2.7081,2.7081,2.7081,2.7081,2.7081,2.7081,2.6952,2.6449,2.5961,2.5602,2.5234,2.5103,2.5111,2.498,2.461,2.4232,2.4108,2.3783,2.3605,2.383,2.4005,2.4123,2.4423,2.473,2.4942,2.4993,2.5059,2.5059,2.5059,2.5037,2.4949,2.4856,2.4407,2.3749,2.3567,2.3369,2.3083,2.2863,2.2606,2.2362,2.1734,2.0976,2.0208,1.9577,1.867,1.7619,1.6845,1.6322,1.5787,1.5067,1.4317,1.4355,1.4257,1.4005,1.3505,1.3226,1.2939,1.2569,1.2308,1.2199,1.202,1.2004,1.1959,1.187,1.1809,1.1788,1.1817,1.1857,1.1837,1.1825,1.1922,1.1906,1.1886,1.1922,1.187,1.1841,1.1805,1.1776,1.1776,1.178,1.1797,1.1829,1.1874,1.1764,1.1662,1.1183,1.0591,0.9992,0.9141,0.8429,0.7623,0.6995,0.6493,0.6221,0.6082,0.5736,0.536,0.5103,0.4712,0.4312,0.4055,0.4065,0.3835,0.3482,0.3254,0.3154,0.2657,0.2145,2.7081,2.7081,2.7081,2.7081,2.7081,2.7081,2.7081,2.7081,2.7081,2.7081,2.7081,2.7081,2.7081,2.696,2.6449,2.6075,2.5839,2.5349,2.5111,2.5103,2.498,2.4741,2.4232,2.3984,2.3768,2.3753,2.3918,2.4196,2.4379,2.4657,2.4942,2.5022,2.5059,2.5059,2.5059,2.5059,2.5059,2.4957,2.4737,2.4444,2.413,2.3808,2.3403,2.3131,2.2706,2.2258,2.1734,2.1235,2.0348,1.9577,1.881,1.8168,1.7394,1.6748,1.6099,1.5949,1.5168,1.4681,1.4676,1.4652,1.4249,1.3873,1.3602,1.3341,1.2747,1.2446,1.2381,1.2207,1.2186,1.2138,1.2085,1.2081,1.2077,1.2069,1.2024,1.2036,1.204,1.2077,1.2113,1.2089,1.206,1.202,1.1963,1.189,1.1894,1.1935,1.1959,1.1987,1.1929,1.188,1.188,1.174,1.0999,1.0259,0.9519,0.8655,0.7901,0.7184,0.6801,0.6293,0.6293,0.6044,0.5822,0.5556,0.5271,0.4753,0.4249,0.4119,0.4115,0.3894,0.3544,0.3301,0.3053,0.2669,0.2286,2.7081,2.7081,2.7081,2.7081,2.7081,2.7081,2.7081,2.7081,2.7081,2.7081,2.7081,2.7081,2.7081,2.6952,2.6571,2.6197,2.6067,2.5472,2.5234,2.5111,2.498,2.4734,2.4355,2.3991,2.3938,2.3833,2.3962,2.4305,2.4671,2.4905,2.503,2.5059,2.5059,2.5059,2.5059,2.5059,2.5059,2.503,2.4847,2.4664,2.4466,2.3963,2.3422,2.2936,2.2483,2.1809,2.0989,2.0348,1.9711,1.8938,1.8302,1.7787,1.7265,1.6494,1.6104,1.5839,1.526,1.4879,1.4874,1.4749,1.4534,1.4141,1.3608,1.3257,1.2791,1.2629,1.2556,1.2385,1.2369,1.2345,1.2312,1.2288,1.2259,1.2247,1.2259,1.2292,1.2308,1.2284,1.2251,1.2207,1.2199,1.2235,1.2154,1.2028,1.2016,1.2081,1.213,1.2178,1.1988,1.1941,1.1534,1.1373,1.0601,0.9865,0.9029,0.8274,0.7381,0.6877,0.6492,0.6377,0.6268,0.6145,0.6033,0.5747,0.5327,0.4836,0.4344,0.4185,0.4165,0.395,0.3723,0.3332,0.2945,0.2554,0.229,2.7081,2.7081,2.7081,2.7081,2.7081,2.7081,2.7081,2.7081,2.7081,2.7081,2.7081,2.7081,2.7081,2.6952,2.67,2.6319,2.6075,2.5725,2.5357,2.5111,2.5103,2.4857,2.4479,2.4184,2.4147,2.4267,2.4194,2.4423,2.4862,2.4971,2.5052,2.5059,2.5059,2.5059,2.5059,2.5059,2.5059,2.5052,2.4971,2.4832,2.4538,2.4019,2.3527,2.2713,2.191,2.1133,2.0234,1.9584,1.8938,1.8168,1.7787,1.74,1.7007,1.6359,1.5969,1.5839,1.5323,1.4931,1.4936,1.48,1.4534,1.401,1.335,1.2955,1.2775,1.28,1.2718,1.2572,1.2552,1.2487,1.2398,1.2316,1.2393,1.2414,1.2446,1.2442,1.2438,1.2406,1.2373,1.2324,1.2349,1.2418,1.2434,1.2324,1.2231,1.2288,1.223,1.2151,1.1872,1.1788,1.1115,1.0703,1.0045,0.9319,0.8505,0.7877,0.7234,0.6865,0.6617,0.651,0.6404,0.6271,0.6237,0.5717,0.5304,0.4942,0.4555,0.4379,0.4233,0.4143,0.3899,0.3355,0.2952,0.2422,0.2289,2.7081,2.7081,2.7081,2.7081,2.7081,2.7081,2.7081,2.7081,2.7081,2.7081,2.7081,2.7081,2.7081,2.6952,2.67,2.6449,2.6075,2.5717,2.548,2.5234,2.5103,2.4857,2.4602,2.4285,2.4079,2.4269,2.4242,2.4284,2.4701,2.4949,2.5044,2.5059,2.5059,2.5059,2.5059,2.5059,2.5059,2.5059,2.5059,2.4964,2.4473,2.3968,2.3238,2.2529,2.1371,2.0611,1.9684,1.8881,1.8191,1.7781,1.7394,1.7136,1.7007,1.6359,1.6099,1.5974,1.5323,1.4931,1.4936,1.48,1.4539,1.401,1.3227,1.2836,1.2836,1.2836,1.2816,1.2751,1.2722,1.2649,1.2653,1.2633,1.2657,1.2637,1.2617,1.2601,1.2584,1.256,1.256,1.254,1.2596,1.267,1.2666,1.2641,1.2552,1.2495,1.2439,1.2228,1.1804,1.1401,1.0732,1.0078,0.942,0.8785,0.7949,0.7453,0.7075,0.6831,0.6587,0.6587,0.6453,0.6451,0.6293,0.578,0.5247,0.4973,0.4564,0.4419,0.4288,0.4167,0.3768,0.3093,0.269,0.2425,0.2294,2.7081,2.7081,2.7081,2.7081,2.7081,2.7081,2.7081,2.7081,2.7081,2.7081,2.7081,2.7081,2.7081,2.7073,2.683,2.6449,2.6205,2.5839,2.548,2.5234,2.5103,2.498,2.4602,2.4278,2.4033,2.4112,2.4183,2.4269,2.4613,2.4905,2.5022,2.5059,2.5059,2.5059,2.5059,2.5059,2.5059,2.4916,2.4916,2.4638,2.4174,2.3628,2.2741,2.1988,2.0958,1.9885,1.9078,1.8381,1.7866,1.7427,1.7136,1.7001,1.6742,1.6488,1.6099,1.5714,1.5323,1.4936,1.4931,1.467,1.4408,1.3879,1.3227,1.2836,1.2836,1.2836,1.2824,1.2828,1.2824,1.2836,1.2836,1.2795,1.2779,1.2747,1.2751,1.2743,1.2751,1.2739,1.2759,1.2767,1.2808,1.2791,1.2648,1.262,1.2457,1.2393,1.2168,1.1818,1.1293,1.0892,1.0116,0.9453,0.8795,0.815,0.7512,0.7105,0.6831,0.6704,0.6587,0.6587,0.6453,0.6453,0.6185,0.5649,0.5247,0.4978,0.4571,0.4294,0.4297,0.4305,0.3636,0.2965,0.2565,0.2298,0.2307,2.7081,2.7081,2.7081,2.7081,2.7081,2.7081,2.7081,2.7081,2.7081,2.7081,2.7081,2.7081,2.7081,2.7073,2.7073,2.67,2.6197,2.6075,2.5709,2.5226,2.5103,2.5103,2.4849,2.4518,2.4237,2.4351,2.4305,2.437,2.4532,2.4891,2.5022,2.5059,2.4924,2.4924,2.5059,2.5059,2.4916,2.4638,2.4503,2.4088,2.3529,2.3086,2.2121,2.1299,2.033,1.9387,1.8553,1.7999,1.7593,1.7163,1.7007,1.7001,1.6872,1.6359,1.5969,1.5974,1.5323,1.4931,1.4805,1.4272,1.4006,1.3879,1.3227,1.2836,1.2836,1.2836,1.2836,1.2836,1.2836,1.2836,1.2836,1.2836,1.2836,1.2836,1.2836,1.2836,1.2836,1.2836,1.2836,1.2836,1.2836,1.27,1.27,1.2565,1.2297,1.2153,1.1901,1.1512,1.085,1.0187,0.9519,0.8848,0.8182,0.765,0.7118,0.6719,0.6585,0.6453,0.6453,0.6453,0.6319,0.6183,0.5915,0.5513,0.5111,0.4842,0.4575,0.4305,0.418,0.392,0.3511,0.2973,0.2437,0.2176,0.2191,2.7081,2.7081,2.7081,2.7081,2.7081,2.7081,2.7081,2.7081,2.7081,2.7081,2.7081,2.7081,2.7081,2.7081,2.7073,2.67,2.6197,2.6075,2.5709,2.5103,2.5103,2.5103,2.4857,2.4626,2.4308,2.428,2.4276,2.4253,2.424,2.4774,2.4887,2.4781,2.451,2.451,2.4638,2.4638,2.4503,2.4231,2.3952,2.3543,2.2996,2.2166,2.144,2.0646,1.9822,1.888,1.8134,1.7873,1.7402,1.7044,1.7001,1.7001,1.6872,1.6353,1.5969,1.5844,1.5323,1.4936,1.48,1.4403,1.3875,1.3617,1.3227,1.2836,1.2836,1.2836,1.2836,1.2836,1.2836,1.2836,1.2836,1.2836,1.2836,1.2836,1.2836,1.2836,1.2836,1.2836,1.2836,1.2836,1.2836,1.2572,1.2441,1.1912,1.1648,1.1387,1.1122,1.0581,0.9915,0.9386,0.872,0.8182,0.7514,0.7118,0.6719,0.6587,0.6453,0.6453,0.6453,0.6453,0.6319,0.6049,0.5781,0.5515,0.5111,0.4707,0.4442,0.418,0.3929,0.3531,0.3136,0.2868,0.2463,0.2206,0.2226,2.7081,2.7081,2.7081,2.7081,2.7081,2.7081,2.7081,2.7081,2.7081,2.7081,2.7081,2.7081,2.7081,2.7081,2.7073,2.67,2.6197,2.6075,2.5586,2.498,2.4857,2.4857,2.461,2.4487,2.4123,2.4049,2.4209,2.4223,2.3884,2.4618,2.4602,2.4095,2.3816,2.3543,2.3679,2.3679,2.3816,2.3406,2.2996,2.2585,2.2035,2.1346,2.0665,1.9912,1.9231,1.86,1.8176,1.7673,1.7335,1.7114,1.7001,1.7001,1.6742,1.6488,1.6104,1.5844,1.5323,1.4931,1.48,1.4272,1.3875,1.3875,1.3227,1.2836,1.2836,1.2836,1.2836,1.2836,1.2836,1.2836,1.2836,1.2836,1.2836,1.2836,1.2836,1.2836,1.2836,1.2836,1.2704,1.2704,1.2572,1.2309,1.1912,1.138,1.0982,1.0591,1.0329,0.9655,0.9114,0.8584,0.8053,0.7517,0.7116,0.6853,0.6587,0.6587,0.6453,0.6453,0.6453,0.6453,0.6319,0.6049,0.5783,0.5381,0.4978,0.4577,0.4313,0.4054,0.3677,0.3301,0.2914,0.2638,0.2217,0.2235,0.2259,2.7056,2.7073,2.7081,2.7081,2.7081,2.7081,2.7081,2.7081,2.7081,2.7081,2.7081,2.7081,2.7081,2.7073,2.7081,2.67,2.6083,2.5953,2.5464,2.4857,2.4602,2.4355,2.4108,2.386,2.3611,2.3702,2.3789,2.3739,2.3601,2.3785,2.3665,2.3406,2.2859,2.2448,2.231,2.2441,2.2578,2.231,2.1897,2.149,2.0937,2.0388,1.9825,1.9384,1.891,1.8391,1.7998,1.7653,1.74,1.7179,1.7001,1.7001,1.6748,1.6359,1.6104,1.5714,1.5192,1.5062,1.48,1.4277,1.401,1.3744,1.3227,1.2964,1.2836,1.2836,1.2836,1.2836,1.2836,1.2836,1.2836,1.2836,1.2836,1.2836,1.2836,1.2836,1.2836,1.2704,1.2704,1.2572,1.2177,1.1776,1.1111,1.0581,1.0054,0.9794,0.9398,0.8592,0.8053,0.7784,0.7388,0.7118,0.6853,0.6587,0.6453,0.6453,0.6453,0.6453,0.6453,0.6453,0.6185,0.6055,0.5649,0.5247,0.471,0.4315,0.4065,0.3817,0.3432,0.3052,0.2672,0.2535,0.2249,0.2271,0.2292,2.6824,2.7073,2.7081,2.7081,2.7081,2.7081,2.7081,2.7081,2.7081,2.7081,2.7081,2.7081,2.6952,2.67,2.6692,2.6327,2.5839,2.548,2.5103,2.461,2.41,2.386,2.3611,2.3362,2.3113,2.3119,2.3141,2.3112,2.2738,2.2842,2.2578,2.2173,2.176,2.1075,2.0937,2.0937,2.1075,2.1075,2.0804,2.0527,2.011,1.9692,1.9267,1.8988,1.8708,1.8302,1.7846,1.7728,1.7459,1.7103,1.7012,1.7001,1.7001,1.6359,1.5839,1.5192,1.4931,1.4936,1.4805,1.4272,1.3875,1.3744,1.3227,1.2836,1.2836,1.2836,1.2836,1.2836,1.2836,1.2836,1.2836,1.2836,1.2836,1.2836,1.2836,1.2704,1.2704,1.2572,1.2441,1.1909,1.1641,1.0979,1.018,0.9516,0.8987,0.8865,0.8331,0.766,0.7257,0.7121,0.6987,0.6719,0.6719,0.6453,0.6453,0.6453,0.6453,0.6453,0.6466,0.6478,0.6219,0.5947,0.5524,0.5127,0.461,0.422,0.3963,0.3578,0.3332,0.2954,0.2563,0.2422,0.2285,0.2302,0.2315,2.6414,2.6636,2.679,2.6927,2.7064,2.7081,2.7081,2.7081,2.7081,2.7081,2.7073,2.6952,2.6822,2.6571,2.6336,2.5847,2.5357,2.5103,2.4602,2.386,2.3604,2.3106,2.2856,2.2606,2.2237,2.2216,2.2298,2.2244,2.18,2.1442,2.1075,2.1075,2.0521,2.0104,1.9831,1.9831,1.9692,1.9831,1.9692,1.9692,1.9407,1.9128,1.8854,1.8714,1.8433,1.8159,1.7798,1.7728,1.7459,1.7087,1.7007,1.7001,1.6872,1.6359,1.5709,1.5062,1.4936,1.4936,1.48,1.4399,1.4137,1.3744,1.3223,1.2832,1.2836,1.2836,1.2836,1.2836,1.2836,1.2836,1.2836,1.2836,1.2836,1.2836,1.2704,1.2708,1.2572,1.2309,1.1776,1.1244,1.0578,0.9915,0.925,0.8584,0.8053,0.7925,0.766,0.7125,0.6855,0.6853,0.6721,0.6587,0.6587,0.6453,0.6457,0.6474,0.649,0.6504,0.6525,0.6533,0.6264,0.588,0.5486,0.5074,0.4661,0.4269,0.3875,0.3626,0.3238,0.2849,0.2586,0.2449,0.2308,0.2316,0.2326,2.5917,2.6003,2.6336,2.6705,2.7004,2.7047,2.7081,2.7081,2.7073,2.7073,2.6952,2.67,2.6457,2.6205,2.5847,2.5357,2.4857,2.4479,2.386,2.2988,2.2731,2.2355,2.1859,2.1488,2.1222,2.1203,2.112,2.1091,2.0718,2.0303,2.0027,1.9965,1.9686,1.9267,1.9133,1.8993,1.8993,1.8854,1.8993,1.8993,1.8848,1.8573,1.8433,1.8433,1.8374,1.8223,1.7857,1.7642,1.7502,1.7179,1.7001,1.7001,1.6748,1.6359,1.5709,1.5192,1.4936,1.4936,1.48,1.4403,1.4137,1.3744,1.3214,1.296,1.2836,1.2836,1.2836,1.2836,1.2836,1.2836,1.2836,1.2836,1.2836,1.2704,1.2572,1.2441,1.2045,1.1512,1.0843,1.018,0.9649,0.8984,0.8318,0.7653,0.7519,0.7254,0.6989,0.6587,0.6594,0.6591,0.66,0.6466,0.6457,0.6466,0.6494,0.6513,0.6541,0.656,0.6588,0.6475,0.6218,0.5839,0.5318,0.4875,0.457,0.4186,0.3932,0.3532,0.3269,0.2725,0.2457,0.2326,0.2333,0.2331,0.2332,2.5677,2.5977,2.6336,2.6551,2.6662,2.6944,2.6943,2.67,2.67,2.67,2.67,2.6319,2.5953,2.5472,2.5226,2.4734,2.3984,2.3604,2.3113,2.2487,2.1985,2.1607,2.1102,2.0469,2.0208,1.9973,1.9848,1.9831,1.9681,1.9226,1.9093,1.9245,1.8966,1.8681,1.8573,1.8573,1.8573,1.8439,1.8579,1.8573,1.8573,1.8573,1.8433,1.8433,1.839,1.818,1.7884,1.7701,1.7432,1.7103,1.7023,1.6877,1.6629,1.6229,1.5844,1.5463,1.5066,1.4936,1.48,1.4534,1.4268,1.3879,1.3486,1.3095,1.2968,1.2836,1.2836,1.2836,1.2836,1.2836,1.2836,1.2704,1.27,1.2568,1.2305,1.1912,1.1516,1.0714,0.9782,0.925,0.872,0.8187,0.7522,0.7121,0.6987,0.6855,0.6721,0.6457,0.647,0.6476,0.65,0.6498,0.6466,0.6476,0.6523,0.657,0.6607,0.6649,0.6684,0.6428,0.6168,0.5633,0.5091,0.4775,0.4478,0.4095,0.3837,0.3559,0.3153,0.2745,0.2464,0.233,0.2333,0.2332,0.2333,2.5249,2.5489,2.584,2.598,2.6067,2.6423,2.6456,2.6119,2.6017,2.5961,2.5961,2.5709,2.5349,2.4734,2.4487,2.386,2.2988,2.2606,2.2111,2.1614,2.1229,2.0729,2.0221,1.9705,1.9456,1.9084,1.8706,1.8673,1.8656,1.848,1.8304,1.8517,1.8288,1.8326,1.839,1.8428,1.8417,1.8439,1.8422,1.8428,1.8428,1.8433,1.8433,1.8433,1.8363,1.8142,1.7895,1.7696,1.7426,1.7147,1.7012,1.6748,1.6494,1.6234,1.5849,1.5463,1.5202,1.4936,1.48,1.4665,1.4403,1.401,1.3613,1.3214,1.2836,1.2836,1.2836,1.2836,1.2836,1.2836,1.2704,1.2704,1.2568,1.2437,1.1776,1.1247,1.0449,0.9519,0.8717,0.8051,0.7653,0.7522,0.6987,0.6855,0.6723,0.6738,0.647,0.6515,0.6519,0.6533,0.6547,0.6558,0.6545,0.6564,0.6627,0.6664,0.6688,0.6733,0.6782,0.639,0.5989,0.5281,0.4709,0.4697,0.4414,0.4154,0.3886,0.3598,0.303,0.2468,0.2328,0.2333,0.2333,0.2333,0.2333,2.4838,2.4872,2.5232,2.5328,2.5435,2.5687,2.5608,2.5427,2.5003,2.4909,2.4786,2.4695,2.4602,2.4108,2.3487,2.2613,2.1985,2.1601,2.1109,2.0602,2.0354,1.9973,1.9456,1.9072,1.8688,1.8354,1.7945,1.7926,1.7945,1.7872,1.7793,1.7997,1.8089,1.8137,1.8288,1.8336,1.8288,1.8331,1.8352,1.8396,1.8417,1.8433,1.8433,1.8433,1.8369,1.8148,1.7863,1.7615,1.741,1.7206,1.7001,1.6877,1.6623,1.6369,1.5979,1.5588,1.5332,1.5066,1.4936,1.48,1.4534,1.4137,1.3731,1.3341,1.2964,1.2836,1.2836,1.2836,1.2836,1.2704,1.2704,1.2572,1.2309,1.1912,1.1251,1.0455,0.9392,0.8475,0.7816,0.7148,0.7024,0.689,0.6762,0.6625,0.6496,0.6506,0.6531,0.6576,0.6615,0.6637,0.6656,0.6674,0.6678,0.6707,0.6739,0.6751,0.677,0.6831,0.688,0.6492,0.5937,0.5199,0.4767,0.4785,0.4504,0.4206,0.392,0.3486,0.3058,0.2478,0.2333,0.2333,0.2333,0.2333,0.2333,2.4821,2.4855,2.4981,2.4948,2.4951,2.4953,2.463,2.4332,2.4034,2.3703,2.3412,2.2879,2.2738,2.2981,2.2606,2.1859,2.0982,2.0596,2.0208,1.9833,1.9334,1.895,1.8693,1.8302,1.7658,1.7433,1.7358,1.7315,1.7528,1.7526,1.7556,1.7776,1.7787,1.7819,1.7846,1.7911,1.8003,1.8094,1.818,1.8207,1.8363,1.8396,1.8433,1.8374,1.8245,1.8008,1.776,1.754,1.7297,1.7103,1.7001,1.6872,1.6748,1.6499,1.6239,1.5849,1.5458,1.5197,1.5066,1.4936,1.4539,1.4272,1.4002,1.3613,1.3227,1.2836,1.2836,1.2836,1.2836,1.2836,1.2704,1.2309,1.2045,1.1262,1.0469,0.9407,0.8344,0.7873,0.7244,0.6996,0.6887,0.6762,0.6779,0.6641,0.6639,0.6649,0.666,0.6696,0.6702,0.6731,0.6762,0.678,0.6798,0.6813,0.6829,0.6833,0.6856,0.6919,0.6813,0.6387,0.5815,0.5241,0.481,0.4665,0.4519,0.4366,0.3936,0.3501,0.3063,0.2478,0.2333,0.2333,0.2333,0.2333,0.2333]}]]